GFSMA_con_mucape_000.txt.gz
CAPE
135 21 0 0 0 4 19 1 0 90 135 143 81 14 44 7 0 0 7 7 2 0 73 282 399 394 136 134 47 21 10 13 13 16 12 9 19 19 22 22 19 19 18
103 214 3 1 83 120 165 66 148 36 116 85 158 169 181 126 21 0 0 0 6 2 0 92 338 369 292 110 45 37 33 21 13 13 14 22 24 23 24 24 21 21 24
8 4 0 0 0 9 65 191 151 177 303 217 163 125 91 116 92 14 0 0 0 1 0 0 204 357 624 286 71 36 43 43 33 23 22 22 33 28 26 33 31 28 30
0 0 0 0 0 0 0 34 27 47 83 113 93 133 65 77 93 69 17 0 0 0 2 0 3 235 285 435 159 18 17 64 47 41 40 34 34 37 32 41 44 39 41
0 0 0 0 0 0 0 0 0 2 3 0 14 161 75 29 148 29 8 0 0 1 0 4 0 0 168 354 439 110 11 23 75 50 47 37 39 41 43 39 61 60 56
0 0 0 0 0 0 0 0 0 0 0 0 0 1 177 305 304 120 66 8 0 0 4 8 7 0 23 262 346 438 126 17 29 43 60 61 44 45 45 40 57 67 64
0 0 0 0 0 0 0 0 0 0 0 0 0 0 0 159 283 135 36 149 12 0 1 11 45 1 49 123 264 386 279 62 24 71 87 66 60 47 53 55 60 58 57
0 0 0 0 0 0 0 0 0 0 0 0 0 0 4 47 164 116 115 141 117 4 2 6 35 34 0 237 343 250 345 408 197 101 82 49 52 47 66 71 71 63 68
0 0 0 0 0 0 0 0 0 0 0 0 0 0 0 3 0 5 105 155 181 23 17 0 44 28 0 4 223 210 150 93 230 165 59 43 55 53 64 68 67 57 76
0 0 0 0 7 9 0 0 0 0 0 0 0 0 0 0 0 0 0 13 26 45 61 26 1 25 7 12 28 97 134 117 102 108 81 36 51 68 70 66 55 57 87
0 0 0 16 48 55 39 44 40 14 6 4 0 0 0 0 0 0 0 0 14 29 61 51 20 3 4 62 84 150 159 187 136 85 71 55 52 45 47 59 54 59 76
0 0 0 0 0 18 35 48 57 62 58 38 23 13 1 0 0 0 0 0 0 4 19 15 31 0 0 42 65 28 29 142 173 119 59 49 51 77 63 53 62 56 76
0 0 0 0 0 0 0 1 8 23 43 34 26 26 15 0 0 0 0 0 0 0 0 34 4 17 17 1 21 2 5 41 125 63 40 56 43 34 54 104 72 43 68
0 0 0 0 0 0 0 0 0 0 14 82 39 55 39 13 7 0 0 0 0 0 0 0 4 17 26 27 0 2 3 0 68 55 18 2 43 49 29 45 28 9 34
0 0 0 0 0 0 0 0 0 5 40 107 142 100 116 120 57 21 13 2 0 0 0 0 2 14 16 0 12 10 16 10 1 41 28 0 10 61 67 48 38 26 32
0 0 0 0 0 0 0 0 1 6 12 89 94 71 89 91 79 50 26 26 24 0 0 0 0 25 3 2 0 0 12 0 15 0 10 14 7 11 60 68 50 40 26
0 0 0 0 0 0 0 3 3 3 6 8 28 106 113 101 135 110 70 41 37 29 0 0 0 5 0 0 0 0 1 0 36 6 0 0 1 4 12 70 71 55 36
0 0 0 0 0 0 0 0 0 2 6 6 8 16 24 58 125 143 141 46 37 45 29 0 0 0 7 0 11 1 4 1 4 53 5 0 0 0 0 60 88 62 46
0 0 0 0 0 0 0 0 0 0 9 15 18 26 28 27 77 95 82 84 58 27 57 67 0 9 5 28 15 0 0 6 21 1 44 5 8 5 20 100 85 50 67
0 0 0 0 0 0 0 0 0 0 0 0 0 0 0 17 56 49 68 67 49 71 78 68 27 18 3 18 20 2 0 0 11 0 5 5 23 14 70 98 85 59 61
0 0 0 0 0 0 0 0 0 0 0 0 0 0 0 0 0 0 14 57 76 94 89 94 71 89 40 18 0 3 2 0 0 0 2 0 4 0 0 88 22 82 33
0 0 0 0 0 0 0 0 0 0 0 0 0 0 0 0 0 0 0 0 0 24 52 100 67 94 46 24 26 8 0 0 0 11 0 0 0 0 0 0 0 0 1
0 0 0 0 0 0 0 0 0 0 0 0 0 0 0 0 0 0 0 0 0 0 0 0 43 84 45 80 33 12 1 1 1 7 3 0 0 8 6 0 3 1 0
0 0 0 0 0 0 0 0 0 0 0 0 0 0 0 0 0 0 0 0 0 0 0 0 0 5 67 78 100 45 4 3 2 2 12 0 0 0 0 0 3 0 0
0 0 0 0 0 0 0 0 0 0 0 0 0 0 0 0 0 0 0 0 0 0 0 0 0 0 2 16 23 124 15 5 9 5 1 7 0 0 0 0 0 0 0
0 0 0 0 0 0 0 0 0 0 0 0 0 0 0 0 0 0 0 0 0 0 0 0 10 0 0 1 15 32 24 8 7 4 0 2 1 0 0 0 1 0 0

GFSMA_con_mucape_003.txt.gz
CAPE
49 23 2 1 1 0 7 22 0 0 56 25 31 5 83 157 55 21 0 0 0 0 0 29 200 359 399 402 95 18 0 4 5 4 25 22 12 27 25 24 20 21 23
1 10 3 2 2 11 57 246 188 169 137 103 98 99 150 175 214 70 21 0 0 3 7 1 13 266 355 528 180 38 8 17 16 11 35 35 30 30 23 26 30 33 34
0 0 0 0 0 0 1 0 0 15 269 299 323 233 167 207 288 182 77 44 8 0 2 1 0 76 471 416 366 69 13 9 26 24 24 40 36 33 27 29 28 31 34
0 0 0 0 0 0 0 0 0 0 0 30 32 78 184 204 151 119 127 36 68 15 0 0 0 0 96 170 336 87 6 7 15 25 30 38 36 33 33 35 32 39 34
0 0 0 0 0 0 0 0 0 0 0 0 0 0 9 233 262 135 138 154 133 55 24 0 0 0 10 95 205 419 72 7 23 19 34 42 43 39 34 33 32 37 37
0 0 0 0 0 0 0 0 0 0 0 0 0 0 0 76 293 343 234 234 141 62 13 5 0 0 4 27 157 290 387 76 17 7 37 55 44 46 32 30 36 42 47
0 0 0 0 0 0 0 0 0 0 0 0 0 0 0 0 0 417 503 264 238 89 30 17 16 0 4 0 29 279 389 397 167 151 91 54 56 44 43 33 37 44 47
0 0 0 0 0 0 0 0 0 0 0 0 0 0 0 0 0 18 31 308 432 319 93 19 16 0 0 6 1 75 404 768 651 279 162 72 58 46 49 53 51 59 65
0 0 0 0 0 2 1 6 0 0 0 2 10 0 0 0 0 0 2 12 63 295 258 36 11 11 0 6 3 40 96 135 436 299 181 121 83 54 58 72 70 60 68
6 14 7 4 7 7 17 39 21 33 53 0 24 5 34 5 0 0 0 0 3 7 43 48 17 15 7 8 12 12 91 131 138 157 156 108 119 82 59 75 89 72 69
0 0 0 5 11 11 38 91 111 125 78 88 69 54 59 41 39 0 0 0 0 5 11 23 39 92 29 18 20 25 10 123 154 115 115 113 151 84 77 81 91 87 82
0 0 0 0 0 0 0 62 101 92 118 108 108 91 80 72 18 37 0 0 0 3 8 0 13 52 50 11 1 7 3 7 141 166 107 52 89 83 89 88 100 101 98
0 0 0 0 0 0 0 0 8 32 24 32 71 81 63 52 63 58 43 0 0 0 0 0 10 5 9 29 53 15 20 10 9 185 201 131 49 33 45 63 76 89 87
0 0 0 0 0 0 0 0 0 8 18 26 42 37 45 54 65 60 59 49 0 0 0 0 0 39 0 37 36 24 28 4 38 36 221 209 146 80 50 14 18 39 42
0 0 0 0 0 0 0 0 0 16 42 67 100 123 93 67 83 91 107 76 58 0 0 0 1 26 55 2 22 46 35 10 50 10 102 232 213 159 89 96 45 7 6
0 0 0 0 0 0 0 0 1 1 36 55 52 101 108 101 115 139 119 92 96 69 48 19 2 8 93 60 31 5 45 15 16 22 41 78 102 203 174 110 97 42 22
0 0 0 0 0 0 0 0 0 8 45 53 80 103 109 128 111 132 138 158 126 118 79 49 49 31 30 139 29 0 30 0 5 0 52 15 34 56 182 173 157 74 46
0 0 0 0 0 0 0 0 0 1 6 13 27 76 93 68 141 166 145 180 204 191 149 96 90 71 101 104 85 55 21 0 3 0 0 2 32 30 48 132 175 164 77
0 0 0 0 0 0 0 0 0 3 15 24 40 64 83 105 98 88 106 136 186 166 177 112 63 105 90 115 115 90 41 34 0 0 0 0 3 29 36 62 131 142 106
0 0 0 0 0 0 0 0 1 9 23 32 49 43 13 19 20 42 55 73 95 117 128 122 90 88 114 94 149 133 7 3 1 1 3 0 0 12 9 30 39 92 104
0 0 0 0 0 0 0 0 0 0 0 0 0 0 0 0 0 0 0 0 6 57 102 115 89 107 105 71 88 117 77 5 2 2 4 2 1 0 0 40 33 52 126
0 0 0 0 0 0 0 0 0 0 0 0 0 0 0 0 0 0 0 0 0 0 0 29 79 104 107 117 131 110 100 0 0 0 7 12 0 0 0 0 0 52 72
0 0 0 0 0 0 0 0 0 0 0 0 0 0 0 0 0 0 0 0 0 0 0 0 0 9 86 113 118 90 101 0 8 4 6 5 1 0 0 0 0 0 94
0 0 0 0 0 0 0 0 0 0 0 0 0 0 0 0 0 0 0 0 0 0 0 0 0 0 0 15 40 23 95 30 1 3 8 7 2 0 0 0 0 0 34
0 0 0 0 0 0 0 0 0 0 0 0 0 0 0 0 0 0 0 0 0 0 0 0 0 0 0 0 19 18 10 26 0 3 4 2 1 0 6 0 0 4 4
0 0 0 0 0 0 0 0 0 0 0 0 0 0 0 0 0 0 0 0 0 0 0 0 0 0 0 0 24 37 16 18 9 1 3 2 1 9 0 7 0 2 0

GFSMA_con_mucape_006.txt.gz
CAPE
109 38 0 0 0 1 0 0 0 0 0 0 0 0 0 19 22 13 11 8 1 0 49 272 541 662 798 848 529 314 143 0 0 0 6 40 29 33 40 35 25 25 20
11 3 0 0 0 0 0 4 20 19 11 0 0 6 8 10 1 15 47 18 0 2 1 0 179 582 880 1022 617 315 129 40 0 0 7 19 21 24 30 33 26 26 25
0 0 0 0 0 0 0 0 0 0 0 12 42 69 56 36 42 93 124 82 47 23 2 0 1 12 474 1045 824 386 155 40 18 0 9 20 29 22 28 29 31 28 32
0 0 0 0 0 0 0 0 0 0 0 0 0 0 0 0 71 98 113 160 116 29 21 9 0 0 0 187 502 465 226 67 27 6 9 16 19 31 33 28 35 12 14
0 0 0 0 0 0 0 0 0 0 0 0 0 0 0 0 0 16 103 135 164 81 33 52 21 0 0 12 310 467 501 233 52 33 4 15 25 29 29 29 10 8 37
0 0 0 0 0 0 0 0 0 0 0 0 0 0 0 0 0 1 29 160 167 160 82 35 19 8 0 0 0 262 298 649 128 30 43 12 32 27 27 11 9 20 40
0 0 0 0 0 0 0 0 0 0 0 0 0 0 0 0 0 0 0 73 168 179 128 67 13 3 0 0 0 2 81 248 866 288 111 36 22 26 23 23 33 44 41
0 0 0 0 0 0 0 0 2 0 0 0 0 0 0 0 0 0 0 5 16 23 58 96 49 9 29 2 0 15 112 373 839 733 226 59 5 10 18 34 42 48 50
0 0 0 0 0 0 0 0 0 0 0 0 0 0 0 0 0 0 0 0 2 7 9 15 108 39 3 8 0 6 12 29 455 797 571 81 26 17 15 27 43 50 66
7 13 23 41 43 26 0 3 2 22 13 0 3 7 3 0 0 0 0 0 0 0 0 0 4 22 26 16 0 0 1 16 22 329 555 314 107 35 14 26 37 59 64
0 0 0 2 0 30 23 0 0 0 0 9 2 5 7 0 0 0 0 0 0 0 0 0 0 0 27 10 23 1 7 22 25 93 177 330 220 92 35 19 34 61 68
0 0 0 0 0 0 0 0 0 0 0 0 0 0 0 0 0 0 0 0 0 0 0 0 0 0 0 2 10 24 21 44 35 46 61 249 249 203 170 83 37 49 74
0 0 0 0 2 0 0 0 0 0 0 0 0 0 0 0 0 0 0 0 0 0 0 0 0 0 0 0 2 1 20 31 17 67 24 93 215 141 155 138 121 85 76
0 0 0 0 0 0 0 0 0 0 0 0 0 0 0 0 0 3 0 0 0 0 0 0 0 0 6 7 0 0 15 18 23 18 43 21 60 159 137 123 69 54 49
0 0 0 0 0 0 0 0 0 0 0 0 0 0 0 0 1 5 0 1 0 0 0 0 0 0 0 49 49 40 21 0 5 31 40 27 5 42 131 139 92 43 27
0 0 0 0 0 0 0 0 0 0 0 0 0 0 0 0 0 0 0 7 28 35 0 0 0 2 0 0 67 52 45 18 0 0 22 9 6 10 87 156 118 86 46
0 0 0 0 0 0 0 0 0 0 0 0 0 0 0 0 0 0 0 0 0 4 5 0 1 1 0 0 0 70 71 47 22 12 0 16 3 1 26 66 131 123 83
0 0 0 0 0 0 0 0 0 0 0 0 0 0 0 0 0 0 1 0 0 0 17 2 0 3 0 0 0 0 41 49 23 11 12 0 9 2 21 2 71 155 133
0 0 0 0 0 0 0 0 0 0 0 0 0 0 0 0 0 0 0 0 4 9 8 24 0 0 0 1 4 0 0 25 50 6 0 0 0 1 1 0 0 74 139
0 0 0 0 0 0 0 0 0 0 0 0 0 0 0 0 0 0 0 0 0 0 0 3 5 0 0 0 0 0 0 12 53 10 0 1 0 0 0 0 0 1 98
0 0 0 0 0 0 0 0 0 0 0 0 0 0 0 0 0 0 0 0 0 0 0 0 0 0 0 0 0 0 3 0 46 15 0 0 0 2 0 0 0 0 0
0 0 0 0 0 0 0 0 0 0 0 0 0 0 0 0 0 0 0 0 0 0 0 0 0 0 0 0 3 5 6 0 7 1 4 0 0 0 17 2 0 0 0
0 0 0 0 0 0 0 0 0 0 0 0 0 0 0 0 0 0 0 0 0 0 0 0 0 0 0 0 8 10 22 15 9 16 9 0 0 7 3 17 11 0 0
0 0 0 0 0 0 0 0 0 0 0 0 0 0 0 0 0 0 0 0 0 0 0 0 0 0 0 0 0 23 15 13 1 1 4 0 0 2 7 7 11 3 2
0 0 0 0 0 0 0 0 0 0 0 0 0 0 0 0 0 0 0 0 0 0 0 0 0 0 0 0 0 0 6 10 1 1 14 5 0 4 8 3 2 1 1
0 0 0 0 0 0 0 0 0 0 0 0 0 0 0 0 0 0 0 0 0 0 0 0 0 0 0 0 0 0 0 2 14 0 0 1 0 2 3 3 13 1 1

GFSMA_con_mucape_009.txt.gz
CAPE
16 12 0 0 0 0 0 0 0 0 0 0 0 0 0 0 3 0 8 3 16 11 53 231 370 553 815 1047 955 839 848 563 337 211 254 186 129 79 51 42 36 31 16
0 0 0 0 0 0 0 0 0 0 0 1 4 8 2 4 0 11 9 1 22 50 81 36 97 335 462 1023 884 691 624 644 448 348 221 168 97 38 20 24 24 29 24
0 0 0 0 0 0 0 0 0 0 0 0 0 2 1 9 10 4 45 57 51 60 55 50 36 16 58 202 881 759 581 427 343 192 104 95 105 41 6 14 21 21 29
0 0 0 0 0 0 0 0 0 0 0 0 0 0 0 0 0 0 0 45 79 118 81 62 18 13 1 0 81 641 820 714 380 173 56 13 68 30 1 7 18 36 34
0 0 0 0 0 0 0 0 0 0 0 0 0 0 0 0 0 0 0 0 17 103 111 90 79 65 37 9 2 0 176 805 578 288 81 60 17 18 0 12 17 26 13
0 0 0 0 0 0 0 0 0 0 0 0 0 0 0 0 0 0 0 0 1 18 92 129 112 82 57 38 46 13 81 254 848 453 275 102 46 14 3 10 21 20 15
0 0 0 0 0 0 0 0 0 0 0 0 0 0 0 0 0 0 0 0 0 0 22 64 139 133 104 23 2 0 32 2 214 765 496 172 70 3 9 7 14 25 21
0 0 0 0 0 0 0 0 0 0 0 0 0 0 0 0 0 0 0 0 0 0 0 1 50 42 40 76 7 5 1 10 28 290 790 309 79 7 1 10 10 18 31
0 0 0 0 0 0 0 0 0 0 0 0 0 0 0 0 0 0 0 0 0 0 3 5 4 4 14 58 53 27 16 4 74 214 238 345 172 35 53 0 10 22 36
0 0 0 1 2 0 0 0 0 0 0 0 0 0 0 0 0 0 0 0 0 0 0 0 4 6 13 12 83 19 16 0 3 19 66 172 288 132 153 53 0 23 41
0 0 0 5 8 5 1 0 0 0 0 0 0 0 0 0 0 0 0 0 0 0 0 0 0 0 8 3 21 29 16 18 19 12 10 8 156 190 148 102 51 5 34
0 0 0 0 0 0 0 0 5 0 0 0 0 0 0 0 0 0 0 0 0 0 0 0 0 0 0 0 0 4 9 3 18 21 20 5 24 178 173 203 148 104 11
0 0 0 0 0 0 0 0 0 0 0 0 0 0 0 0 0 0 0 0 0 0 0 0 0 0 0 0 0 0 1 9 3 19 15 19 25 4 43 167 181 147 124
2 0 0 0 0 0 0 0 0 0 0 0 0 0 0 0 0 0 0 0 0 0 0 0 0 0 0 0 0 2 15 10 1 0 7 20 22 8 34 39 72 77 115
11 7 4 0 0 0 0 0 0 0 0 0 0 0 0 0 0 0 0 0 0 0 0 0 0 0 0 0 29 23 41 36 13 0 0 0 27 19 26 13 1 1 20
2 0 0 0 0 0 0 0 0 0 0 0 0 0 0 0 0 0 0 0 1 0 0 0 0 0 7 3 0 11 22 26 16 8 0 0 2 3 1 4 18 2 17
0 0 0 0 0 0 0 0 0 0 0 0 0 0 0 0 0 0 0 0 0 0 0 0 0 0 0 0 0 0 4 21 33 21 13 20 7 1 0 0 1 1 2
0 0 0 0 0 0 0 0 0 0 0 0 0 0 0 0 0 0 0 0 0 0 0 0 0 0 0 7 2 0 0 13 5 33 20 0 0 0 0 0 0 0 0
0 0 0 0 0 0 0 0 0 0 0 0 0 0 0 0 0 0 0 0 0 0 1 0 0 4 8 10 6 0 0 0 14 22 51 15 0 0 0 0 0 1 0
0 0 0 0 0 0 0 0 0 0 0 0 0 0 0 0 0 0 0 0 0 0 0 0 0 0 0 4 26 15 1 0 0 11 29 44 14 0 0 0 0 0 2
0 0 0 0 0 0 0 0 0 0 0 0 0 0 0 0 0 0 0 0 0 0 0 0 0 0 0 0 0 34 24 8 0 0 0 0 0 0 0 0 0 0 0
0 0 0 0 0 0 0 0 0 0 0 0 0 0 0 0 0 0 0 0 0 0 0 0 0 0 0 0 0 0 36 0 0 0 8 0 0 0 0 0 0 0 0
0 0 0 0 0 0 0 0 0 0 0 0 0 0 0 0 0 0 0 0 0 0 0 0 0 0 0 0 0 0 0 11 0 1 3 0 0 0 0 0 0 0 0
0 0 0 0 0 0 0 0 0 0 0 0 0 0 0 0 0 0 0 0 0 0 0 0 0 0 0 0 0 0 0 0 0 5 7 0 0 0 0 0 0 0 0
0 0 0 0 0 0 0 0 0 0 0 0 0 0 0 0 0 0 0 0 0 0 0 0 0 0 0 0 0 0 0 0 0 0 0 8 1 0 0 0 0 0 0
0 0 0 0 0 0 0 0 0 0 0 0 0 0 0 0 0 0 0 0 0 0 0 0 0 0 0 0 0 0 0 0 0 0 0 0 0 0 0 0 0 0 0

GFSMA_con_mucape_012.txt.gz
CAPE
0 9 23 0 0 0 0 0 1 2 0 0 0 1 1 4 7 3 8 16 13 11 41 167 208 373 517 711 788 840 813 867 695 638 566 409 301 295 273 166 123 32 14
0 0 0 0 0 0 0 0 0 0 0 0 0 0 1 7 14 3 0 2 6 8 7 18 155 305 308 504 656 662 745 768 718 657 575 383 272 185 157 124 80 47 20
0 0 0 0 0 0 0 0 0 0 0 0 0 0 0 0 0 0 0 0 0 5 15 47 65 220 214 232 482 661 696 630 673 702 544 389 255 187 107 75 60 42 35
0 0 0 0 0 0 0 0 0 0 0 0 0 0 0 0 0 0 0 0 0 42 36 44 138 134 151 208 171 243 513 728 582 496 416 414 285 164 98 52 26 44 40
0 0 0 0 0 0 0 0 0 0 0 0 0 0 0 0 0 0 0 0 0 0 0 5 31 77 120 137 171 174 180 506 677 689 427 317 265 185 107 65 45 28 28
0 0 0 0 0 0 0 0 0 0 0 0 0 0 0 0 0 0 0 0 0 0 0 15 2 33 63 107 143 199 237 150 374 117 337 292 124 96 71 41 33 36 24
0 0 0 0 0 0 0 0 0 0 0 0 0 0 0 0 0 0 0 0 0 0 0 0 0 39 26 45 111 193 170 208 172 188 468 197 111 6 28 22 0 2 16
0 0 0 0 0 0 0 0 0 0 0 0 0 0 0 0 0 0 0 0 0 0 0 0 0 1 19 18 27 55 147 195 189 145 151 121 106 83 14 20 2 2 17
0 0 0 0 0 0 0 0 0 0 0 0 0 0 0 0 0 0 0 0 0 0 0 0 0 1 17 29 20 43 64 52 62 107 135 66 137 302 100 51 8 4 15
0 0 0 0 0 0 0 0 0 0 0 0 0 0 0 0 0 0 0 0 0 0 0 0 0 0 0 62 102 25 26 39 46 29 20 21 37 71 135 170 37 37 25
0 0 0 0 0 0 0 3 0 1 0 0 0 0 0 0 0 0 0 0 0 0 0 0 0 0 0 0 5 0 2 18 14 18 3 8 26 15 7 154 190 134 30
0 0 1 9 0 0 0 0 0 0 0 0 0 0 0 0 0 0 0 0 0 0 0 0 0 0 0 0 0 0 0 9 2 1 17 8 7 4 38 27 206 153 144
25 16 13 9 0 0 0 0 0 0 0 0 0 0 1 0 0 0 0 0 0 0 0 0 0 0 0 0 0 0 0 0 0 0 2 5 10 10 5 5 1 49 175
30 26 29 18 12 0 0 0 0 0 0 0 0 0 0 0 0 0 0 0 0 0 0 0 0 0 0 0 0 0 0 9 41 32 2 5 6 8 7 24 4 0 42
14 25 34 33 1 0 0 0 0 0 0 0 0 0 0 0 0 0 0 0 0 0 0 0 0 0 1 0 0 0 0 5 81 72 16 0 8 12 0 0 3 20 2
9 16 13 3 0 0 0 0 0 0 0 0 0 0 0 0 0 0 0 0 0 0 0 0 0 0 0 0 0 0 0 0 0 10 24 22 0 0 0 0 0 3 3
8 4 0 0 0 0 0 0 0 0 0 0 0 0 0 0 0 0 0 0 0 0 0 0 0 0 0 0 0 0 0 0 0 0 28 20 9 29 0 0 0 0 0
0 0 0 0 0 0 0 0 0 0 0 0 0 0 0 0 0 0 0 0 0 0 0 0 0 0 0 4 5 0 0 0 0 0 0 0 5 30 0 0 0 0 0
0 0 0 0 0 0 0 0 0 0 0 0 0 0 0 0 0 0 0 0 0 0 0 0 0 0 0 5 0 0 0 0 0 0 0 0 1 18 0 0 0 0 0
0 0 0 0 0 0 0 0 0 0 0 0 0 0 0 0 0 0 0 0 0 0 0 0 0 0 0 0 0 0 0 0 0 0 0 2 8 17 0 0 0 0 0
0 0 0 0 0 0 0 0 0 0 0 0 0 0 0 0 0 0 0 0 0 0 0 0 0 0 0 0 0 0 0 0 11 0 0 0 4 9 0 0 0 0 0
0 0 0 0 0 0 0 0 0 0 0 0 0 0 0 0 0 0 0 0 0 0 0 0 0 0 0 0 0 0 0 0 0 1 1 0 0 0 0 0 0 0 0
0 0 0 0 0 0 0 0 0 0 0 0 0 0 0 0 0 0 0 0 0 0 0 0 0 0 0 0 0 0 0 0 0 0 5 3 1 0 0 0 0 0 0
0 0 0 0 0 0 0 0 0 0 0 0 0 0 0 0 0 0 0 0 0 0 0 0 0 0 0 0 0 0 0 0 0 0 0 0 0 0 0 0 0 0 0
0 0 0 0 0 0 0 0 0 0 0 0 0 0 0 0 0 0 0 0 0 0 0 0 0 0 0 0 0 0 0 0 0 0 0 0 0 0 0 0 0 0 0
0 0 0 0 0 0 0 0 0 0 0 0 0 0 0 0 0 0 0 0 0 0 0 0 0 0 0 0 0 0 0 0 0 0 0 0 0 0 0 0 0 0 0

GFSMA_con_mucape_018.txt.gz
CAPE
30 2 0 0 0 0 0 0 0 0 0 0 0 0 0 0 0 0 0 0 0 0 0 0 6 94 143 225 367 408 381 419 556 702 630 487 425 414 365 350 301 161 118
0 0 0 0 0 0 0 0 0 0 0 0 0 0 0 0 0 0 0 0 0 0 0 0 0 5 10 175 240 407 331 381 394 566 603 495 401 347 272 335 279 202 153
0 0 0 0 0 0 0 0 0 0 0 0 0 0 0 0 0 0 0 0 0 0 0 0 0 0 2 18 48 178 285 445 492 448 529 512 473 348 279 255 287 246 224
0 0 0 0 0 0 0 0 0 0 0 0 0 0 0 0 0 0 0 0 0 0 0 0 0 0 0 1 0 63 172 306 433 429 476 473 467 427 312 245 227 249 241
0 0 0 0 0 0 0 0 0 0 0 0 0 0 0 0 0 0 0 0 0 0 0 0 0 0 0 0 0 0 16 115 134 139 321 396 407 482 348 257 225 235 212
0 0 0 0 0 0 0 0 0 0 0 0 0 0 0 0 0 0 0 0 0 0 0 0 0 0 0 0 0 0 4 16 26 29 37 24 138 310 107 165 260 272 219
0 0 0 0 0 0 0 0 0 0 0 0 0 0 0 0 0 0 0 0 0 0 0 0 0 0 0 0 0 0 0 11 0 7 4 0 5 5 54 128 157 227 223
0 0 0 0 0 0 0 0 0 0 0 0 0 0 0 0 0 0 0 0 0 0 0 0 0 0 0 0 0 0 0 0 0 0 0 0 2 3 22 57 252 177 105
0 0 0 0 0 0 0 0 0 0 0 0 0 0 0 0 0 0 0 0 0 0 0 0 0 0 0 0 0 0 0 0 0 0 0 0 0 0 5 4 50 293 222
0 0 0 0 0 0 0 0 11 4 3 0 0 0 0 0 0 0 0 0 0 0 0 0 0 0 0 0 0 0 0 0 0 0 0 0 0 2 0 3 2 61 219
0 0 0 0 0 0 0 7 15 15 8 8 1 0 0 0 0 0 0 0 0 0 0 0 0 0 0 0 0 0 0 0 0 0 0 0 0 3 9 1 2 46 77
0 0 0 0 0 0 0 0 16 13 12 1 0 2 0 0 0 0 0 0 0 0 0 0 0 0 0 0 0 0 0 0 0 0 0 0 2 0 1 0 15 13 121
0 0 0 0 0 0 0 0 0 6 15 8 0 2 2 0 0 0 0 0 0 0 0 0 0 0 0 0 0 0 0 0 0 0 0 0 8 36 0 0 12 9 15
0 0 0 0 0 0 0 2 5 39 11 11 13 0 0 0 0 0 0 0 0 0 0 0 0 0 0 0 0 0 0 0 0 0 0 12 3 0 13 0 1 8 10
0 0 0 0 0 0 6 10 11 19 22 0 0 0 0 0 0 0 0 0 0 0 0 0 0 0 0 0 0 0 0 0 0 0 0 0 7 0 2 40 0 0 10
0 0 0 2 2 1 0 0 4 8 0 0 0 0 0 0 0 0 0 0 0 0 0 0 0 0 0 0 0 0 0 0 0 0 0 0 0 0 0 12 2 0 17
0 0 0 1 0 0 0 0 0 0 0 0 0 0 0 0 0 0 0 0 0 0 0 0 0 0 0 0 0 0 0 0 0 0 0 0 0 0 0 0 0 6 0
0 0 0 0 0 0 0 0 0 0 0 0 0 0 0 0 0 0 0 0 0 0 0 0 0 0 0 0 0 0 0 0 0 0 0 0 0 1 0 0 0 0 14
0 0 0 0 0 0 0 0 0 0 0 0 0 0 0 0 0 0 0 0 0 0 0 0 0 0 0 0 0 0 0 0 0 0 0 0 0 0 0 0 0 0 0
2 0 0 0 0 0 0 0 0 0 0 0 0 0 0 0 0 0 0 0 0 0 0 0 0 0 0 0 0 0 0 0 0 0 0 0 0 0 0 0 0 0 0
0 0 0 0 0 0 0 0 0 0 0 0 0 0 0 0 0 0 0 0 0 0 0 0 0 0 0 0 0 0 0 0 0 0 0 0 0 0 0 0 0 0 0
0 0 10 1 0 0 0 0 0 0 0 0 0 0 0 0 0 0 0 0 0 0 0 0 0 0 0 0 0 0 0 0 0 0 0 0 0 0 0 0 0 0 0
0 0 0 0 0 0 0 0 0 0 0 0 0 0 0 0 0 0 0 0 0 0 0 0 0 0 0 0 0 0 0 0 0 0 0 0 0 0 0 0 0 0 0
0 0 0 0 0 0 0 0 0 0 0 0 0 0 0 0 0 0 0 0 0 0 0 0 0 0 0 0 0 0 0 0 0 0 0 0 0 0 0 0 0 0 0
0 0 0 0 0 0 0 0 0 0 0 0 0 0 0 0 0 0 0 0 0 0 0 0 0 0 0 0 0 0 0 0 0 0 0 0 0 0 0 0 0 1 4
0 0 0 0 0 0 0 0 0 0 0 0 0 0 0 0 0 0 0 0 0 0 0 0 0 0 0 0 0 0 0 0 0 0 0 0 0 0 0 0 0 1 8

GFSMA_con_mucape_024.txt.gz
CAPE
604 552 337 218 66 4 5 5 4 6 0 0 0 0 0 0 0 0 0 0 0 0 0 0 0 0 0 0 25 150 265 328 441 466 520 517 458 485 570 462 425 445 356
461 184 8 0 0 0 0 0 0 0 0 0 0 0 0 0 0 0 0 0 0 0 0 0 0 0 0 0 0 0 6 149 298 370 337 422 410 390 287 315 295 333 352
100 76 8 0 0 0 25 65 6 0 0 0 0 0 0 0 0 0 0 0 0 0 0 0 0 0 0 0 0 0 0 0 74 215 295 524 331 337 275 273 240 250 382
80 49 8 0 0 5 0 0 0 0 0 0 0 0 0 0 0 0 0 0 0 0 0 0 0 0 0 0 0 0 0 0 0 15 97 249 347 326 283 326 235 246 272
24 53 34 22 37 40 21 33 9 0 0 0 0 0 0 0 0 0 0 0 0 0 0 0 0 0 0 0 0 0 0 0 0 0 0 2 13 1 102 268 286 284 277
0 4 2 17 47 57 37 42 69 42 0 0 0 0 0 0 0 0 0 0 0 0 0 0 0 0 0 0 0 0 0 0 0 0 0 0 13 8 3 17 109 230 300
0 0 0 0 14 32 54 57 49 81 77 13 0 0 0 0 0 0 0 0 0 0 0 0 0 0 0 0 0 0 0 0 0 0 0 0 0 0 0 3 2 39 12
0 0 0 0 0 0 8 23 69 74 52 23 28 0 3 5 8 0 0 0 0 0 0 0 0 0 0 0 0 0 0 0 0 0 0 0 0 0 0 0 0 1 25
1 0 0 0 0 0 0 0 5 25 43 48 63 18 20 30 50 48 4 0 0 0 0 0 0 0 0 0 0 0 0 0 0 0 0 0 0 0 0 0 0 0 0
0 0 0 0 0 0 0 0 2 11 38 30 86 113 35 26 72 77 7 0 0 0 0 0 0 0 0 0 0 0 0 0 0 0 0 0 0 0 0 0 0 0 0
0 0 0 0 0 0 0 1 8 21 28 46 45 68 54 35 5 33 39 14 1 0 0 0 0 0 0 0 0 0 0 0 0 0 0 0 0 0 0 0 0 0 0
0 0 0 0 0 0 0 2 7 11 14 14 7 5 1 1 7 14 13 17 35 7 0 0 0 0 0 0 0 0 0 0 0 0 0 0 0 0 0 0 1 6 0
0 0 0 3 5 9 10 6 0 0 0 0 0 0 0 3 4 10 17 14 12 11 1 5 0 0 0 0 0 0 0 0 0 0 0 0 0 0 0 0 0 0 0
0 3 9 15 15 12 0 0 0 0 0 0 0 0 0 0 4 9 17 27 6 7 1 1 0 0 0 0 0 0 0 0 0 0 0 0 0 0 0 0 0 0 0
0 8 15 16 27 0 0 0 0 0 0 0 0 0 0 0 0 0 0 0 0 2 0 0 0 0 0 0 0 0 0 0 0 0 0 0 0 0 0 0 0 0 0
17 14 11 0 2 0 0 0 0 0 0 0 0 0 0 0 0 0 0 0 0 0 0 0 0 0 0 0 0 0 0 0 0 0 0 0 0 0 0 0 0 0 0
7 1 0 1 0 0 0 0 0 0 0 0 0 0 0 0 0 0 0 0 0 0 0 0 0 0 0 0 0 8 6 0 1 0 0 0 0 0 0 0 0 0 0
0 0 1 0 0 0 0 0 0 0 0 0 0 0 0 0 0 0 0 0 25 25 0 0 0 0 0 5 9 6 0 1 3 0 5 0 0 0 0 0 0 0 0
9 9 41 44 0 0 0 0 0 0 0 1 1 2 2 3 6 7 7 2 0 0 14 0 0 4 11 5 0 0 0 0 3 0 0 0 0 0 0 0 0 0 0
40 40 54 54 61 0 0 0 0 0 2 1 2 2 3 1 0 0 0 0 0 0 0 0 0 0 12 15 8 0 0 23 24 13 6 0 0 0 0 0 0 0 0
48 46 35 11 1 1 0 0 0 0 0 0 0 0 0 0 0 0 0 0 0 0 0 0 0 0 0 0 0 0 0 0 0 0 0 0 0 6 24 0 0 0 0
0 0 0 3 3 2 0 0 0 0 0 0 0 0 0 0 0 0 0 0 0 0 0 0 0 0 0 0 0 0 0 0 0 0 0 0 0 0 0 33 11 0 0
0 1 3 7 8 9 0 0 0 0 0 0 0 0 0 0 0 0 0 0 0 0 0 0 0 0 0 0 0 0 0 0 0 0 0 0 0 0 0 0 0 0 0
2 5 6 7 5 0 0 0 0 0 0 0 0 0 0 0 0 0 0 0 0 0 0 0 0 0 0 0 0 0 0 0 0 0 0 0 0 0 0 0 0 0 0
3 4 4 0 0 0 0 0 0 0 0 0 0 0 0 0 0 0 0 0 0 0 0 0 0 0 0 0 0 0 0 0 0 0 0 0 0 0 0 0 0 0 0
5 0 0 0 0 0 0 0 0 0 0 0 0 0 0 0 0 0 0 0 0 0 0 0 0 0 0 0 0 0 0 0 0 0 0 0 0 0 0 0 0 0 6

GFSMA_con_mucape_027.txt.gz
CAPE
301 191 120 24 2 3 6 10 10 7 13 4 0 0 0 0 0 0 0 0 0 0 0 0 0 0 0 0 13 88 235 336 378 439 580 553 521 431 402 428 429 473 498
141 78 19 0 0 0 2 0 0 0 0 0 0 0 0 0 0 0 0 0 0 0 0 0 0 0 0 0 0 0 2 41 197 368 409 424 431 462 397 329 391 412 471
38 56 32 23 8 7 83 12 8 11 17 10 2 0 0 0 0 0 0 0 0 0 0 0 0 0 0 0 0 0 0 0 6 161 296 398 436 315 301 382 373 399 417
51 67 53 54 43 99 41 40 38 40 41 28 18 2 0 0 0 0 0 0 0 0 0 0 0 0 0 0 0 0 0 0 0 0 36 201 244 249 273 296 349 313 316
8 39 38 37 111 53 104 147 119 207 124 76 24 26 13 1 1 0 0 0 0 0 0 0 0 0 0 0 0 0 0 0 0 0 0 0 18 35 54 136 278 357 321
0 0 7 51 81 60 157 219 346 201 231 240 52 25 82 16 11 12 1 0 0 0 0 0 0 0 0 0 0 0 0 0 0 0 0 0 0 2 0 4 38 97 279
0 1 1 1 42 38 139 260 277 287 294 354 261 274 188 115 62 9 11 10 6 2 3 0 1 0 0 0 0 0 0 0 0 0 0 0 0 0 0 3 5 12 19
0 0 0 0 0 0 20 88 206 212 274 358 244 246 154 154 196 92 16 4 16 2 10 6 1 0 0 0 0 0 0 0 0 0 0 0 0 0 0 0 0 0 8
3 0 0 0 0 0 0 55 87 135 148 155 390 314 212 166 244 282 233 138 119 99 29 26 4 0 0 0 0 0 0 0 0 0 0 0 0 0 0 0 0 0 0
0 0 0 0 0 0 5 12 21 137 175 111 165 159 211 217 194 277 194 97 97 79 159 75 39 25 0 0 0 0 0 0 0 0 0 0 0 0 0 0 0 0 0
0 0 0 0 0 0 8 12 22 29 26 50 66 35 0 3 47 42 38 156 63 37 20 45 31 7 1 0 0 0 0 0 0 0 0 0 0 0 0 0 0 0 0
0 0 0 0 1 4 22 29 31 14 8 10 16 2 12 10 6 10 16 21 38 61 12 21 3 0 0 24 0 0 0 0 0 0 0 0 0 0 0 0 0 0 0
0 0 0 4 15 27 27 16 24 8 0 0 0 0 0 0 1 6 8 11 26 42 39 14 25 0 4 22 0 0 0 0 0 0 0 0 0 0 0 0 0 0 0
1 2 13 22 33 5 8 6 7 9 0 0 0 0 0 0 0 0 0 0 2 16 37 44 17 24 0 35 0 0 0 0 0 0 0 0 0 0 0 0 0 0 0
2 17 1 4 5 10 9 11 3 0 0 0 0 0 0 0 0 0 0 0 0 0 1 10 5 0 53 53 51 37 8 0 0 0 0 0 0 0 0 0 0 0 0
14 7 11 15 8 4 5 0 0 0 0 0 0 0 0 9 0 0 0 0 0 0 0 0 0 0 0 0 7 10 0 0 0 0 0 0 0 0 0 0 0 0 0
7 18 20 3 0 14 0 20 26 0 0 0 0 0 0 0 0 0 36 72 71 28 0 0 0 0 0 34 1 29 16 31 33 2 0 0 0 0 0 0 0 0 0
33 30 23 31 30 37 24 2 31 0 0 0 55 55 22 13 19 19 26 18 33 36 21 0 4 24 25 31 37 48 14 8 41 5 12 2 0 0 0 0 0 0 0
33 45 45 50 38 28 24 31 26 32 18 20 17 20 16 14 12 13 20 26 32 19 36 12 0 38 43 37 35 37 40 56 13 13 2 2 2 1 0 0 0 0 0
28 49 46 31 30 20 19 29 21 6 4 4 8 10 8 9 12 16 16 20 14 22 25 43 23 32 48 46 60 67 63 67 54 10 8 1 6 5 0 0 0 0 0
16 13 18 16 20 22 12 0 0 0 0 0 1 3 9 16 0 0 0 0 0 1 30 44 13 27 10 0 6 32 44 47 38 32 38 33 39 35 39 0 0 0 0
32 21 15 19 29 23 1 0 0 0 0 0 4 10 19 30 21 14 0 0 0 0 0 0 0 0 0 0 0 0 0 0 0 63 0 0 1 0 0 0 0 0 0
19 17 23 27 31 30 2 0 0 0 0 0 15 26 14 12 9 0 0 0 0 0 0 0 0 0 0 0 0 0 0 0 0 0 0 0 0 0 0 0 0 0 0
16 19 23 23 28 23 0 0 0 0 0 0 0 0 0 0 0 0 0 0 0 0 0 0 0 0 0 0 0 0 0 0 0 0 0 0 0 0 0 51 0 0 0
18 20 19 19 4 0 0 0 0 0 0 0 0 0 0 0 0 0 0 0 0 0 0 0 0 0 0 0 0 0 0 0 0 0 0 0 0 0 0 0 6 0 0
19 20 6 0 0 0 0 0 0 0 0 0 0 0 0 0 0 0 0 0 0 0 0 0 0 0 0 0 0 0 0 0 0 0 0 0 0 2 0 1 0 27 0

GFSMA_con_mucape_030.txt.gz
CAPE
564 336 148 63 9 0 0 1 0 0 0 6 8 0 0 0 0 0 0 0 0 0 0 0 0 0 0 0 36 176 314 402 481 553 706 690 577 574 589 463 359 324 303
350 165 90 27 2 0 0 0 0 0 0 0 0 0 0 0 0 0 0 0 0 0 0 0 0 0 0 0 0 0 10 87 174 336 537 425 420 422 411 411 365 351 375
128 99 71 53 19 44 40 10 0 0 0 0 0 0 0 0 0 0 0 0 0 0 0 0 0 0 0 0 0 0 0 0 30 141 258 424 315 238 227 364 401 419 496
60 71 82 90 100 90 50 47 46 20 11 11 1 0 0 0 0 0 0 0 0 0 0 0 0 0 0 0 0 0 0 0 4 10 63 208 227 172 254 195 337 420 460
59 32 30 50 95 55 50 60 36 52 47 43 20 5 0 7 1 0 0 0 0 0 0 0 0 0 0 0 0 0 0 0 0 0 0 0 0 9 44 48 186 238 300
8 9 0 13 73 31 25 41 75 95 100 99 62 46 21 22 17 13 0 0 0 0 0 0 0 0 0 0 0 0 0 0 0 0 0 0 0 0 4 2 5 12 193
0 0 0 0 0 0 0 0 0 0 0 73 111 35 0 0 45 43 5 4 0 0 0 0 0 0 0 0 0 0 0 0 0 0 0 0 0 0 0 0 1 2 0
0 0 0 0 0 0 0 0 0 0 0 7 71 63 9 0 0 11 58 21 5 8 3 0 0 0 0 0 0 0 0 0 0 0 0 0 0 0 0 0 0 0 1
0 0 0 0 0 0 0 0 0 0 1 0 9 84 44 14 14 0 17 68 54 28 35 2 3 4 0 0 0 0 0 0 0 0 0 0 0 0 0 0 0 0 0
0 0 0 0 0 0 0 0 0 3 7 0 0 5 7 19 15 2 3 26 115 93 73 36 17 0 0 1 0 0 0 0 0 0 0 0 0 0 0 0 0 0 0
0 0 0 0 0 0 0 8 1 0 3 16 15 4 2 0 18 39 7 0 0 49 38 28 34 32 5 0 0 4 0 0 0 0 0 0 0 0 0 0 0 0 0
0 0 0 0 0 0 0 0 4 3 5 1 8 1 0 0 0 0 0 0 0 0 49 71 65 10 10 0 0 0 0 0 0 0 0 0 0 0 0 0 0 0 0
0 0 0 0 0 1 3 9 8 9 9 6 0 0 0 0 0 0 0 0 3 2 6 7 5 31 6 25 0 5 0 0 0 0 0 0 0 0 0 0 0 0 0
0 0 0 1 1 9 18 21 1 1 0 0 0 0 0 0 0 0 0 0 0 0 0 2 6 45 11 16 6 0 0 0 0 0 0 0 0 0 0 0 0 0 0
0 0 0 0 0 7 10 4 4 0 0 0 5 1 1 20 0 0 0 0 0 0 0 0 0 0 0 0 0 0 0 0 0 0 0 0 0 0 0 0 0 0 0
0 1 6 4 4 1 0 0 4 4 14 5 0 0 4 4 0 4 41 0 0 0 0 0 0 0 0 0 0 0 0 0 0 0 0 0 0 0 0 0 0 0 0
1 7 19 1 7 21 17 15 20 17 24 28 26 28 25 25 7 22 17 36 36 11 0 0 0 0 0 0 0 0 0 0 0 0 0 0 0 0 0 0 0 0 0
14 24 21 24 27 17 19 16 15 20 30 19 5 0 0 3 3 3 4 8 11 10 2 0 3 2 0 0 0 0 0 0 0 5 11 5 0 0 0 0 0 0 0
13 8 24 20 28 31 16 0 5 13 1 0 0 0 0 0 0 1 2 4 8 8 4 0 0 0 0 0 0 0 0 0 0 5 0 0 4 3 0 0 0 0 0
22 26 24 14 8 0 1 2 1 0 0 0 0 0 0 0 2 9 3 1 1 0 0 0 0 0 0 2 5 8 2 2 5 8 7 6 2 10 20 10 0 0 0
18 18 16 3 5 8 6 3 0 0 0 0 0 0 0 3 45 8 6 1 0 0 0 0 0 0 0 0 0 0 0 0 0 0 0 0 0 0 0 1 0 3 0
26 11 0 6 15 12 4 0 0 0 0 0 0 0 0 10 1 26 36 9 0 0 0 0 0 0 0 0 0 0 0 0 0 0 0 0 0 0 0 0 0 0 0
1 0 3 11 5 1 0 0 0 0 0 0 0 0 0 0 0 0 0 0 0 0 0 0 0 0 0 0 0 0 0 0 0 0 0 0 0 0 0 0 0 0 0
0 1 6 1 0 0 0 0 0 0 0 0 0 0 0 0 0 0 0 0 0 0 0 0 0 0 0 0 0 0 0 0 0 0 0 0 0 0 0 0 0 0 0
1 9 1 0 0 0 0 0 0 0 0 0 0 0 0 0 0 0 0 0 0 0 0 0 0 0 0 0 0 0 0 0 0 0 0 0 0 0 0 0 0 3 0
6 1 0 0 0 0 0 0 0 0 0 0 0 0 0 0 0 0 0 0 0 0 0 0 0 0 0 0 0 0 0 0 0 0 0 0 0 0 0 0 0 0 0

GFSMA_con_mucape_033.txt.gz
CAPE
41 39 6 3 0 0 0 0 0 0 0 0 0 0 0 0 0 0 0 0 0 0 0 0 0 0 39 50 64 309 447 569 637 727 974 711 639 741 820 749 557 434 308
21 19 0 1 2 0 0 0 0 0 0 0 0 0 0 0 0 0 0 0 0 0 0 0 0 0 3 40 6 1 54 241 391 516 811 631 607 564 544 570 573 416 341
8 0 0 11 4 11 4 4 0 0 0 0 0 0 0 0 0 0 0 0 0 0 0 0 0 0 0 0 0 0 8 53 104 157 317 627 448 341 385 397 457 472 467
0 0 3 0 0 0 0 0 0 0 0 0 0 0 0 0 1 0 0 0 0 0 0 0 0 0 0 0 0 0 0 0 30 150 165 253 379 320 296 226 219 349 512
0 0 0 0 0 0 0 0 0 0 0 0 0 0 0 0 0 0 0 0 0 0 0 0 0 0 0 0 0 0 0 0 10 53 45 87 129 100 97 103 147 253 266
0 0 0 0 0 0 0 0 0 0 0 0 0 0 0 0 0 0 0 34 39 0 0 0 0 0 0 0 0 0 0 0 10 0 3 0 0 7 2 0 20 52 110
0 0 0 0 0 0 0 0 0 0 0 0 0 0 0 0 0 0 0 0 8 53 37 0 0 0 0 0 3 0 0 0 0 49 0 0 0 0 0 0 1 1 0
0 0 0 0 0 0 0 0 0 0 0 0 0 0 0 0 0 0 0 0 5 34 65 39 43 14 10 12 3 16 1 0 13 39 0 0 0 0 0 0 0 0 1
0 0 0 0 0 0 0 0 0 0 0 0 0 0 1 4 0 0 0 0 0 12 43 46 29 38 19 0 6 7 8 3 22 0 0 0 0 0 0 0 0 0 0
0 0 0 0 0 0 0 0 0 0 8 8 7 14 16 21 11 0 0 0 0 0 0 3 30 67 47 22 19 12 14 4 6 5 0 0 0 0 0 0 0 0 0
0 0 0 0 0 0 0 0 4 7 4 5 4 2 0 1 0 0 0 0 0 0 0 10 2 7 63 68 1 0 0 1 1 0 0 0 0 0 0 0 0 0 0
0 0 0 0 0 0 0 0 0 0 0 0 3 2 1 0 0 0 0 0 0 0 0 0 0 5 10 21 43 0 7 0 0 1 0 0 0 0 0 0 0 0 0
0 0 0 0 0 0 0 0 3 3 0 1 0 0 0 0 0 0 0 0 0 0 0 0 0 0 2 5 6 2 17 0 0 0 3 1 0 0 0 0 0 0 0
0 0 0 0 0 0 0 0 0 0 0 0 1 8 6 5 0 0 0 0 0 0 0 0 0 0 0 8 23 12 0 1 0 0 0 0 0 0 0 0 0 0 0
0 0 0 0 0 0 0 0 0 0 0 0 0 0 0 0 0 7 0 0 0 0 0 0 0 0 0 0 0 0 0 7 0 0 0 0 0 0 0 0 0 0 0
0 0 0 0 1 1 10 6 7 5 4 10 14 16 20 15 14 21 35 13 25 0 0 0 0 0 0 0 0 0 0 0 0 0 0 0 0 0 0 0 0 0 0
0 0 5 11 17 25 30 22 0 0 0 7 20 9 13 16 5 0 0 0 5 22 0 0 12 3 0 0 0 0 0 0 0 0 0 0 0 0 0 0 0 0 0
0 1 18 27 29 24 27 25 0 0 0 4 11 9 12 12 0 0 0 0 0 0 0 0 0 0 0 0 0 0 0 0 0 0 0 0 0 0 0 0 0 0 0
0 9 27 24 30 18 2 1 0 1 0 3 9 9 3 0 0 0 0 0 0 0 0 0 0 0 0 0 0 0 0 0 0 2 2 0 7 2 0 0 0 0 0
9 17 14 13 0 0 0 0 0 2 1 0 0 0 0 0 0 0 0 0 0 0 0 0 0 0 0 0 0 0 0 0 0 0 0 0 0 0 0 9 0 0 0
0 0 6 11 1 0 0 0 3 2 0 0 0 0 0 0 0 18 2 0 0 0 0 0 0 0 0 0 0 0 0 0 0 0 0 0 4 1 0 1 1 4 0
0 0 0 1 0 0 0 2 0 0 0 0 0 0 0 0 0 0 0 0 0 0 0 0 0 0 0 0 0 0 0 0 0 0 0 0 0 0 1 1 0 0 0
0 0 0 0 0 0 1 0 0 0 0 0 0 0 0 0 0 0 0 0 0 0 0 0 0 0 0 0 0 0 0 0 0 0 0 0 0 0 0 0 0 0 0
0 0 0 0 0 1 0 0 0 0 0 0 0 0 0 0 0 0 0 0 0 0 0 0 0 0 0 0 0 0 0 0 0 0 0 0 0 0 0 0 0 0 0
0 0 0 0 0 0 0 0 0 0 0 0 0 0 0 0 0 0 0 0 0 0 0 0 7 0 0 0 0 0 0 0 0 0 0 0 0 0 0 0 0 0 0
0 0 0 0 0 0 0 0 0 0 0 0 0 0 0 0 0 0 0 0 0 0 0 0 0 0 0 0 0 0 0 0 0 0 0 0 0 0 0 0 0 0 0

GFSMA_con_mucape_039.txt.gz
CAPE
99 35 61 0 0 0 0 0 0 0 0 0 0 0 0 0 0 0 0 0 0 0 2 3 0 0 0 91 289 165 159 221 489 706 1038 939 800 827 712 665 666 701 557
39 20 0 0 0 0 0 0 0 0 0 0 0 0 0 0 0 0 0 0 0 0 0 0 3 3 0 49 125 393 143 151 167 425 794 899 680 587 522 628 665 652 542
10 5 0 0 0 0 0 0 0 0 0 0 0 0 0 0 0 0 0 5 6 0 0 2 0 76 80 52 121 185 142 65 71 102 372 814 704 580 426 351 396 617 663
8 0 0 0 7 6 1 0 0 0 0 0 0 0 0 0 0 0 0 0 0 0 0 0 0 3 78 59 4 33 74 108 50 66 175 403 548 586 532 394 364 459 558
2 1 1 6 8 6 3 6 1 0 0 0 0 0 0 0 0 0 0 0 0 0 0 0 0 0 0 24 36 38 61 89 81 19 76 187 209 372 494 354 299 350 319
31 49 53 47 17 16 5 1 0 0 0 0 0 0 0 0 0 0 0 0 0 0 0 0 0 0 0 0 9 43 115 101 105 53 4 78 148 169 493 261 248 236 201
51 39 30 24 7 6 2 4 0 0 0 0 0 0 0 0 0 0 0 0 0 0 0 0 0 0 0 0 1 8 38 150 164 151 183 196 246 191 197 125 108 115 95
0 1 4 9 17 18 16 5 0 0 0 0 0 0 0 0 0 0 0 0 0 0 0 0 0 0 0 0 0 0 15 17 162 307 276 278 299 214 78 25 11 9 1
0 0 0 0 0 0 0 0 0 0 0 0 0 0 0 0 0 0 0 0 0 0 0 0 0 0 0 0 0 0 0 17 40 26 238 314 347 162 3 0 0 0 0
0 0 0 0 0 0 0 0 0 0 0 0 0 0 0 0 0 0 0 0 0 0 0 0 0 0 0 0 2 0 0 0 16 44 3 67 391 220 42 3 0 0 0
0 0 0 0 0 0 0 0 0 0 0 0 0 0 0 0 0 0 0 0 0 0 0 0 0 0 0 0 0 1 2 0 0 12 46 14 18 302 155 35 0 0 0
0 0 0 0 0 0 0 0 0 0 0 0 0 0 0 0 0 0 0 0 0 0 0 0 0 0 0 0 0 0 0 0 0 14 10 27 30 32 198 2 0 0 0
0 0 0 0 0 0 0 0 0 0 0 0 0 0 0 0 0 0 0 0 0 0 0 0 0 0 0 0 0 0 0 0 0 2 7 5 16 2 13 0 0 0 0
0 0 0 0 0 0 0 0 1 0 0 0 0 3 8 21 21 0 0 0 0 0 0 0 0 0 0 0 0 0 0 0 0 0 4 1 2 1 0 0 2 1 0
0 0 0 0 0 0 1 5 5 1 0 0 0 5 16 30 24 0 1 9 5 0 0 0 0 0 0 0 0 0 0 0 0 0 3 0 0 0 6 3 0 0 0
0 0 0 0 0 0 0 2 0 0 0 0 5 14 13 25 36 25 17 14 1 0 0 0 0 0 0 0 0 0 0 28 14 0 0 7 3 2 1 1 13 1 0
0 0 0 0 0 0 0 0 0 0 0 0 0 5 13 18 17 17 6 6 0 0 0 0 0 0 0 0 0 0 0 0 0 19 0 0 1 10 3 0 0 0 0
9 4 7 2 2 1 0 0 0 0 0 0 1 2 4 0 0 0 0 0 0 0 0 0 0 0 0 0 0 0 0 0 0 0 0 0 0 0 0 0 0 0 0
14 24 10 1 0 0 0 0 0 0 0 0 0 0 0 0 0 0 0 0 0 0 0 0 0 0 0 0 0 0 0 0 0 0 0 0 0 0 0 0 0 0 0
15 27 0 6 0 7 0 0 0 0 0 0 0 0 0 0 0 0 0 0 0 0 0 0 0 0 0 0 0 0 0 0 0 0 0 0 0 0 0 0 0 0 0
16 6 0 0 0 0 3 0 0 0 0 0 0 0 0 0 0 0 0 0 0 0 0 0 0 0 0 0 0 0 0 0 0 0 0 0 0 0 1 0 0 0 0
18 9 9 0 0 3 0 0 0 0 0 0 0 0 0 0 0 0 0 0 0 0 0 0 0 0 0 0 0 0 0 0 0 0 0 0 0 0 0 2 1 0 0
0 0 0 0 0 0 0 0 0 0 0 0 0 0 0 0 0 0 0 0 0 0 0 0 0 0 0 0 0 0 0 0 0 0 0 0 0 0 0 0 0 1 1
0 0 0 0 0 0 0 0 0 0 0 0 0 0 0 0 0 0 0 0 0 0 0 0 0 0 0 0 0 0 0 0 0 0 0 0 0 0 0 0 0 0 0
0 0 0 0 0 0 0 0 0 0 0 0 0 0 0 0 0 0 0 0 0 0 0 0 0 0 0 0 0 0 0 0 0 0 0 0 0 0 0 0 0 0 0
0 0 0 0 0 0 0 0 0 0 0 0 0 0 0 0 0 0 0 0 0 0 0 0 0 0 0 0 0 0 0 0 0 0 0 0 0 0 0 0 0 0 0

GFSMA_con_mucape_042.txt.gz
CAPE
196 99 80 14 0 0 0 0 0 0 0 0 0 0 0 0 0 0 0 0 0 0 0 0 22 0 91 179 206 318 50 0 0 32 416 765 711 462 475 491 415 305 369
243 60 12 0 0 0 0 0 0 0 0 0 0 0 0 0 0 0 0 0 0 0 0 0 0 0 2 19 152 350 414 249 0 0 20 462 655 498 323 368 397 382 363
222 4 0 0 0 0 1 2 2 0 0 0 0 0 0 0 0 0 0 0 0 0 0 0 0 0 0 0 6 113 213 380 174 0 0 106 380 524 428 243 290 370 399
115 0 4 10 14 2 10 12 16 19 14 5 0 0 0 0 0 0 0 0 0 0 0 0 0 0 0 0 0 19 27 173 282 117 103 107 179 320 406 375 315 305 342
41 34 41 30 30 22 7 50 32 2 1 1 0 0 0 0 0 0 0 0 0 0 0 0 0 0 0 0 0 0 6 63 167 226 206 146 127 187 172 282 316 291 337
42 49 55 42 15 7 7 6 4 7 1 0 0 0 0 0 0 0 0 0 0 0 0 0 0 0 0 0 0 1 8 4 74 134 248 210 162 169 122 218 156 125 212
0 0 0 0 0 0 0 0 0 0 0 0 0 0 0 0 0 0 0 0 0 0 0 0 0 0 0 0 0 0 0 27 14 25 164 202 207 197 220 144 97 91 59
0 0 0 0 0 0 0 0 0 0 0 0 0 0 0 0 0 0 0 0 0 0 0 0 0 0 0 0 0 0 0 0 0 0 0 19 102 192 236 169 78 4 0
0 0 0 0 0 0 0 0 0 0 0 0 0 0 0 0 0 0 0 0 0 0 0 0 0 0 0 0 0 0 0 0 0 0 4 0 15 44 216 211 110 18 0
0 0 0 0 0 0 0 0 0 0 0 0 0 0 0 0 0 0 0 0 0 0 0 0 0 0 0 0 0 0 8 0 0 0 0 11 10 1 65 290 142 10 0
0 0 0 0 0 0 0 0 0 0 0 0 0 0 0 0 0 0 0 0 0 0 0 0 0 0 0 0 0 0 1 0 0 2 0 0 28 48 3 223 165 40 0
0 0 0 0 0 0 0 0 0 0 0 0 0 0 0 0 0 0 0 0 0 0 0 0 0 0 0 0 0 0 0 0 0 0 0 0 1 29 29 3 187 167 0
0 0 0 0 0 0 0 0 0 0 0 0 0 0 0 1 13 9 10 0 0 0 0 0 0 0 0 0 0 0 0 0 0 0 0 0 0 2 17 17 35 170 0
0 0 0 0 0 0 0 0 0 0 0 0 1 1 0 15 21 21 37 39 0 0 0 0 0 0 0 0 0 0 0 0 0 0 0 0 0 1 1 3 7 23 68
0 0 0 0 0 0 0 0 0 0 1 1 0 3 7 17 23 20 21 2 1 0 0 0 0 0 0 0 0 0 0 0 19 3 0 0 0 2 1 22 6 27 17
0 0 0 1 2 5 10 1 0 0 0 0 0 0 0 4 9 17 16 20 22 8 0 0 0 0 0 0 0 0 0 0 0 11 5 0 0 0 5 0 3 10 0
0 6 22 13 8 8 1 0 0 0 0 0 0 0 2 3 1 2 0 0 0 0 0 0 0 0 0 0 0 0 0 0 0 0 0 3 0 0 0 7 0 0 0
19 38 33 29 15 7 4 0 0 0 0 0 0 0 0 0 0 0 0 0 0 0 0 0 0 0 0 0 3 0 0 0 0 0 0 0 0 0 0 0 1 1 0
27 49 33 14 22 10 0 0 0 0 0 0 0 0 0 0 0 0 0 0 0 0 0 0 0 0 0 0 0 0 0 0 0 0 0 0 0 0 7 0 0 0 0
6 30 30 21 23 3 0 0 0 0 0 0 0 0 0 0 0 0 0 0 0 0 0 0 0 0 0 0 0 0 0 0 0 0 0 0 0 0 0 0 0 0 0
3 13 14 8 4 1 0 0 0 0 0 0 0 0 0 0 0 0 0 0 0 0 0 0 0 0 0 0 0 0 0 0 0 0 0 0 0 0 0 0 0 0 0
0 0 0 0 0 0 0 0 0 0 0 0 0 0 0 0 0 0 0 0 0 0 0 0 0 0 0 0 0 0 0 0 0 0 0 0 0 0 0 0 0 0 0
0 0 0 0 0 0 0 0 0 0 0 0 0 0 0 0 0 0 0 0 0 0 0 0 0 0 0 0 0 0 0 0 0 0 0 0 0 0 0 0 0 1 0
0 0 0 0 0 0 0 0 0 0 0 0 0 0 0 0 0 0 0 0 0 0 0 0 0 0 0 0 0 0 0 0 0 0 0 0 0 0 0 0 0 0 0
0 0 0 0 0 0 0 0 0 0 0 0 0 0 0 0 0 0 0 0 0 0 0 0 0 0 0 0 0 0 0 0 0 0 0 0 0 0 0 0 0 0 0
0 0 0 0 0 0 0 0 0 0 0 0 0 0 0 0 0 0 0 0 0 0 0 0 0 0 0 0 0 0 0 0 0 0 0 0 0 0 0 0 0 0 0

GFSMA_con_mucape_048.txt.gz
CAPE
1292 1028 967 674 328 167 101 83 28 0 0 0 0 0 0 0 0 0 0 0 0 0 0 0 0 0 0 0 0 0 0 0 39 102 120 135 272 440 481 374 280 362 371
551 356 241 202 128 18 0 0 0 0 0 0 0 0 0 0 0 0 0 0 0 0 0 0 0 0 0 0 0 1 1 0 0 8 293 208 132 193 325 344 241 188 323
339 212 161 93 49 8 3 3 0 0 2 0 0 0 0 0 0 0 0 0 0 0 0 0 0 0 0 0 0 0 1 2 2 0 8 322 249 178 206 285 270 246 257
41 69 37 46 49 36 0 0 0 0 0 0 0 0 0 0 0 0 0 0 0 0 0 0 0 0 0 0 0 0 1 2 7 13 6 33 185 191 215 269 379 317 286
25 0 0 0 0 0 0 0 0 0 0 0 0 0 0 0 0 0 0 0 0 0 0 0 0 0 0 0 0 0 0 2 15 12 14 15 11 17 113 194 278 277 246
0 0 0 0 0 0 0 0 0 0 0 0 0 0 0 0 0 0 0 0 0 0 0 0 0 0 0 0 0 0 2 8 8 9 12 18 13 8 0 45 201 249 190
0 0 0 0 0 0 0 0 0 0 0 0 0 0 0 0 28 15 7 0 0 0 0 0 0 0 0 0 0 0 8 12 9 6 5 6 10 8 0 4 37 194 237
0 0 0 0 0 0 0 0 0 0 0 0 1 0 0 0 0 26 27 20 12 3 1 3 5 2 0 1 0 0 0 0 0 0 7 7 6 4 0 10 2 33 194
0 0 0 0 0 0 0 0 0 0 0 0 4 6 0 0 3 0 15 25 25 16 15 15 14 16 12 12 6 9 0 0 0 0 0 0 6 5 0 0 2 11 55
0 0 0 0 0 0 0 0 0 0 1 0 0 7 35 40 0 0 11 6 18 15 16 19 26 34 39 36 16 22 0 0 0 1 4 6 4 7 9 10 5 33 40
0 0 0 0 0 0 0 2 3 12 11 23 31 41 59 50 60 41 33 34 34 52 53 46 38 54 58 48 58 40 0 0 0 0 1 3 4 1 7 12 18 0 28
0 0 0 0 5 24 32 41 45 46 62 69 76 68 46 35 37 38 125 88 75 33 47 37 52 32 55 58 43 13 10 4 0 0 0 4 3 1 0 4 13 18 15
0 4 18 41 53 69 81 67 82 66 65 73 74 68 75 70 51 48 58 56 56 23 17 52 76 77 80 76 59 72 22 1 6 0 0 0 1 0 0 0 2 17 37
7 9 28 58 78 75 68 65 78 78 81 97 90 85 75 70 50 56 68 74 68 32 27 42 32 44 52 51 58 38 23 26 62 4 0 0 0 0 0 0 0 5 27
13 25 47 72 87 68 75 78 85 94 85 101 96 102 67 48 34 50 45 55 61 0 0 26 28 27 31 41 44 36 31 16 21 22 0 0 0 0 0 0 0 0 8
1 7 18 31 50 61 59 78 76 77 90 104 70 24 22 22 29 36 37 44 47 43 0 26 18 21 23 21 36 42 42 57 12 11 8 0 0 0 0 6 0 0 0
0 0 0 7 23 44 57 79 95 68 55 51 23 7 0 0 0 10 46 42 35 35 35 28 23 22 27 38 43 45 55 52 51 73 37 0 0 0 0 0 1 0 0
0 0 0 6 22 55 71 56 40 46 15 2 0 0 0 0 0 39 37 38 45 44 45 0 28 34 34 36 37 36 40 36 39 35 6 0 0 0 0 0 0 3 0
0 0 8 22 34 46 46 25 12 0 0 0 0 0 0 0 26 33 37 36 36 29 25 5 0 0 0 0 0 0 0 30 34 50 48 4 4 0 0 0 0 0 8
5 10 18 22 4 3 3 1 0 0 0 0 0 0 15 18 20 11 0 0 0 0 0 0 0 0 0 0 0 0 0 44 43 32 39 17 0 4 0 0 0 0 0
14 16 14 14 13 11 3 12 17 5 0 0 20 3 0 0 0 0 0 0 0 0 0 0 0 0 0 0 0 15 0 46 53 36 31 40 38 45 45 19 0 0 0
27 34 26 22 25 0 0 0 0 0 0 3 0 0 0 0 0 0 0 0 0 0 0 0 0 0 0 0 0 26 20 0 0 60 50 46 53 64 38 53 3 1 0
22 23 19 27 19 0 0 0 0 0 0 0 0 0 0 0 0 0 0 0 0 0 0 0 0 0 0 75 54 19 0 0 5 54 50 85 59 54 40 24 1 0 0
19 11 7 0 0 0 0 0 0 0 0 0 0 0 0 0 0 0 0 0 0 0 0 0 0 0 0 0 0 50 89 68 67 52 48 0 63 58 56 56 19 0 0
19 21 0 0 0 0 0 0 0 0 0 0 0 0 0 0 0 0 0 0 0 0 0 0 0 0 0 0 14 111 31 64 95 68 45 79 51 52 48 57 70 6 0
0 0 0 0 0 0 0 0 0 0 0 0 0 0 0 0 0 0 0 0 0 0 0 0 0 0 0 35 1 78 75 91 55 67 32 88 45 44 42 39 46 55 31

GFSMA_con_mucape_051.txt.gz
CAPE
1122 1029 1171 758 439 350 235 201 152 103 49 27 6 0 1 0 1 0 0 0 0 0 0 0 0 0 0 0 1 2 3 2 2 20 67 217 189 175 165 246 320 307 332
1090 811 546 448 344 109 56 13 6 1 1 18 0 0 0 1 3 1 1 1 0 0 0 0 0 0 0 0 0 0 3 5 6 5 21 43 119 248 150 155 172 258 284
636 493 330 91 24 10 1 0 0 0 0 2 2 1 1 1 0 0 1 0 1 0 0 0 0 0 0 0 0 0 0 2 6 9 21 29 45 79 152 158 188 202 282
61 41 9 2 0 0 0 0 0 0 0 0 0 0 0 0 0 0 0 0 1 0 0 0 0 0 0 0 0 0 0 0 7 11 7 21 25 34 47 93 176 258 262
9 0 0 0 0 0 0 0 0 0 0 0 0 0 0 0 0 0 0 0 4 7 1 0 0 0 0 0 0 0 0 3 5 8 8 13 20 17 2 3 29 128 277
0 0 0 0 0 0 1 0 0 0 0 0 0 0 0 0 0 0 2 8 12 14 14 9 2 0 2 0 0 0 0 11 2 0 2 9 7 14 15 5 3 36 147
0 0 0 0 0 0 0 0 0 0 0 0 0 0 0 0 4 8 14 17 12 9 15 17 16 18 6 15 8 0 0 0 0 0 0 0 3 9 11 6 4 4 40
0 0 0 0 0 0 0 0 0 0 0 0 0 0 0 0 0 0 2 20 35 19 21 16 22 26 29 26 17 13 0 0 0 0 0 0 0 0 10 12 9 6 0
0 0 0 0 0 0 0 0 0 0 0 0 1 1 0 0 0 2 0 0 37 13 7 7 15 23 36 44 61 50 5 1 0 0 0 0 0 0 0 12 12 11 19
0 0 0 0 1 3 6 12 9 20 22 10 15 14 29 32 0 0 34 17 1 24 70 69 78 47 56 33 57 27 0 2 0 0 0 3 5 5 4 0 13 16 18
8 5 1 3 11 14 22 32 47 50 42 42 40 35 34 55 49 80 0 58 40 24 42 100 80 57 43 30 36 57 8 0 0 0 0 0 1 5 4 3 5 6 18
0 1 3 12 23 39 50 52 86 73 79 77 75 74 61 60 47 76 94 55 77 16 42 43 73 79 108 58 56 92 29 1 0 0 0 1 0 0 2 4 4 3 8
0 0 0 5 9 24 43 72 98 83 75 79 73 74 60 56 67 40 70 56 31 10 23 83 82 81 61 123 58 124 73 40 29 16 9 30 9 3 4 0 2 2 2
0 2 6 10 18 34 101 70 94 98 70 111 85 82 68 55 37 44 37 74 47 20 25 18 59 85 82 85 91 128 30 85 60 42 10 7 19 3 2 0 0 1 1
0 0 0 4 6 10 22 83 107 75 96 90 84 91 76 56 30 22 23 33 67 58 5 33 54 36 65 76 84 89 85 48 61 41 16 20 1 8 1 0 0 0 0
0 0 0 0 0 2 14 42 99 80 77 105 83 58 41 26 15 18 11 27 51 68 70 38 31 63 66 23 56 109 91 110 50 70 57 45 53 18 4 0 0 0 3
0 0 0 0 0 5 17 47 81 64 45 70 55 51 25 5 22 22 25 58 57 76 54 46 62 82 91 90 64 90 84 95 77 61 82 93 60 11 0 0 0 0 0
0 0 0 1 6 13 24 31 34 47 30 14 27 28 1 0 24 27 52 29 55 56 62 62 44 64 35 63 66 73 46 25 53 27 38 45 4 4 3 3 0 0 0
0 0 3 10 17 24 15 9 10 17 15 17 15 15 21 25 0 21 29 34 29 14 37 55 50 43 40 53 0 23 45 52 33 57 43 42 39 56 46 11 0 0 0
1 6 13 18 2 6 17 17 10 5 14 20 28 35 7 13 7 0 0 0 0 0 9 17 14 0 0 0 0 0 0 55 57 31 40 29 46 51 38 24 5 0 0
8 18 24 22 15 16 15 6 20 22 0 30 8 9 9 1 0 0 0 0 0 0 0 0 0 0 0 0 0 53 13 37 53 57 56 63 78 64 62 51 18 6 0
18 31 15 18 25 17 2 0 0 0 0 0 0 8 0 0 0 0 0 0 0 0 0 0 0 0 0 0 0 72 81 58 19 77 72 67 67 62 64 96 6 7 0
24 15 20 19 33 48 0 0 0 0 0 11 14 0 0 0 0 0 0 0 0 0 0 0 0 0 0 0 0 0 0 42 58 71 65 84 84 73 84 20 45 0 0
24 13 26 31 7 7 0 0 0 0 10 15 0 0 0 0 0 0 0 0 0 0 0 0 0 0 0 0 0 0 25 59 56 62 67 79 91 72 73 64 26 25 0
17 10 16 32 37 1 0 0 0 0 0 0 0 0 0 0 0 0 0 0 0 0 0 0 0 0 0 0 0 6 41 82 111 93 80 84 88 71 88 76 74 38 12
14 5 0 7 4 0 0 0 0 0 0 0 0 0 0 0 0 0 0 0 0 0 0 0 0 0 0 0 3 36 65 89 72 72 76 21 58 46 65 82 92 97 60

GFSMA_con_mucape_054.txt.gz
CAPE
504 475 605 543 437 211 51 36 16 18 6 0 0 0 0 0 0 0 0 0 0 0 0 0 0 0 0 0 2 4 9 10 11 14 33 80 155 179 232 142 139 183 221
793 600 499 303 193 84 22 1 0 0 0 0 0 1 3 5 4 0 0 0 0 0 0 0 0 0 0 0 0 0 4 6 9 15 14 43 55 80 143 199 159 120 167
249 130 194 57 2 0 0 0 0 0 0 0 0 0 0 0 0 0 0 0 0 0 0 0 0 0 0 0 0 0 0 2 9 14 33 26 27 20 20 27 80 197 224
0 0 0 0 0 0 0 0 0 0 0 0 0 0 0 0 0 0 0 0 0 0 0 0 0 0 0 0 0 0 2 12 13 14 14 14 21 21 14 1 0 4 66
0 0 0 0 0 0 0 0 0 0 0 0 0 0 0 0 0 0 0 0 0 1 0 9 13 1 0 0 0 1 9 25 20 18 16 0 2 15 28 19 2 0 0
1 0 0 0 0 0 0 0 0 0 0 0 0 0 0 0 0 0 0 7 25 9 7 3 1 0 30 2 1 0 0 7 14 0 0 0 0 0 0 2 6 2 0
0 0 0 0 0 0 0 0 0 0 0 0 0 0 0 0 0 0 0 0 1 4 12 5 5 0 0 40 19 34 31 5 0 1 3 0 0 0 0 17 16 7 9
0 0 0 0 0 0 0 0 0 0 0 0 0 0 0 0 0 0 0 0 4 4 3 0 1 0 4 17 36 73 22 11 3 0 0 0 9 19 6 0 11 13 12
0 0 0 0 0 0 0 0 0 0 0 0 0 0 0 0 0 0 0 0 0 0 0 0 0 0 0 1 0 12 0 0 0 0 0 0 0 4 23 27 9 0 15
0 0 0 0 0 0 0 0 0 0 0 0 0 0 0 0 0 0 0 0 0 0 0 0 0 0 0 1 9 7 2 4 2 0 0 0 0 1 5 22 31 16 1
0 0 0 0 0 0 5 17 30 17 3 7 7 1 0 0 0 7 0 0 0 0 0 0 0 0 0 0 0 15 30 3 0 0 0 0 0 5 5 15 27 33 21
0 0 0 3 1 0 0 10 13 9 4 4 9 6 5 2 0 6 1 0 0 0 0 0 0 0 0 11 72 127 90 11 6 1 2 0 1 12 23 25 30 32 31
0 0 0 0 0 0 0 8 32 51 24 14 9 14 16 10 0 0 0 0 0 0 0 0 0 0 0 5 53 108 140 127 114 79 0 0 0 2 12 10 18 22 16
0 0 0 0 0 0 0 1 20 41 57 28 20 12 17 14 17 7 0 0 0 0 0 0 0 0 0 0 7 93 31 52 63 78 51 5 0 0 3 12 9 8 6
0 0 0 0 0 0 0 1 5 42 41 13 14 11 13 14 14 12 2 0 0 0 0 0 0 0 0 0 1 0 0 11 90 33 35 55 31 26 33 40 41 9 2
0 0 0 0 0 0 0 0 1 23 17 25 23 17 1 8 4 5 0 0 0 0 0 0 0 0 0 0 1 0 0 26 11 44 51 51 82 52 84 44 44 17 0
0 0 0 0 0 0 0 7 13 8 12 2 0 2 3 5 2 1 0 0 0 6 0 0 0 0 0 0 0 0 0 0 0 13 58 51 64 61 56 67 43 10 0
0 0 0 0 0 6 1 0 0 0 0 0 0 2 3 3 0 0 0 0 0 0 0 0 0 0 0 0 0 0 0 0 0 5 37 64 61 69 59 47 45 40 2
0 0 0 0 6 0 0 0 0 2 0 4 12 10 7 1 0 0 0 0 0 0 0 0 0 0 0 0 0 0 0 0 2 33 51 66 64 53 56 63 55 44 16
0 0 0 11 3 0 0 0 1 8 2 0 0 0 0 0 0 0 0 0 0 0 0 0 0 0 0 0 0 0 0 0 0 2 12 14 42 57 59 89 72 57 37
0 1 11 3 0 0 7 2 3 0 0 0 0 0 0 0 0 0 0 0 0 0 0 0 0 0 0 0 0 0 0 0 0 0 1 0 0 0 0 23 49 73 70
0 6 7 0 0 0 16 8 4 0 0 0 0 0 0 0 0 0 0 0 0 0 0 0 0 0 0 0 0 0 0 0 0 0 7 0 0 0 0 4 30 6 0
2 14 1 0 0 4 2 12 13 1 0 0 0 0 0 0 0 0 0 0 0 0 0 0 0 0 0 0 0 0 0 0 0 0 0 0 0 0 0 0 25 58 38
1 2 0 0 2 10 0 2 3 0 0 0 0 0 0 0 0 0 0 0 0 0 0 0 0 0 0 0 0 0 0 0 0 0 0 0 0 0 0 0 8 54 64
0 0 0 0 0 12 0 1 0 0 0 0 0 0 0 0 0 0 0 0 0 0 0 0 0 0 0 0 0 0 0 0 0 0 0 7 0 0 0 0 0 20 37
0 2 0 0 0 0 0 0 0 0 0 0 0 0 0 0 0 0 0 0 0 0 0 0 0 0 0 0 0 0 0 0 0 0 2 0 2 7 4 9 0 0 0

GFSMA_con_mucape_057.txt.gz
CAPE
182 264 118 69 49 50 27 14 22 20 0 0 0 0 0 0 0 0 0 0 0 1 2 0 0 0 0 0 0 0 6 12 19 27 24 28 39 55 59 46 178 151 109
275 203 129 109 96 59 16 0 0 0 0 0 0 0 0 0 0 0 0 0 1 0 0 0 0 0 0 0 0 0 2 8 19 22 49 30 22 20 19 5 5 34 117
67 72 55 4 0 0 0 0 0 0 0 0 0 0 0 0 0 0 0 0 0 0 0 0 0 0 0 0 0 0 1 6 15 16 10 10 10 11 20 2 1 3 13
0 0 0 0 0 0 0 0 0 0 0 0 0 0 0 0 0 0 0 0 0 0 0 0 0 0 0 0 0 0 2 12 8 12 16 0 0 0 7 13 1 0 1
0 0 0 0 0 0 0 0 0 0 0 0 0 0 0 0 0 0 0 0 0 0 3 16 20 19 2 0 0 2 1 14 16 8 9 7 2 0 0 0 0 2 0
0 0 0 0 0 0 0 0 0 0 0 0 0 0 0 0 0 0 0 0 0 4 11 2 5 3 9 0 1 35 43 49 12 2 11 12 7 5 1 0 0 0 4
0 0 0 0 0 0 0 0 0 0 0 0 0 0 0 0 0 0 0 0 0 3 11 7 9 6 0 0 29 52 50 37 43 31 5 0 6 4 11 15 0 0 0
0 0 0 0 0 0 0 0 0 0 0 0 0 0 0 0 0 0 0 0 0 0 9 15 7 2 0 0 0 2 0 4 16 21 11 0 0 2 5 15 19 17 0
0 0 0 0 0 0 0 0 0 0 0 0 0 0 0 0 0 0 0 0 0 0 0 0 0 0 0 0 0 1 5 0 0 4 0 0 0 0 6 16 22 21 20
0 0 0 0 0 0 0 0 0 0 0 0 0 0 0 0 0 0 0 0 0 0 0 0 0 0 0 0 0 6 20 5 0 1 0 0 0 3 7 13 18 30 35
13 18 0 0 0 0 0 0 0 0 0 0 0 0 0 0 0 0 0 0 0 0 0 0 0 0 0 0 0 0 63 24 9 0 0 2 7 3 4 7 11 28 53
15 4 0 0 0 0 0 0 0 0 0 0 0 0 3 7 3 0 0 0 0 0 0 0 0 0 0 0 0 54 32 20 17 32 26 12 2 12 16 17 15 19 33
12 1 0 0 0 0 0 0 0 0 1 12 14 7 10 24 10 5 0 0 0 0 0 0 0 0 0 0 0 28 68 83 81 84 20 14 7 4 12 16 21 19 23
5 0 0 0 0 0 0 0 0 0 0 17 21 17 15 16 13 4 0 0 0 0 0 0 0 0 0 0 0 6 0 0 25 81 30 0 0 0 13 27 34 39 42
0 0 0 0 0 0 0 0 0 0 1 3 4 7 12 4 7 2 9 1 0 0 0 0 0 0 0 0 0 0 0 0 8 8 13 6 0 1 7 14 19 29 52
0 0 0 0 0 0 0 0 0 0 0 0 0 1 4 4 13 13 2 13 2 0 0 0 0 0 0 0 0 0 0 0 0 0 0 37 57 12 6 13 10 16 37
0 0 0 0 0 0 0 0 0 0 2 8 10 10 8 0 5 16 12 10 0 0 0 0 0 0 0 0 0 0 0 0 0 0 13 37 43 58 78 69 65 50 47
0 0 0 0 0 0 0 0 0 0 0 0 0 0 2 0 1 1 0 0 0 0 0 0 0 0 0 0 0 0 0 0 0 0 30 56 65 66 56 53 79 65 54
0 0 0 0 0 0 0 0 0 0 0 0 0 0 0 0 0 0 0 0 0 0 0 0 0 0 0 0 0 0 0 0 0 0 0 15 17 30 45 53 47 66 49
0 0 0 0 0 0 0 2 0 0 0 0 0 0 0 0 0 0 0 0 0 0 0 0 0 0 0 0 0 0 0 0 0 0 0 0 8 0 14 20 47 63 90
0 0 0 0 0 0 0 0 0 11 7 1 0 0 0 0 0 0 0 0 0 0 0 0 0 0 0 0 0 0 0 0 0 0 0 0 0 0 0 0 0 38 53
0 0 0 0 0 0 0 0 0 3 11 1 1 0 0 0 0 0 0 0 0 0 0 0 0 0 0 0 0 0 0 0 0 0 0 0 0 0 0 0 0 22 60
0 0 0 0 0 0 0 0 0 0 0 3 0 0 0 0 0 0 0 0 0 0 0 0 0 0 0 0 0 0 0 0 0 0 0 0 0 0 0 0 0 22 44
0 0 0 0 0 0 0 0 1 0 1 0 0 0 0 0 0 0 0 0 0 0 0 0 0 0 0 0 0 0 0 0 0 0 0 0 0 0 0 0 0 0 33
0 0 0 0 0 0 0 0 0 0 0 0 0 0 0 0 0 0 0 0 0 0 0 0 0 0 0 0 0 0 0 0 0 0 0 0 0 0 0 0 0 0 1
0 0 0 0 0 0 0 0 0 0 0 0 0 0 0 0 0 0 0 0 0 0 0 0 0 0 0 0 0 0 0 0 0 0 0 0 0 0 0 0 0 0 0

GFSMA_con_mucape_060.txt.gz
CAPE
181 31 2 24 15 24 14 9 21 15 27 0 0 0 0 0 0 0 0 0 0 0 3 0 0 0 0 0 0 0 0 0 7 41 17 11 6 1 13 0 2 18 18
37 38 31 20 13 15 12 1 0 0 0 0 0 0 0 0 0 0 0 0 0 2 1 0 0 0 0 0 0 0 0 0 0 3 9 0 3 4 5 0 0 0 1
52 46 42 15 3 1 0 0 0 0 0 0 0 0 0 0 0 0 0 0 0 0 0 0 0 0 0 0 0 0 5 3 1 1 1 0 0 0 0 0 0 0 0
4 2 0 0 0 0 0 0 0 0 0 0 0 0 0 0 0 0 0 0 0 0 0 13 4 3 2 0 6 2 1 0 0 0 1 3 4 4 0 0 0 0 0
0 0 0 0 0 0 0 0 0 0 0 0 0 0 0 0 0 0 0 0 0 0 0 0 7 19 4 0 0 0 14 0 0 0 0 0 0 0 0 0 0 0 0
0 0 0 1 0 0 0 0 0 0 0 0 0 0 0 0 0 0 0 0 0 0 0 0 9 8 10 6 19 13 48 47 56 40 7 0 0 0 0 0 0 0 0
0 0 0 0 0 0 0 0 0 0 0 0 0 0 0 0 0 0 0 0 0 0 0 1 8 2 0 1 3 0 31 25 39 37 23 11 0 0 0 1 0 0 4
0 0 0 0 0 0 0 0 0 0 0 0 0 0 0 0 0 0 0 0 0 0 0 0 0 0 3 0 0 0 1 4 2 1 4 4 4 8 2 3 9 5 1
0 0 0 0 0 0 0 0 0 0 0 0 0 0 0 0 0 0 0 0 0 0 0 0 0 0 0 0 0 0 31 46 1 15 8 4 7 5 11 9 11 13 11
0 0 0 0 0 0 0 0 0 0 0 0 0 0 0 0 0 0 0 0 0 0 0 0 0 0 0 0 0 0 0 98 37 40 14 13 14 10 22 19 18 18 19
0 4 0 0 0 0 0 0 0 0 0 0 0 0 0 0 0 0 0 0 0 0 0 0 0 0 0 0 0 0 31 75 75 44 27 24 42 54 35 35 40 38 35
33 19 1 0 0 0 0 0 0 0 0 0 0 0 0 0 0 0 0 0 0 0 0 0 0 0 0 0 0 0 14 26 112 47 38 37 42 38 35 36 37 49 57
12 31 1 0 0 0 0 0 0 0 0 0 0 0 6 6 9 9 0 0 0 1 0 0 0 0 0 0 0 0 0 0 0 6 18 22 30 32 26 25 39 55 61
7 3 9 0 0 0 0 0 0 0 0 0 0 0 0 2 11 15 18 23 0 0 0 0 0 0 0 0 0 1 0 0 0 6 0 0 0 4 17 33 29 37 52
1 4 0 0 0 0 0 0 0 0 0 0 0 0 0 4 4 1 33 28 24 0 0 0 0 0 0 0 0 0 0 0 6 0 0 0 0 0 2 13 23 24 29
3 0 0 0 0 0 0 0 0 0 0 0 0 0 2 6 4 6 12 4 4 6 0 0 0 0 0 0 0 0 0 0 0 0 2 0 0 0 3 8 12 16 18
2 0 0 0 0 0 0 0 0 0 0 0 0 0 0 1 5 10 7 16 6 1 0 0 0 0 0 0 0 0 0 0 0 0 6 13 37 53 49 38 44 12 7
0 0 0 0 0 0 0 0 0 0 0 0 0 0 0 2 0 0 0 0 0 0 0 0 0 0 0 0 0 0 0 0 0 0 0 0 0 0 22 36 48 62 47
0 0 0 0 0 0 0 0 0 0 2 0 0 0 0 0 0 0 0 0 0 0 0 0 0 0 0 0 0 0 0 0 0 0 0 0 0 0 0 11 56 46 49
0 0 0 0 0 0 0 0 0 2 0 0 0 0 0 0 0 0 0 0 0 0 0 0 0 0 0 0 0 0 0 0 0 0 0 0 0 0 0 0 0 0 6
0 0 0 0 0 0 0 0 3 1 0 0 8 7 1 0 0 0 0 0 0 0 0 0 0 0 0 0 0 0 0 0 0 0 0 0 0 0 0 0 0 0 0
0 0 0 0 0 0 0 0 2 0 0 0 0 0 0 0 0 0 0 0 0 0 0 0 0 0 0 0 0 0 0 0 0 0 0 0 0 0 0 0 0 0 0
0 0 0 0 0 0 0 0 0 0 0 0 0 0 0 0 0 0 0 0 0 0 0 0 0 0 0 0 0 0 0 0 0 0 0 0 0 0 0 0 0 0 0
0 0 0 0 0 0 0 0 0 0 0 0 0 0 0 0 0 0 0 0 0 0 0 0 0 0 0 0 0 0 0 0 0 0 0 0 0 0 0 0 0 0 0
0 0 0 0 0 0 0 0 0 0 0 0 0 0 0 0 0 0 0 0 0 0 0 0 0 0 0 0 0 0 0 0 0 0 0 0 0 0 0 0 0 0 1
0 0 0 0 0 0 0 0 0 0 0 0 0 0 0 0 0 0 0 0 0 0 0 0 0 0 0 0 0 0 0 0 0 0 0 0 0 0 0 0 0 0 0

GFSMA_con_mucape_063.txt.gz
CAPE
244 105 81 47 19 30 27 13 7 13 12 2 0 0 0 0 0 0 0 0 0 0 0 0 0 0 0 0 0 0 0 0 0 5 1 0 1 0 0 0 0 0 0
87 19 17 25 23 25 26 8 0 0 0 0 0 0 0 0 0 0 0 0 0 0 0 0 0 0 0 0 1 10 7 0 0 0 0 0 0 0 0 0 0 0 0
35 38 35 41 27 19 0 0 0 0 0 0 0 0 0 0 0 0 0 0 0 0 13 0 0 1 0 4 11 13 18 0 0 0 0 0 0 0 0 0 0 0 0
28 22 12 8 0 0 0 0 0 0 0 0 0 0 0 0 0 0 0 0 0 0 0 0 0 0 0 0 36 30 28 1 0 0 0 0 0 0 0 0 0 0 0
0 2 0 2 1 0 0 0 0 0 0 0 0 0 0 0 0 0 0 0 0 0 0 0 0 7 2 4 3 5 19 34 17 7 0 0 0 0 0 0 0 0 0
0 0 0 0 0 0 0 0 0 0 0 0 0 0 0 0 0 0 0 0 0 0 0 0 0 0 6 2 18 39 48 37 36 38 27 10 2 0 0 0 0 0 0
0 0 0 0 0 0 0 0 0 0 0 0 0 0 0 0 0 0 0 0 0 0 0 0 0 0 0 0 0 0 8 41 53 57 51 48 28 6 0 3 0 0 1
0 0 0 0 0 0 0 0 0 0 0 0 0 0 0 0 0 0 0 0 0 0 0 0 0 0 0 0 0 0 0 15 31 39 23 25 15 23 20 8 10 4 2
0 0 0 0 0 0 0 0 0 0 0 0 0 0 0 0 0 0 0 0 0 0 0 0 0 0 0 0 0 0 0 0 10 10 32 38 28 29 33 49 35 13 12
0 0 0 0 0 0 0 0 0 0 0 0 0 0 0 0 0 0 0 0 0 0 0 0 0 0 0 0 0 0 0 23 39 83 67 49 46 49 46 49 60 56 44
0 0 0 4 0 2 2 0 0 0 0 0 0 0 0 0 0 0 0 0 0 0 0 0 0 0 0 0 0 0 24 24 115 46 32 38 51 57 57 68 52 62 84
3 12 4 10 4 5 1 0 0 0 0 0 0 0 0 0 0 0 0 0 0 0 0 0 1 0 0 0 0 0 0 0 2 14 29 54 47 53 64 60 67 62 70
2 0 10 3 0 5 0 0 0 0 0 0 0 0 0 3 9 13 0 0 0 0 0 0 2 1 0 0 0 0 0 0 0 0 0 0 7 24 43 46 54 57 64
17 15 18 6 1 0 0 0 0 0 0 0 0 0 0 0 6 17 9 0 0 0 0 0 0 0 1 0 0 0 0 0 0 0 0 0 0 0 3 15 25 27 25
0 0 12 5 2 0 0 0 0 0 0 0 0 0 0 0 0 17 18 14 19 0 0 0 0 0 0 0 0 0 0 0 0 0 0 0 0 0 1 3 8 12 18
1 9 4 4 0 0 0 0 0 0 0 0 0 0 0 0 0 0 3 5 13 4 0 0 0 0 0 0 0 0 0 0 0 0 0 0 0 0 2 5 10 16 21
3 2 8 1 0 0 0 0 0 0 0 0 0 0 0 0 0 0 0 2 3 0 0 0 0 0 0 0 0 0 0 0 0 0 0 0 0 10 20 16 17 10 6
4 5 2 0 0 0 0 0 0 0 0 0 0 0 0 0 0 0 0 0 0 0 0 0 0 0 0 0 0 0 0 0 0 0 0 0 0 0 0 0 0 0 0
8 12 4 0 0 0 0 0 0 0 0 0 0 0 0 0 0 0 0 0 0 0 0 0 0 0 0 0 0 0 0 0 0 0 0 0 0 0 0 0 0 0 0
21 3 0 0 0 0 0 0 0 0 0 0 0 0 0 4 3 2 0 0 0 0 0 0 0 0 0 0 0 0 0 0 0 0 0 0 0 0 0 0 0 0 0
0 0 0 0 0 0 0 0 0 0 0 0 0 0 0 0 8 0 0 0 0 0 0 0 0 0 0 0 0 0 0 0 0 0 0 0 0 0 0 0 0 0 0
0 0 0 0 0 0 0 0 0 0 0 0 0 0 0 0 0 0 0 0 0 0 0 0 0 0 0 0 0 0 0 0 0 0 0 0 0 0 0 0 0 0 0
0 0 0 0 0 0 0 0 0 0 0 0 0 0 0 0 0 0 0 0 0 0 0 0 0 0 0 0 0 0 0 0 0 0 0 0 0 0 0 0 0 0 0
0 0 0 0 0 0 0 0 0 0 0 0 0 0 0 0 0 0 0 0 0 0 0 0 0 0 0 0 0 0 0 0 0 0 0 0 0 0 0 0 0 0 0
0 0 0 0 0 0 0 0 0 0 0 0 0 0 0 0 0 0 0 0 0 0 0 0 0 0 0 0 0 0 0 0 0 0 0 0 0 0 0 0 0 0 0
0 0 0 0 0 0 0 0 0 0 0 0 0 0 0 0 0 0 0 0 0 0 0 0 0 0 0 0 0 0 0 0 0 0 0 0 0 0 0 0 0 0 0

GFSMA_con_mucape_069.txt.gz
CAPE
226 181 145 61 55 14 25 27 22 22 4 0 0 0 0 0 0 0 0 0 0 0 0 27 17 5 3 0 0 0 3 5 0 0 0 0 0 0 0 0 0 0 1
162 115 71 55 41 30 33 29 32 3 0 0 0 0 0 0 0 0 0 0 0 0 0 3 6 10 4 0 0 1 1 0 0 0 0 0 0 0 0 0 0 0 0
78 50 49 60 35 24 34 25 0 0 0 0 0 0 0 0 0 0 0 0 0 0 0 0 0 0 0 0 0 0 10 0 0 0 0 0 0 0 0 0 0 0 0
60 42 42 41 33 21 5 0 0 0 0 0 0 0 0 0 0 0 0 0 0 0 0 0 0 0 0 0 0 13 23 30 1 0 1 0 0 0 0 0 0 0 0
47 47 37 18 6 0 0 0 0 0 0 0 0 0 0 0 0 0 0 0 0 0 0 0 0 0 0 3 4 17 28 39 41 30 26 3 0 0 0 0 0 0 0
38 18 1 0 0 0 0 0 0 0 0 0 0 0 0 0 0 0 0 0 0 0 0 0 0 0 0 0 0 8 18 30 50 75 63 41 30 19 2 0 0 0 0
20 7 0 0 0 0 0 0 0 0 0 0 0 0 0 0 0 0 0 0 0 0 0 0 0 0 0 0 0 0 0 10 39 50 71 46 55 63 38 28 48 1 0
4 0 0 0 0 0 0 0 0 0 0 0 0 0 0 0 0 0 0 0 0 0 0 0 0 0 0 0 0 0 0 0 0 0 0 8 55 70 59 58 49 42 60
11 0 0 0 0 0 0 0 0 0 0 0 0 0 0 0 0 0 0 0 0 0 0 0 0 0 0 0 0 0 0 0 0 0 0 0 23 56 79 59 78 95 69
0 0 0 0 0 0 0 0 0 0 0 0 0 0 0 0 0 0 0 0 0 0 0 5 0 0 1 0 0 0 0 0 0 0 0 5 23 50 103 128 94 88 130
0 0 0 1 7 3 12 5 2 0 1 0 0 0 0 0 0 0 0 0 0 0 20 20 0 0 0 0 0 0 0 0 0 0 0 2 30 54 79 100 99 115 105
0 0 0 2 11 4 5 0 0 1 0 0 0 0 0 0 0 0 0 0 0 1 21 20 2 0 0 0 0 0 0 0 0 0 0 0 8 20 32 44 66 85 87
0 0 1 15 20 30 0 1 0 7 0 0 0 0 0 0 0 0 0 0 0 0 0 29 17 0 0 0 0 0 0 0 0 0 0 0 0 1 19 26 35 49 59
0 0 2 21 7 11 0 0 0 0 0 0 0 0 0 0 0 0 0 0 0 0 0 0 10 0 0 0 0 0 0 0 0 0 0 0 0 0 1 7 19 29 41
0 8 15 17 2 0 0 0 0 0 0 0 0 0 0 0 0 0 0 0 0 0 0 0 0 1 2 1 0 0 0 0 0 0 0 0 0 0 0 0 3 13 20
15 31 20 3 0 0 0 0 0 0 0 0 0 0 0 0 0 0 0 0 0 0 0 8 23 18 11 0 0 0 0 0 0 0 0 0 0 0 0 0 0 0 26
28 0 1 0 0 0 0 0 0 0 0 0 0 0 0 0 0 0 0 0 0 32 0 8 20 1 0 0 0 0 0 0 0 0 0 0 0 0 0 0 0 0 0
2 4 3 0 0 6 1 0 0 0 0 0 0 0 0 0 0 0 0 0 0 37 19 0 37 0 0 0 0 0 0 0 0 0 0 0 0 0 0 0 0 0 0
4 0 0 3 7 0 0 0 0 0 0 0 0 0 0 0 0 0 0 0 7 0 0 0 0 0 0 0 0 0 0 0 0 0 0 0 0 0 0 0 0 0 0
0 0 0 0 0 0 0 0 0 0 0 0 0 0 0 0 0 0 0 0 0 0 0 0 0 0 0 0 0 0 0 0 0 0 0 0 0 0 0 0 0 0 0
0 0 1 0 0 0 0 0 0 0 0 0 0 0 0 0 0 0 0 0 0 0 0 0 0 0 0 0 0 0 0 0 0 0 0 0 0 0 0 0 0 0 0
0 0 0 0 0 0 0 0 0 0 0 0 0 0 0 0 0 0 0 0 0 0 0 0 0 0 0 0 0 0 0 0 0 0 0 0 0 0 0 0 0 0 0
0 0 0 0 0 0 0 0 0 0 0 0 0 0 0 0 0 0 0 0 0 0 0 0 0 0 0 0 0 0 0 0 0 0 0 0 0 0 0 0 0 0 0
0 0 0 0 0 0 0 0 0 0 0 0 0 0 0 0 0 0 0 0 0 0 0 0 0 0 0 0 0 0 0 0 0 0 0 0 0 0 0 0 0 0 0
0 0 0 0 0 0 0 0 0 0 0 0 0 0 0 0 0 0 0 0 0 0 0 0 0 0 0 0 0 0 0 0 0 0 0 0 0 0 0 0 0 0 0
0 0 0 0 0 0 0 0 0 0 0 0 0 0 0 0 0 0 0 0 0 0 0 0 0 0 0 0 0 0 0 0 0 0 0 0 0 0 0 0 0 0 0

GFSMA_con_mucape_075.txt.gz
CAPE
617 537 483 88 29 3 7 5 9 0 0 0 0 0 0 0 0 0 0 0 0 0 0 17 9 2 0 0 0 0 0 0 0 0 0 0 0 0 0 0 0 0 0
625 614 229 57 28 20 9 0 2 0 0 0 0 0 0 0 0 0 0 0 0 0 0 0 1 2 0 0 0 0 0 1 0 0 0 0 0 0 0 0 0 0 0
492 412 194 165 38 2 0 4 1 0 0 0 0 0 0 0 0 0 0 0 0 0 0 0 0 0 0 0 0 0 0 0 0 0 0 0 0 0 0 0 0 0 0
457 452 273 106 0 3 0 0 0 0 0 0 0 0 0 0 0 0 0 0 0 0 0 0 0 0 0 0 0 0 5 9 19 23 13 0 1 2 0 0 0 0 0
430 328 197 5 0 0 0 0 0 0 0 0 0 0 0 0 0 0 0 0 0 0 0 0 0 0 0 0 0 0 0 0 1 20 38 50 44 54 51 12 0 0 0
361 268 98 0 0 0 0 0 0 0 0 0 0 0 0 0 0 0 0 0 0 0 0 0 0 0 0 0 0 0 0 0 1 6 17 24 17 9 6 20 60 44 6
310 231 45 3 0 0 0 0 0 0 0 0 0 0 0 0 0 0 0 0 0 0 0 0 0 0 0 0 0 0 0 0 0 1 3 0 0 2 0 0 31 56 47
45 175 37 0 0 0 0 0 0 0 0 0 0 0 0 0 0 0 0 0 0 0 0 0 0 0 0 0 0 0 0 0 0 0 0 0 0 0 2 4 7 51 69
84 57 0 0 0 0 0 0 0 0 2 0 0 0 0 0 0 0 0 0 0 0 0 0 1 3 2 1 1 5 0 0 0 0 0 0 0 0 2 9 26 43 88
24 44 3 0 0 0 0 0 0 0 0 0 2 0 0 0 0 0 0 0 0 0 12 1 1 3 4 1 1 0 0 0 0 0 0 0 0 2 17 34 46 53 64
49 15 2 0 0 0 0 0 0 5 3 0 0 0 0 0 0 0 0 0 0 0 0 0 1 0 4 1 3 0 0 0 0 0 0 0 0 0 11 31 61 95 117
0 23 1 3 2 0 0 0 3 1 1 2 0 0 0 0 0 0 0 0 0 0 0 0 0 4 4 7 1 0 0 0 0 0 0 0 0 0 0 2 26 67 112
35 58 1 1 2 0 0 1 2 14 8 13 0 0 0 0 0 0 0 0 0 0 0 0 0 4 1 6 5 0 0 0 0 0 0 0 0 0 0 0 0 5 13
85 47 0 6 1 0 0 1 1 2 16 19 0 0 0 0 0 0 0 0 0 0 0 0 1 9 15 20 1 0 0 9 0 0 0 0 0 0 0 0 0 5 10
55 2 0 9 1 1 8 12 1 1 12 0 0 0 0 0 0 0 0 0 0 0 0 0 1 7 23 23 8 2 18 52 1 0 0 0 0 0 0 0 0 0 11
62 5 0 0 13 20 1 0 0 0 0 0 0 0 0 0 0 0 0 4 11 5 0 1 4 32 39 9 26 3 15 33 6 3 0 0 0 0 0 0 0 0 0
90 11 13 29 21 7 0 0 0 0 0 0 0 0 0 0 0 0 11 13 16 30 43 27 29 38 45 64 66 48 44 29 67 30 12 0 0 0 0 0 0 0 0
52 75 9 0 0 2 0 0 0 0 0 0 0 0 0 0 13 13 23 24 29 44 62 60 39 47 76 61 70 74 7 13 52 14 10 0 0 0 0 0 0 0 0
19 2 7 0 2 0 0 0 0 0 0 0 0 0 1 3 10 21 30 33 45 21 54 69 67 78 66 47 77 47 46 76 34 30 18 0 0 0 0 0 0 0 0
4 0 0 0 1 0 0 0 0 0 0 0 0 0 0 0 3 14 19 44 42 67 64 69 70 47 25 34 78 75 75 78 42 13 2 3 6 9 3 0 0 0 0
16 0 0 0 2 0 0 0 0 0 0 0 0 0 0 0 0 1 5 15 30 27 49 62 52 43 54 62 80 82 69 70 60 18 16 50 39 18 19 22 22 26 0
57 19 2 0 0 0 0 0 0 0 0 0 0 0 0 0 0 1 3 4 9 23 55 51 63 55 64 109 96 64 54 40 41 47 40 57 30 0 27 27 5 0 0
0 0 0 0 0 0 0 0 0 0 0 0 0 0 0 0 4 22 33 12 9 14 17 53 57 44 82 87 41 20 20 31 0 24 40 32 33 53 42 12 32 3 0
0 0 0 0 0 0 0 0 0 0 0 0 0 1 15 26 37 31 58 68 69 58 43 9 6 22 57 49 32 27 21 0 0 0 21 0 56 57 58 44 21 41 29
3 0 0 0 0 0 0 0 0 0 0 0 0 0 5 14 3 1 16 62 50 52 27 1 0 2 7 1 0 2 2 0 0 0 39 44 57 0 0 0 49 1 0
0 0 0 0 0 0 0 0 0 0 0 0 0 0 0 0 0 0 0 47 51 6 6 13 39 0 0 0 0 0 0 0 0 0 0 5 0 0 0 0 0 38 53

GFSMA_con_mucape_078.txt.gz
CAPE
207 195 155 49 3 0 0 2 0 2 0 0 0 0 0 0 0 0 0 0 0 0 9 6 6 3 0 0 0 0 0 0 0 0 0 0 0 0 0 0 0 0 0
335 355 267 158 0 0 10 0 0 0 0 0 0 0 0 0 0 0 0 0 0 0 0 0 0 0 0 0 0 0 0 0 0 0 0 0 0 0 0 0 0 0 0
372 366 176 75 0 31 4 0 0 0 0 0 0 0 0 0 0 0 0 0 0 0 0 0 0 0 0 0 0 0 0 0 0 0 0 0 0 0 0 0 0 0 0
347 300 195 91 50 14 0 0 0 0 0 0 0 0 0 0 0 0 0 0 0 0 0 0 0 0 0 0 0 0 0 0 0 1 14 27 47 36 48 37 11 1 0
417 346 244 128 27 0 0 0 0 0 0 0 0 0 0 0 0 0 0 0 0 0 0 0 0 0 0 0 0 0 0 0 0 0 1 24 25 20 13 9 25 57 51
448 219 156 41 0 0 0 0 0 0 0 0 0 0 0 0 0 0 0 0 0 0 0 0 0 0 0 0 0 0 0 0 0 0 3 3 5 6 6 11 8 18 46
403 332 96 34 0 0 0 0 0 0 0 0 0 0 0 0 0 0 0 0 0 0 0 0 0 0 0 0 0 0 0 0 0 0 0 1 1 3 4 4 2 4 33
350 247 68 16 0 0 0 0 0 0 0 0 0 0 0 0 0 0 0 0 0 0 0 0 0 0 0 0 0 0 0 0 0 0 0 0 0 0 2 6 14 17 19
143 103 120 19 0 0 0 0 0 0 0 0 0 0 0 0 0 0 0 0 0 0 0 0 0 0 0 0 0 0 0 0 0 0 0 0 1 6 11 15 23 38 53
34 76 53 8 0 0 0 0 0 0 0 0 1 10 3 3 0 0 0 0 0 0 0 0 0 0 0 0 0 0 0 0 0 0 0 0 0 3 13 22 26 32 44
20 62 3 26 15 0 2 0 0 0 0 0 0 6 1 0 0 0 0 0 0 0 0 0 0 0 0 0 0 0 0 0 0 0 0 0 0 0 9 14 20 29 47
39 48 43 0 3 6 4 1 0 0 0 8 8 19 11 6 3 0 0 0 0 0 0 0 0 0 0 0 0 0 0 0 0 0 0 0 0 0 0 4 9 14 20
59 50 23 5 53 6 2 1 0 0 2 2 2 3 1 1 0 0 0 0 0 0 0 0 0 0 0 0 0 0 0 0 0 0 0 0 0 0 0 0 1 5 10
66 82 75 47 34 4 1 6 4 0 0 1 1 3 6 0 0 0 0 0 0 0 0 0 0 0 0 0 0 0 0 0 0 0 0 0 0 0 0 0 0 6 10
174 99 71 95 36 2 3 13 3 12 13 0 0 0 0 0 0 0 0 0 0 0 0 0 0 0 0 0 0 0 0 0 0 0 0 0 0 0 0 0 0 0 7
180 110 74 37 40 9 13 5 6 10 0 0 0 0 0 0 0 0 0 0 0 0 0 0 0 0 0 0 0 1 6 7 0 2 0 0 0 0 0 0 0 0 0
177 111 34 9 8 0 1 1 0 4 0 0 0 0 0 0 0 0 0 0 1 1 0 0 0 0 0 0 0 5 15 10 8 15 23 14 2 0 0 0 0 0 0
136 45 1 0 3 0 0 0 0 1 7 0 0 0 0 0 0 5 9 5 1 0 7 0 0 4 8 22 29 17 4 4 8 13 4 3 0 0 0 0 0 0 0
180 77 16 7 10 6 0 1 1 0 0 0 0 0 0 0 0 0 0 1 3 5 14 12 2 1 2 14 12 6 9 16 9 11 25 10 2 7 7 0 0 0 0
154 56 7 8 1 15 12 0 0 0 0 0 0 0 0 0 0 0 0 0 0 1 2 1 1 2 5 2 0 0 0 0 0 0 0 0 0 7 55 34 17 7 11
65 34 13 11 12 0 0 0 0 0 0 0 0 0 0 0 0 0 0 0 0 0 0 0 0 1 0 0 0 0 9 1 0 0 0 0 0 0 0 18 29 54 40
72 55 38 31 16 0 0 0 0 0 0 0 0 0 0 0 0 0 0 0 0 0 0 0 13 12 7 3 0 4 12 8 0 0 0 0 0 0 0 0 4 5 0
46 45 41 0 0 0 0 0 0 0 0 0 0 0 0 0 0 0 0 1 0 0 5 17 17 8 8 6 0 0 0 0 0 0 0 0 0 0 0 0 26 25 19
14 25 0 0 0 0 0 0 0 0 0 0 0 0 0 0 0 0 0 0 0 0 0 25 16 7 13 8 7 0 0 0 0 0 0 0 0 0 0 0 22 31 20
4 4 0 0 0 0 0 0 0 0 0 0 0 0 0 0 0 0 0 0 0 0 0 0 12 17 3 2 0 0 0 0 0 0 0 0 0 0 0 0 0 19 0
3 5 2 0 0 0 0 0 0 0 0 0 0 0 0 0 0 0 0 0 0 0 0 0 0 1 0 0 1 0 0 0 0 0 0 0 0 0 0 0 0 0 0

GFSMA_con_mucape_081.txt.gz
CAPE
76 66 9 8 2 3 2 0 0 0 0 0 0 0 0 0 0 0 0 0 0 12 7 7 8 8 3 0 0 0 0 0 0 0 0 0 0 0 0 0 0 0 0
140 125 32 20 5 13 2 4 0 0 0 0 0 0 0 0 0 0 0 0 0 0 0 0 0 0 0 0 0 0 0 0 0 0 0 0 0 0 0 0 0 0 0
210 212 88 78 52 17 17 24 0 0 0 0 0 0 0 0 0 0 0 0 0 0 0 0 0 0 0 0 0 0 0 2 6 10 16 18 43 45 25 24 17 0 0
204 232 161 60 31 2 29 0 0 0 0 0 0 0 0 0 0 0 0 0 0 0 0 0 0 0 0 0 0 0 0 0 0 0 2 12 32 29 21 16 25 42 55
226 175 114 61 67 24 1 0 0 0 0 0 0 0 0 0 0 0 0 0 0 0 0 0 0 0 0 0 0 0 0 0 0 0 2 5 10 12 12 15 12 15 24
106 162 90 89 43 11 0 0 0 0 0 0 0 0 0 0 0 0 0 0 0 0 0 0 0 0 0 0 0 0 0 0 0 0 0 1 3 3 2 3 6 11 18
99 110 171 61 26 0 0 0 0 0 0 0 0 0 0 0 0 0 0 0 0 0 0 0 0 0 0 0 0 0 0 0 0 0 0 0 0 0 3 6 9 10 11
145 133 89 63 17 0 0 0 0 0 0 0 0 0 0 0 0 0 0 0 0 0 0 0 0 0 0 0 0 0 0 0 0 0 0 0 0 0 4 10 17 24 31
216 181 101 49 2 0 0 0 0 0 0 0 0 0 0 0 0 0 0 0 0 0 0 0 0 0 0 0 0 0 0 0 0 0 0 0 0 0 0 10 20 25 28
168 126 82 56 16 0 8 0 0 0 0 0 0 0 0 0 0 0 0 0 0 0 0 0 0 0 0 0 0 0 0 0 0 0 0 0 0 0 0 3 15 24 29
172 99 42 22 20 3 0 0 0 0 0 0 0 0 0 4 0 0 0 0 0 0 0 0 0 0 0 0 0 0 0 0 0 0 0 0 0 0 0 0 3 13 17
137 34 30 22 21 3 0 1 0 0 3 0 0 0 0 4 0 0 0 0 0 0 0 0 0 0 0 0 0 0 0 0 0 0 0 0 0 0 0 0 0 2 5
155 63 47 66 67 33 5 3 13 1 6 3 0 1 0 0 0 0 0 0 0 0 0 0 0 0 0 0 0 0 0 0 0 0 0 0 0 0 0 0 0 0 0
204 101 42 89 74 65 90 47 39 0 11 24 7 7 3 3 0 0 0 0 0 0 0 0 0 0 0 0 0 0 0 0 0 0 0 0 0 0 0 0 0 0 0
199 117 51 91 92 81 33 18 0 0 18 13 13 8 2 0 0 0 0 0 0 0 0 0 0 0 0 0 0 0 0 0 0 0 0 0 0 0 0 0 0 0 0
176 111 90 76 110 53 51 4 2 0 0 2 1 24 8 4 0 0 0 0 0 0 0 0 0 0 0 0 0 0 0 0 3 1 2 5 9 10 8 0 0 0 0
161 129 127 86 42 13 1 1 0 0 0 0 0 1 4 0 0 0 0 0 0 0 0 0 0 0 0 4 4 4 10 13 18 21 24 22 15 13 46 6 0 0 0
207 171 140 71 18 11 23 4 8 0 0 0 0 0 0 0 0 0 0 0 0 0 2 0 0 3 6 3 6 7 6 22 26 16 12 53 50 54 3 0 0 0 0
330 436 233 111 64 20 20 4 1 12 9 0 0 0 0 0 0 0 0 0 0 0 0 0 0 1 6 10 8 5 1 7 5 4 7 10 32 51 5 0 0 0 6
326 281 109 63 81 11 19 4 16 10 1 0 0 0 0 0 0 0 0 0 0 0 0 0 0 0 0 0 0 0 0 0 0 0 0 3 0 11 32 34 35 30 21
138 126 1 55 33 27 13 1 3 0 0 0 0 0 0 0 0 0 0 0 0 0 0 0 0 0 0 0 0 10 19 0 0 0 0 0 0 0 0 0 0 62 63
52 51 66 53 32 21 24 0 0 0 0 0 0 0 0 0 0 0 0 0 0 0 0 0 0 0 0 0 10 28 21 0 0 0 0 0 0 0 0 0 0 3 37
80 95 31 20 12 2 2 0 0 0 0 0 0 0 0 0 0 0 0 0 0 0 0 0 0 0 0 0 17 16 18 8 0 0 0 0 0 0 0 0 0 19 30
40 33 48 49 0 2 0 0 0 0 0 0 0 0 0 0 0 0 0 0 0 0 0 0 0 0 0 0 8 13 14 13 0 0 0 0 0 0 0 0 0 18 44
38 35 19 0 0 0 1 0 0 0 0 0 0 0 0 0 0 0 0 0 0 0 0 0 0 0 0 0 25 19 8 3 0 0 0 0 0 0 0 0 0 0 5
17 14 1 0 2 2 0 0 0 0 0 0 0 0 0 0 0 0 0 0 0 0 0 0 0 0 0 0 0 5 1 6 0 0 0 0 0 0 0 0 0 0 0

GFSMA_con_mucape_084.txt.gz
CAPE
79 112 86 13 0 6 1 10 0 0 0 0 0 0 0 0 0 0 0 0 20 21 5 5 9 9 1 0 0 0 0 0 0 0 0 0 0 0 0 0 0 0 0
8 8 2 0 7 11 11 14 0 0 0 0 0 0 0 0 0 0 0 0 0 0 0 1 5 2 0 0 0 0 1 3 5 15 5 3 22 23 7 11 6 4 7
29 5 0 7 14 7 19 8 0 0 0 0 0 0 0 0 0 0 0 0 0 0 0 0 0 0 0 0 0 0 0 0 0 0 7 22 33 23 22 10 12 27 49
85 13 10 23 5 5 17 25 1 0 0 0 0 0 0 0 0 0 0 0 0 0 0 0 0 0 0 0 0 0 0 0 0 0 2 3 16 20 19 12 13 11 12
138 72 43 41 50 11 8 13 0 0 0 0 0 0 0 0 0 0 0 0 0 0 0 0 0 0 0 0 0 0 0 0 0 0 0 1 1 1 0 4 7 10 14
123 138 92 54 46 36 14 0 0 0 0 0 0 0 0 0 0 0 0 0 0 0 0 0 0 0 0 0 0 0 0 0 0 0 0 0 0 0 0 0 3 5 9
75 144 107 69 51 43 9 0 0 0 0 0 0 0 0 0 0 0 0 0 0 0 0 0 0 0 0 0 0 0 0 0 0 0 0 0 0 0 0 0 0 2 8
17 49 89 70 46 27 0 0 0 0 0 0 0 0 0 0 0 0 0 0 0 0 0 0 0 0 0 0 0 0 0 0 0 0 0 0 0 0 0 0 0 0 5
9 48 65 118 36 10 14 1 0 0 0 0 0 0 0 0 0 0 0 0 0 0 0 0 0 0 0 0 0 1 1 0 0 0 0 0 0 0 0 0 0 0 0
43 50 59 81 66 23 50 6 4 0 0 0 0 0 0 0 0 0 0 0 0 0 0 0 0 0 0 0 0 0 0 0 0 0 0 0 0 0 0 0 0 0 0
32 55 70 108 76 45 45 6 20 1 0 0 0 0 0 0 0 0 0 0 0 0 0 0 0 0 0 0 0 0 0 0 0 0 0 0 0 0 0 0 0 0 0
26 73 104 123 113 81 50 48 12 9 3 4 9 7 0 0 0 0 0 0 0 0 0 0 0 0 0 0 0 0 0 0 0 0 0 0 0 0 0 0 0 0 0
80 127 126 111 118 75 64 76 95 63 46 29 5 0 13 10 5 8 0 0 0 0 0 0 0 0 0 0 0 0 0 0 0 0 0 0 0 0 1 0 0 1 0
75 145 110 67 89 86 75 90 80 24 19 0 1 0 0 0 1 2 3 1 0 1 0 0 0 0 0 0 0 0 0 0 0 0 0 3 7 6 3 0 0 2 1
60 120 163 90 68 100 132 136 128 28 5 1 1 0 0 0 0 2 11 0 7 0 0 0 0 0 0 0 0 0 0 0 0 0 0 1 23 8 6 2 4 4 0
149 128 147 128 104 116 159 135 64 15 4 2 0 0 0 2 3 6 0 0 0 0 0 0 0 0 0 0 0 0 0 0 0 0 3 7 24 52 64 40 52 39 3
167 176 161 129 67 71 107 47 28 24 9 9 10 0 0 1 0 1 0 0 0 0 0 0 0 0 0 0 0 0 0 1 3 4 8 9 13 28 12 61 86 110 7
273 181 140 79 40 45 51 46 18 29 10 7 13 4 4 0 0 0 0 0 0 0 0 0 0 0 0 0 0 0 0 3 0 1 17 33 51 43 29 43 52 70 6
22 179 78 55 156 45 28 7 16 15 13 2 21 16 0 0 0 0 0 0 0 0 0 0 0 0 0 0 0 0 0 0 0 0 3 2 19 35 58 32 43 9 2
24 130 125 134 180 30 29 13 5 21 11 0 10 0 0 0 0 0 0 0 0 0 0 0 0 0 0 0 0 0 0 0 0 4 5 5 0 0 30 53 44 32 41
154 162 192 140 70 98 31 46 17 6 7 7 0 0 0 0 0 0 0 0 0 0 0 0 0 0 0 0 0 0 0 0 0 9 4 0 0 0 0 1 1 46 53
168 98 363 181 48 0 22 8 3 2 7 0 0 0 0 0 0 0 0 0 0 0 0 0 0 0 0 0 0 0 0 0 0 0 0 0 0 0 0 0 0 0 8
274 263 69 83 28 42 18 10 2 0 0 0 0 0 0 0 0 0 0 0 0 0 0 0 0 0 0 0 0 0 0 0 0 0 4 0 0 0 0 0 0 0 0
69 138 63 42 23 24 11 11 0 0 1 0 0 0 0 0 0 0 0 0 0 0 0 0 0 0 0 0 0 0 0 0 0 0 13 3 0 0 0 0 0 0 0
10 8 31 19 34 7 11 1 0 1 0 0 0 0 0 0 0 0 0 0 0 0 0 0 0 0 0 0 0 0 0 0 0 0 0 2 0 0 0 0 0 0 0
8 21 21 31 22 7 0 0 0 0 0 0 0 0 0 0 0 0 0 0 0 0 0 0 0 0 0 0 0 0 0 0 0 0 0 0 0 0 0 0 0 0 0

GFSMA_con_mucape_087.txt.gz
CAPE
53 25 7 0 0 0 0 0 0 0 0 0 0 0 0 0 0 0 0 0 15 9 7 14 11 3 0 0 0 0 3 0 2 1 0 2 6 0 1 0 0 7 8
77 74 34 0 0 0 2 8 4 0 0 0 0 0 0 0 0 0 0 0 1 13 12 5 5 3 1 0 0 0 0 1 3 8 4 9 33 26 31 16 8 9 18
93 66 41 0 0 3 6 22 9 0 0 0 0 0 0 0 0 0 0 0 0 0 0 0 0 0 0 0 0 0 0 0 0 0 0 26 25 26 14 10 8 6 7
81 51 11 0 6 12 10 25 29 0 0 0 0 0 0 0 0 0 0 0 0 0 0 0 0 0 0 0 0 0 0 0 0 0 0 0 1 2 0 0 0 2 4
16 5 1 0 12 5 12 27 28 0 0 0 0 0 0 0 0 0 0 0 0 0 0 0 0 0 0 0 0 0 0 0 0 0 0 0 0 0 0 0 0 0 0
56 2 3 6 9 0 10 30 22 0 0 0 0 0 0 0 0 0 0 0 0 0 0 0 0 0 0 0 0 0 0 0 0 0 0 0 0 0 0 0 0 0 0
136 110 21 34 48 30 33 18 2 0 0 0 0 0 0 0 0 0 0 0 0 0 0 0 0 0 0 0 0 0 0 0 0 0 0 0 0 0 0 0 0 0 0
68 93 70 63 52 59 65 52 8 0 0 0 0 0 0 0 0 0 0 0 0 0 0 0 0 0 0 0 0 0 0 0 0 0 0 0 0 0 0 0 0 0 0
13 27 87 62 75 67 71 61 22 2 2 0 0 0 0 0 0 0 0 0 0 0 0 0 0 0 0 0 0 0 14 12 0 7 0 0 0 0 0 0 0 0 0
5 2 7 44 70 84 65 69 26 5 4 0 0 0 0 0 0 0 0 0 0 0 0 0 0 0 0 0 0 0 0 0 7 21 16 9 4 0 0 0 0 0 0
0 0 2 11 49 89 120 76 8 22 19 37 24 14 1 0 0 0 0 0 0 0 0 0 0 0 0 0 0 0 0 0 0 39 28 21 24 8 0 0 0 0 0
0 0 0 16 46 86 119 101 31 35 32 42 34 32 22 18 19 5 0 0 0 0 0 8 2 0 0 0 0 0 0 0 0 0 19 16 33 33 23 12 8 8 6
0 0 2 22 42 87 118 105 49 41 45 59 59 17 30 0 7 0 0 0 0 0 0 3 0 0 0 0 0 0 0 0 0 0 2 11 25 39 40 40 41 45 49
0 4 1 7 32 106 147 87 28 43 66 16 49 3 2 1 0 0 0 0 0 8 10 6 0 0 0 0 0 0 0 0 0 0 0 12 36 56 49 44 41 55 60
1 1 2 1 26 154 161 133 76 72 72 64 40 4 3 1 0 0 0 0 0 1 7 0 0 0 0 0 0 0 0 0 0 0 0 1 24 46 57 32 30 35 23
23 8 20 18 31 120 87 104 89 126 116 73 11 2 1 4 18 0 0 0 2 1 0 0 0 0 0 0 0 0 0 0 0 0 0 0 0 8 35 50 40 46 73
120 153 50 60 80 53 46 79 61 82 108 27 31 2 7 18 11 0 0 0 6 3 0 0 0 0 0 0 0 0 0 0 0 0 0 0 0 0 15 35 34 63 93
158 173 86 56 25 37 114 73 88 108 137 40 19 32 12 14 27 14 5 0 0 0 0 0 0 0 0 0 0 0 0 0 0 0 0 0 0 4 12 18 26 42 66
247 79 64 14 44 122 152 98 42 91 74 11 3 23 17 2 0 8 0 0 0 0 0 0 0 0 0 0 0 0 0 0 0 0 0 0 2 19 32 29 35 34 41
177 0 0 0 4 106 61 36 34 81 103 75 2 4 20 6 11 1 0 0 0 0 0 0 0 0 0 0 0 0 0 0 0 0 0 0 0 4 7 16 20 25 2
182 81 6 34 26 155 70 64 45 20 129 33 12 0 2 6 0 0 0 0 0 0 0 0 0 0 0 0 0 0 0 0 0 0 0 0 0 0 2 1 0 5 15
362 219 40 52 52 222 138 93 43 30 24 1 3 15 2 0 0 0 0 0 0 0 0 0 0 0 0 0 0 0 0 0 0 0 0 0 0 0 0 0 0 0 0
420 249 78 151 266 97 144 91 3 2 18 3 18 9 0 0 0 0 0 0 0 0 0 0 0 0 0 0 0 0 0 0 0 0 0 0 0 0 0 5 0 0 0
68 97 133 158 181 96 54 64 47 7 0 5 4 0 1 1 0 0 0 0 0 0 0 0 0 0 0 0 0 0 0 0 0 0 0 0 0 0 0 1 0 0 0
27 44 23 30 59 46 12 13 4 1 4 6 0 0 0 0 0 0 0 0 0 0 0 0 0 0 0 0 0 0 0 0 0 0 0 0 0 0 0 0 0 0 0
7 12 16 21 30 27 0 8 5 0 5 0 0 0 0 0 0 0 0 0 0 0 0 0 0 0 0 0 0 0 0 0 0 0 0 0 0 0 0 0 0 0 0

GFSMA_con_mucape_090.txt.gz
CAPE
10 0 0 0 0 0 0 0 6 2 0 0 0 0 0 0 0 0 0 8 7 11 12 9 5 0 0 0 0 1 1 0 9 0 0 12 2 2 10 9 8 6 22
37 4 0 0 1 0 0 1 9 5 0 0 0 0 0 0 0 0 0 0 3 16 11 7 8 4 0 0 0 0 0 0 0 0 0 18 10 0 0 1 0 0 1
46 7 0 0 0 8 10 21 31 7 1 0 0 0 0 0 0 0 0 0 0 0 2 8 1 0 0 0 0 0 0 0 0 0 19 14 8 0 0 0 0 0 0
119 23 0 0 0 12 19 40 27 19 0 0 0 0 0 0 0 0 0 0 0 0 0 0 0 0 0 0 0 0 0 0 0 0 0 0 0 0 0 0 0 0 0
159 101 29 2 8 6 36 45 48 20 4 0 0 0 0 0 0 0 0 0 0 0 0 0 0 0 0 0 0 0 0 0 0 0 0 0 0 0 0 0 0 0 0
168 125 58 5 9 18 34 30 35 36 17 0 0 0 0 0 0 0 0 0 0 0 0 0 0 0 0 0 0 0 0 0 0 0 0 0 0 0 0 0 0 0 0
85 79 35 14 13 23 28 22 13 30 0 0 0 0 0 0 0 0 0 0 0 0 0 0 0 0 0 0 0 0 0 0 0 0 0 0 0 0 0 0 0 0 0
65 28 31 20 23 22 15 8 43 52 7 0 0 0 0 0 0 0 0 0 0 0 0 0 0 0 0 0 0 0 0 0 0 0 0 0 0 0 0 0 0 0 0
115 130 98 40 28 59 29 21 46 53 41 0 0 0 0 0 0 0 0 0 0 0 0 0 0 0 0 0 0 0 0 6 0 0 2 11 19 12 0 0 0 0 0
50 107 103 98 86 51 45 37 47 45 53 11 1 0 0 0 0 0 0 0 0 0 0 0 0 0 0 0 0 0 0 0 0 2 0 4 16 41 36 24 12 2 0
38 30 32 49 43 46 61 63 67 55 42 40 20 13 22 17 12 11 17 2 0 0 0 0 0 0 0 0 0 0 0 0 0 0 14 17 11 19 44 53 43 40 27
0 0 0 0 2 20 43 77 59 55 73 44 37 45 17 20 1 16 6 0 3 2 0 0 0 2 2 8 0 0 0 0 0 0 0 4 10 8 32 54 61 52 49
0 0 0 0 0 20 42 50 61 71 74 64 51 66 16 26 8 4 0 1 2 2 0 1 0 8 1 1 0 0 0 0 0 0 0 0 0 4 22 27 36 49 55
0 0 0 0 0 1 9 16 31 69 86 80 89 68 55 9 21 5 0 4 0 0 0 0 1 1 7 3 0 0 0 0 0 0 0 1 17 39 51 51 48 43 53
0 0 0 0 0 0 5 11 11 46 90 85 76 91 98 41 18 0 4 3 1 0 0 0 1 8 10 0 0 0 0 0 0 0 0 0 7 28 41 57 71 43 42
1 0 0 5 3 6 9 23 39 83 99 90 102 117 130 76 31 1 6 15 9 0 0 0 0 9 12 0 0 0 0 0 0 0 0 0 0 4 13 28 36 49 48
0 0 0 5 11 51 80 58 60 63 92 77 107 103 128 39 39 0 6 14 1 8 1 0 0 2 0 0 0 0 0 0 0 0 0 0 0 0 0 0 4 28 50
0 7 23 32 59 53 116 78 56 42 0 0 54 118 114 102 13 1 3 10 0 1 0 0 0 0 0 0 0 0 0 0 0 0 0 0 0 0 0 0 0 8 33
52 89 115 109 141 140 62 67 43 0 73 28 66 102 100 66 7 16 1 15 8 7 6 0 0 0 0 0 0 0 0 0 0 0 0 0 0 0 0 0 2 13 20
54 64 50 114 9 30 0 8 17 73 100 131 118 125 114 47 4 3 15 2 1 2 1 0 3 0 0 0 0 0 0 0 0 0 0 0 0 0 0 0 1 14 28
86 101 96 93 166 101 10 17 18 16 142 54 65 83 59 4 1 0 0 3 3 0 0 2 0 0 0 0 0 0 0 0 0 0 0 0 0 0 0 0 0 0 0
134 105 199 363 338 123 68 43 30 99 67 80 8 44 14 2 5 0 4 0 0 0 0 0 0 0 0 0 0 0 0 0 0 0 0 0 0 0 0 0 0 0 0
438 354 145 177 157 275 77 50 124 88 117 93 43 11 9 0 1 0 0 0 0 0 0 0 0 0 0 0 0 0 0 0 0 0 0 0 0 0 0 0 0 0 0
187 128 109 152 95 93 53 65 68 95 11 11 24 24 1 2 3 3 4 0 0 0 0 0 0 0 0 0 0 0 0 0 0 0 0 0 0 0 0 0 0 0 0
130 15 48 20 23 34 11 20 4 6 12 14 4 0 3 7 0 0 0 0 0 0 0 0 0 0 0 0 0 0 0 0 0 0 0 0 0 0 0 0 0 0 0
20 12 17 8 4 17 19 24 17 13 7 0 0 0 0 1 0 0 0 0 0 0 0 0 0 0 0 0 0 0 0 0 0 0 0 0 0 0 0 0 0 0 0

GFSMA_con_mucape_093.txt.gz
CAPE
30 0 0 0 0 0 1 10 0 0 0 0 0 0 0 0 0 4 4 7 15 12 9 7 6 6 2 0 0 5 0 9 6 0 14 8 12 13 1 0 0 0 0
10 0 0 0 0 0 3 6 0 0 0 0 0 0 0 0 0 5 3 0 2 17 15 8 5 2 0 0 0 0 0 3 2 0 17 10 2 0 0 0 0 0 0
4 0 0 0 0 0 10 8 0 6 1 0 0 0 0 0 0 1 3 3 0 6 14 17 5 3 0 0 0 0 0 0 0 6 9 4 0 0 0 0 0 0 0
5 11 0 15 2 1 11 11 14 15 17 8 0 0 0 0 0 0 1 1 2 2 1 21 11 0 0 0 0 0 0 0 0 0 0 0 0 0 0 0 0 0 0
15 0 7 0 0 2 11 20 33 34 55 27 0 0 0 0 0 0 0 0 0 0 0 0 0 0 0 0 0 0 0 0 0 0 0 0 0 0 0 0 0 0 0
45 18 10 12 2 2 14 27 41 57 71 52 0 0 0 0 0 0 0 0 0 0 0 0 0 0 0 0 0 0 0 0 0 0 0 0 0 0 0 0 0 0 0
89 63 35 44 21 21 37 31 43 51 74 75 0 0 0 0 0 0 0 0 0 0 0 0 0 0 0 0 0 0 0 0 0 0 0 0 0 0 0 0 0 0 0
97 118 92 60 59 28 30 31 23 48 56 44 0 0 0 0 0 0 0 0 0 0 0 0 0 0 0 0 0 0 0 0 0 0 0 0 0 0 0 0 0 0 0
64 68 87 90 74 53 23 20 31 31 46 43 1 0 0 0 0 0 0 0 0 0 0 0 0 0 0 0 0 0 0 0 0 0 0 0 0 0 0 2 1 4 7
53 65 39 63 74 67 30 16 26 17 44 36 38 3 2 0 2 0 1 3 4 0 0 0 0 0 0 0 0 0 0 0 0 0 0 0 9 31 48 31 31 22 15
40 50 89 74 128 83 48 49 65 33 46 50 47 28 24 11 5 1 3 0 0 5 5 6 1 0 0 4 1 0 0 2 0 0 0 0 9 2 5 19 42 49 36
0 41 35 79 114 101 44 65 68 62 57 57 59 48 26 28 23 6 0 12 6 0 0 1 3 1 0 0 6 1 1 0 0 0 0 0 0 0 0 3 17 59 70
1 0 49 74 83 73 51 57 47 56 58 59 49 39 49 31 40 34 25 11 0 1 0 10 9 1 0 0 1 1 3 10 1 0 0 0 0 0 0 0 1 13 23
7 0 6 34 38 41 35 12 2 5 17 34 44 32 40 56 66 35 52 11 1 0 0 10 3 0 0 2 0 1 9 5 0 0 0 0 0 0 14 23 13 0 9
0 0 0 0 1 1 5 8 17 4 1 2 10 8 27 61 30 55 86 43 10 0 0 8 2 0 3 7 7 4 3 7 0 0 0 0 0 0 19 38 59 48 29
0 0 0 0 0 0 0 0 1 0 0 5 24 23 14 42 48 57 72 46 0 0 0 0 4 2 0 2 4 3 9 4 0 0 0 0 0 0 2 15 27 36 44
0 0 0 0 0 2 0 0 0 11 67 59 46 42 45 30 69 93 82 23 7 4 0 0 6 4 2 0 0 3 0 0 0 0 0 0 0 0 0 0 0 2 21
0 0 0 0 3 2 3 0 0 20 45 68 57 18 3 0 0 7 72 38 26 1 0 0 9 6 8 1 0 0 0 0 0 0 0 0 0 0 0 0 0 0 0
0 0 0 0 2 11 24 62 92 79 77 1 4 20 6 0 1 8 7 26 19 11 2 0 0 0 1 2 0 0 0 0 0 0 0 0 0 0 0 0 0 0 0
0 0 0 9 9 11 27 42 2 3 52 0 38 32 8 31 37 20 15 28 56 0 0 0 3 6 0 0 0 0 0 0 0 0 0 0 0 0 0 0 0 0 0
98 69 46 47 59 40 27 100 79 173 63 1 2 15 22 51 115 65 66 45 12 0 0 0 2 0 0 0 0 0 0 0 0 0 0 0 0 0 0 0 0 0 0
98 78 80 72 219 131 141 81 84 96 147 40 7 1 76 34 97 35 33 11 40 0 2 0 0 0 0 0 0 0 0 0 0 0 0 0 0 0 0 0 0 0 0
73 133 117 113 129 124 107 72 62 54 103 67 58 54 47 15 0 0 2 0 5 0 0 0 0 0 0 0 0 0 0 0 0 0 0 0 0 0 0 0 0 0 0
128 141 121 131 152 83 56 50 84 36 47 11 33 53 68 17 0 0 7 6 1 0 0 0 0 0 0 0 0 0 0 0 0 0 0 0 0 0 0 0 0 0 0
105 79 89 63 82 15 18 8 13 2 1 3 2 13 10 9 0 0 0 0 0 0 0 0 0 0 0 0 0 0 0 0 0 0 0 0 0 0 0 0 0 0 0
71 45 31 10 10 3 3 0 0 1 0 9 6 0 0 0 0 0 2 3 0 0 0 0 0 0 0 0 0 0 0 0 0 0 0 0 0 0 0 0 0 0 0

GFSMA_con_mucape_096.txt.gz
CAPE
86 66 74 111 119 169 168 138 100 48 11 0 0 0 0 1 1 2 5 11 19 22 13 13 9 5 3 2 0 1 6 2 0 7 5 1 10 0 0 0 0 0 0
34 30 59 38 104 179 184 138 82 9 0 0 0 0 0 0 0 2 6 12 16 26 21 10 8 6 2 0 0 0 3 3 0 14 7 0 0 0 0 0 0 0 0
15 14 69 2 1 50 76 77 24 0 0 0 0 0 0 0 0 0 6 7 12 11 17 17 4 3 1 0 0 0 0 0 0 6 0 0 0 0 0 0 0 0 0
33 70 36 2 0 10 29 3 0 5 5 0 0 1 0 0 0 5 7 14 9 9 15 30 17 3 0 0 0 0 0 0 0 10 0 0 0 0 0 0 0 0 0
44 82 79 7 0 0 0 0 2 8 16 7 5 6 0 0 0 0 6 18 13 4 8 13 20 11 9 0 0 0 0 0 0 0 0 0 0 0 0 0 0 0 0
31 76 38 33 3 0 0 2 3 24 47 53 39 19 0 0 0 0 2 3 3 2 0 4 2 0 0 0 0 0 0 0 0 0 0 0 0 0 0 0 0 0 0
79 98 42 50 25 10 16 9 11 24 63 62 62 37 0 0 0 0 0 0 0 0 0 0 0 0 0 0 0 0 0 0 0 0 0 0 0 0 0 0 0 0 0
100 84 58 90 87 46 37 20 18 27 59 69 71 45 1 0 0 0 0 0 0 0 0 0 0 0 0 0 0 0 0 0 0 0 0 0 0 0 0 0 0 0 0
81 78 79 84 109 109 71 53 21 14 48 76 68 43 3 0 0 0 0 0 0 0 0 0 0 0 0 0 0 0 0 0 0 0 0 0 0 0 0 0 0 0 0
37 93 101 111 123 113 107 73 18 27 34 43 48 43 31 7 0 0 8 0 0 1 8 1 1 0 0 0 0 0 0 0 0 0 0 0 0 0 0 0 0 13 19
44 35 61 62 93 107 131 139 75 55 45 66 9 50 34 41 24 13 14 1 0 0 1 0 2 2 0 0 1 1 0 6 0 0 0 0 0 0 0 55 69 63 59
105 56 40 63 71 131 157 193 212 167 86 54 79 29 29 31 26 26 35 31 0 0 0 0 16 3 2 4 1 1 3 2 0 0 0 0 0 0 0 23 21 20 35
6 12 55 70 88 128 153 183 218 203 222 127 120 70 38 25 26 27 38 34 0 0 23 4 0 0 0 1 1 5 3 1 2 1 2 0 0 0 0 0 2 1 5
28 72 67 64 75 33 173 225 335 245 266 232 212 168 132 105 1 30 45 3 1 16 5 1 0 1 0 0 0 1 5 1 0 3 0 0 1 0 0 0 0 0 0
29 62 67 72 66 95 111 150 147 192 286 284 255 275 71 0 2 3 25 51 3 28 16 1 0 0 0 0 0 0 0 0 0 0 0 5 0 0 0 0 0 0 2
1 10 36 39 54 48 47 66 105 137 158 309 229 187 178 44 16 41 41 12 33 26 32 4 8 0 0 0 0 0 0 0 0 1 6 4 0 0 0 0 0 0 14
1 2 4 13 20 23 35 124 110 90 107 144 215 168 69 36 33 52 27 20 28 14 0 10 1 2 1 0 0 0 3 3 0 1 0 0 0 0 0 0 0 0 0
0 1 3 3 5 6 64 133 152 53 70 75 3 0 10 55 24 0 0 0 3 0 0 0 0 0 1 0 0 0 3 1 2 3 1 0 0 0 0 0 0 0 0
7 7 8 9 7 24 11 36 85 5 4 10 31 30 3 46 0 14 21 1 0 0 0 0 0 3 22 0 0 0 0 0 1 0 0 0 0 0 0 0 0 0 0
2 1 1 1 3 1 3 16 21 26 91 105 38 30 17 55 4 8 9 15 4 16 0 5 5 1 4 0 0 0 0 0 0 0 0 0 0 0 0 0 0 0 0
0 9 7 1 10 47 82 102 55 36 62 61 33 60 42 41 35 25 24 23 32 24 19 29 46 28 3 10 0 0 0 0 0 0 0 0 0 0 0 0 0 0 0
89 129 109 86 130 68 131 80 133 70 70 37 49 38 10 84 136 41 6 7 10 0 0 17 0 18 1 0 0 0 0 0 0 0 0 0 0 0 0 0 0 0 0
110 104 83 71 75 69 107 122 80 104 89 78 36 22 54 25 33 23 37 26 29 3 1 0 0 0 0 0 0 0 0 0 0 0 0 0 0 0 0 0 0 0 0
98 74 83 81 90 124 109 144 88 60 47 35 6 3 1 5 7 4 6 6 6 3 0 0 0 0 0 0 0 0 0 0 0 0 0 0 0 0 0 0 0 0 0
83 90 175 189 288 84 77 51 64 20 5 0 1 1 0 0 3 12 5 1 0 0 0 0 0 0 0 0 0 0 0 0 0 0 0 0 0 0 0 0 0 0 0
154 144 169 126 108 65 81 51 71 2 2 0 0 0 0 0 0 1 3 0 0 0 0 0 0 0 0 0 0 0 0 0 0 0 0 0 0 0 0 0 0 0 0

GFSMA_con_mucape_099.txt.gz
CAPE
551 275 312 318 204 172 34 41 0 51 43 2 0 0 1 3 2 2 5 11 23 23 12 12 9 7 6 5 4 0 4 4 7 6 0 0 0 0 0 0 0 0 0
497 108 282 367 312 267 125 98 92 62 43 1 0 0 0 0 6 9 6 7 15 24 22 13 10 7 5 4 1 1 0 0 1 9 1 0 0 0 0 0 0 0 0
255 146 211 340 220 288 431 229 160 36 2 0 0 0 0 2 13 21 7 13 6 11 18 27 25 7 2 3 1 0 0 0 0 1 9 0 0 0 0 0 0 0 0
175 139 100 111 243 232 297 202 115 5 0 0 0 0 0 4 6 13 15 26 12 11 8 21 19 8 1 0 0 0 0 0 0 0 0 0 0 0 0 0 0 0 0
46 18 35 56 240 237 224 178 70 23 0 0 0 0 0 0 0 1 14 31 23 14 7 5 6 7 1 0 0 0 0 0 0 0 0 0 0 0 0 0 0 0 0
13 29 16 84 168 184 181 74 52 10 0 0 0 0 6 0 0 0 2 10 10 13 1 15 0 1 5 4 2 0 0 0 0 0 0 0 0 0 0 0 0 0 0
19 2 18 102 176 74 35 40 61 129 19 24 9 8 21 1 0 0 0 2 2 0 4 1 7 1 0 8 5 0 0 0 0 0 0 0 0 0 0 0 0 0 0
5 5 40 129 144 82 84 115 160 61 34 9 26 32 18 0 0 0 0 0 1 0 0 0 0 1 0 0 0 0 0 0 0 0 0 0 0 0 0 0 0 0 0
16 3 66 147 161 161 149 174 177 126 54 18 39 38 2 0 0 0 0 0 0 0 0 0 0 0 0 0 0 0 0 0 0 0 0 0 0 0 0 0 0 0 0
12 66 88 172 208 193 176 157 128 156 148 35 25 39 33 21 83 37 0 2 6 6 0 0 0 0 0 0 0 0 0 0 0 3 0 0 0 0 0 0 0 0 0
7 85 121 190 252 180 223 231 175 151 125 139 31 3 0 6 35 31 32 18 0 14 22 17 4 4 0 0 0 4 3 0 2 16 0 80 84 100 89 0 0 0 0
53 82 94 179 197 217 218 209 172 117 163 223 190 150 10 18 10 28 21 22 18 6 21 22 6 1 2 1 6 24 11 0 2 6 6 3 15 86 0 0 0 0 55
2 0 50 79 114 157 169 203 166 256 227 232 228 207 218 143 121 32 24 17 10 0 1 14 2 11 10 6 9 1 6 8 0 2 6 6 11 2 8 4 0 44 52
116 2 2 0 0 66 76 174 320 174 190 303 409 437 323 241 200 66 11 1 0 0 0 0 0 0 4 3 10 12 19 5 2 1 2 8 4 1 0 0 3 0 62
84 102 80 55 61 72 104 66 107 126 193 264 513 491 364 375 342 299 189 0 2 0 0 0 0 0 1 2 9 16 1 0 3 0 0 0 0 0 0 0 0 0 0
47 55 71 60 66 68 86 115 133 178 192 251 292 363 331 310 193 163 53 4 5 0 0 0 0 0 0 2 2 2 1 1 0 0 0 0 0 0 0 0 0 0 0
64 63 68 82 93 108 132 173 174 163 163 217 297 307 303 351 311 222 29 8 0 7 4 0 4 1 0 3 2 1 0 0 3 0 0 0 0 0 2 3 1 0 0
55 40 35 20 37 52 90 117 170 136 199 253 309 354 301 130 63 18 88 30 13 30 14 13 0 0 0 3 0 0 0 0 0 1 2 3 0 1 3 1 1 0 0
32 28 32 52 44 67 96 174 207 229 245 289 342 312 114 19 29 42 64 26 16 28 29 17 4 10 5 0 0 0 0 0 0 0 0 0 0 0 0 0 0 0 0
32 26 66 69 124 26 26 69 80 183 215 181 146 38 29 48 73 68 37 35 7 34 53 38 18 24 26 3 6 0 1 0 0 0 0 0 0 0 0 0 0 0 0
16 22 16 13 24 34 25 50 36 20 33 54 83 61 55 57 60 82 37 25 14 37 31 50 27 14 2 11 8 0 0 0 0 0 0 0 0 0 0 0 0 0 0
17 18 14 25 53 0 0 14 27 32 34 78 85 81 119 96 63 74 72 42 46 48 47 73 25 13 27 1 13 0 0 0 0 0 0 0 0 0 0 0 0 0 0
55 18 28 60 65 71 55 39 41 65 159 150 80 58 106 51 43 30 4 3 0 1 1 1 5 4 8 0 1 0 0 0 0 0 0 0 0 0 0 0 0 0 0
87 77 70 75 68 139 146 144 118 109 122 104 92 80 67 16 20 6 0 0 0 0 4 4 6 4 5 0 0 0 0 0 0 0 0 0 0 0 0 0 0 0 0
78 75 65 116 236 213 220 168 140 117 80 41 71 83 56 29 0 0 0 0 0 0 3 7 1 0 0 0 0 0 0 0 0 0 0 0 0 0 0 0 0 0 0
141 115 85 160 183 196 244 163 102 64 58 114 75 61 0 0 0 0 0 0 0 0 0 0 0 0 0 0 0 0 0 0 0 0 0 0 0 0 0 0 0 0 0

GFSMA_con_mucape_102.txt.gz
CAPE
259 186 140 53 0 0 0 0 0 0 0 0 0 0 3 12 0 0 0 3 12 20 15 11 8 7 8 5 2 2 1 4 4 5 0 0 0 0 0 0 0 0 0
267 154 116 102 1 0 0 0 0 6 0 0 0 0 0 6 0 0 0 0 10 19 21 11 6 7 6 5 4 4 2 0 0 1 1 0 0 0 0 0 0 0 0
195 70 72 110 70 8 18 0 0 16 3 0 0 0 0 0 2 0 0 0 0 6 16 24 7 4 4 3 3 4 0 0 0 0 0 0 0 0 0 0 0 0 0
136 55 62 75 99 73 85 38 59 5 0 0 0 0 0 0 12 0 0 0 0 0 4 11 8 13 7 5 6 1 0 0 0 0 0 0 0 0 0 0 0 0 0
66 93 74 116 155 111 121 110 81 0 0 0 0 0 0 0 2 1 0 0 0 0 0 0 0 9 6 1 4 4 4 0 0 0 0 0 0 0 0 0 0 0 0
42 51 76 114 62 80 110 70 45 0 0 0 0 0 0 0 0 5 0 5 0 0 0 0 0 0 0 1 1 2 3 0 0 0 0 0 0 0 0 0 0 0 0
25 44 68 49 38 51 60 71 31 10 0 0 0 0 0 0 0 0 0 0 0 0 0 0 0 0 0 0 0 2 0 3 0 0 0 0 0 0 0 0 0 0 0
12 23 31 42 65 14 1 45 33 22 23 14 8 0 0 0 4 0 0 0 0 0 0 0 0 0 0 0 0 0 0 0 0 0 0 0 0 0 0 0 0 0 0
7 8 4 4 1 22 42 62 58 51 53 38 25 1 2 0 0 0 0 0 0 0 0 0 1 0 0 0 0 0 0 0 0 0 0 0 0 0 0 0 0 0 0
9 14 10 11 2 26 60 63 99 122 82 59 31 22 19 13 16 0 0 0 0 0 1 4 7 13 9 0 0 1 0 0 0 3 13 7 0 0 6 0 0 0 0
14 24 8 10 2 7 96 93 118 113 81 63 47 27 31 17 12 0 0 0 0 0 8 6 24 11 10 7 10 3 0 0 0 3 19 18 0 3 5 7 1 0 0
17 6 8 2 36 49 76 93 116 100 113 67 41 29 17 13 3 0 0 0 1 2 2 4 0 0 11 7 0 1 1 5 8 0 4 8 8 77 63 86 110 9 1
9 7 7 0 3 2 13 89 130 98 82 106 117 102 50 22 24 10 0 0 0 0 0 0 0 0 0 0 0 0 0 4 7 1 3 5 4 3 58 94 111 74 117
4 3 2 3 0 37 70 70 48 89 111 112 121 91 85 80 77 48 3 0 0 0 0 0 0 0 0 0 2 7 1 5 11 6 3 1 0 0 3 11 20 82 105
0 3 3 2 33 3 24 54 45 52 84 65 58 84 39 69 114 99 43 19 1 1 0 0 0 0 6 5 2 4 2 4 3 5 16 17 3 5 2 6 7 10 3
8 13 11 1 5 12 12 39 34 48 57 52 59 47 81 54 115 138 90 70 42 6 0 0 0 26 17 1 15 4 2 6 9 7 0 6 3 1 3 1 2 9 3
0 19 22 15 12 6 13 17 10 21 16 19 19 23 14 54 88 98 112 105 69 33 12 1 16 23 1 0 8 12 5 16 4 6 0 3 7 2 1 1 0 1 0
6 2 5 12 4 0 2 6 15 26 39 39 29 72 64 83 104 103 93 86 71 61 58 47 23 17 11 0 47 17 12 23 14 6 1 3 5 4 1 1 0 0 0
15 13 14 5 1 2 8 12 12 18 19 42 77 94 95 89 76 92 109 85 71 39 42 29 20 19 32 31 30 4 4 2 0 0 0 0 0 12 14 10 3 0 0
7 11 16 19 17 22 25 24 27 26 50 80 78 63 62 70 74 39 22 13 3 1 57 51 12 20 5 12 0 12 12 3 2 13 0 8 0 1 7 4 0 0 0
8 13 18 27 39 39 31 20 40 64 42 40 42 51 51 51 59 21 58 6 45 57 54 38 32 5 4 3 6 1 2 3 2 5 0 0 0 0 1 0 1 0 0
50 27 31 28 20 18 12 34 36 73 33 33 66 93 87 79 67 111 31 51 0 9 33 28 10 2 0 0 0 0 0 0 0 1 0 0 0 0 0 0 0 0 0
61 62 61 58 62 25 24 61 81 71 76 106 113 118 119 100 77 32 53 10 8 4 2 0 0 0 0 0 0 0 0 0 1 0 0 0 0 0 0 0 0 0 0
116 82 63 51 56 69 69 58 66 59 103 123 121 93 114 82 72 19 26 15 9 1 0 0 0 0 0 0 0 0 0 0 0 0 0 0 0 0 0 0 0 0 0
133 78 56 61 88 60 67 79 74 114 109 140 71 109 79 17 5 21 45 2 0 0 0 0 0 0 0 0 0 0 0 0 0 0 0 0 0 0 0 0 0 0 0
108 108 107 123 124 122 110 156 162 154 111 58 13 14 14 10 3 0 0 0 0 0 0 0 0 0 0 0 0 0 0 0 0 0 0 0 0 0 0 0 0 0 0

GFSMA_con_mucape_105.txt.gz
CAPE
145 50 0 0 0 0 0 0 0 0 0 0 0 0 0 0 0 0 0 4 16 19 13 10 7 5 6 6 6 6 6 9 9 8 4 5 0 0 0 0 0 0 0
110 18 0 0 0 0 0 0 0 0 0 0 0 0 0 0 0 0 0 0 6 24 21 7 5 6 7 7 6 5 5 7 4 2 1 1 0 0 0 0 0 0 0
255 26 0 0 0 0 0 0 0 0 0 0 0 0 0 0 0 0 0 0 0 3 10 11 8 5 9 9 6 9 5 3 0 0 0 0 0 0 0 0 0 0 0
161 70 14 0 0 0 0 0 0 0 0 0 0 0 0 0 0 0 0 0 0 0 0 4 12 11 7 8 7 6 5 0 0 0 0 0 0 0 0 0 0 0 0
163 81 49 7 18 0 0 0 0 0 0 0 0 0 0 0 0 0 0 0 0 0 0 0 0 1 12 7 6 5 1 4 7 0 13 0 0 0 0 0 0 0 0
87 68 74 40 39 8 38 0 19 5 0 0 0 0 0 0 0 0 0 0 0 0 0 0 0 0 0 1 0 2 1 7 11 11 5 13 0 0 0 0 0 0 0
38 28 65 50 86 65 52 36 52 26 0 0 0 0 0 0 0 0 0 0 0 0 0 0 0 0 0 0 0 0 1 1 10 5 0 0 0 0 0 0 0 0 0
9 20 21 40 62 52 84 67 64 42 3 0 0 1 0 0 0 0 0 0 0 0 0 0 0 0 0 0 0 0 0 0 0 0 0 0 0 0 0 0 0 0 0
30 3 11 34 51 42 44 40 60 66 5 0 0 8 0 0 0 0 0 0 0 0 0 0 0 0 0 0 4 2 1 0 0 0 7 0 0 0 0 0 1 0 0
22 10 10 27 38 33 25 11 34 55 20 23 12 32 9 15 4 0 0 2 0 0 0 0 0 0 0 0 0 0 0 0 0 4 3 2 1 0 1 0 0 0 0
8 11 7 25 25 10 3 6 15 58 59 50 35 26 35 43 13 3 0 10 0 0 0 0 0 0 0 0 0 0 0 0 0 0 0 2 14 7 2 0 9 3 3
6 12 5 1 15 4 3 4 39 62 52 64 79 66 29 43 37 27 4 2 1 0 0 0 0 0 0 0 0 0 0 0 0 5 4 3 11 15 18 1 12 17 8
17 15 13 14 13 7 7 6 0 23 39 63 71 50 53 29 34 33 17 10 3 1 0 0 0 0 0 0 0 1 3 19 6 8 21 6 5 8 11 8 3 2 3
13 21 12 6 17 3 20 22 3 5 52 49 45 68 59 52 42 39 22 30 7 2 0 0 0 0 0 0 1 7 3 4 6 10 0 5 1 12 1 6 6 4 1
11 26 8 6 2 8 24 0 95 3 36 46 47 49 66 51 57 41 35 26 28 7 0 0 0 0 1 0 7 6 27 9 4 15 2 1 3 5 4 14 10 2 7
6 21 1 3 11 8 0 0 0 24 0 0 19 28 37 26 16 28 26 9 12 12 5 0 0 0 0 1 5 5 21 5 7 2 2 0 1 1 2 7 9 6 2
0 4 11 20 13 11 11 12 15 10 43 26 40 50 28 27 28 11 13 11 5 16 16 1 8 16 10 27 27 10 25 5 4 6 1 0 0 0 2 0 2 9 3
0 0 4 12 2 10 11 5 0 0 13 1 2 13 15 24 16 7 0 6 22 50 65 33 44 28 14 6 15 5 8 10 0 0 0 0 4 0 0 0 10 6 4
0 0 0 2 0 0 0 0 0 1 4 12 27 44 47 45 51 57 66 68 54 69 47 54 28 6 13 0 10 1 10 2 0 0 0 0 0 0 0 0 0 0 0
0 0 0 6 12 5 0 1 8 9 18 34 45 34 42 45 40 52 42 35 70 55 35 0 0 13 5 1 10 4 1 0 0 1 2 1 5 10 17 10 7 3 2
2 4 2 9 12 10 7 11 27 35 31 35 20 16 24 43 76 80 22 7 40 22 8 20 9 4 0 2 5 0 0 0 0 0 0 1 4 9 8 6 0 0 0
9 18 19 24 15 16 17 19 25 25 37 82 79 105 99 51 36 12 9 10 67 15 9 17 1 8 0 0 0 0 0 0 0 0 0 0 0 0 0 0 0 0 0
32 27 50 42 57 35 57 76 65 78 86 93 54 45 27 24 21 30 46 0 16 2 0 0 1 2 3 0 0 0 0 0 0 0 0 0 0 0 0 0 0 0 0
106 72 91 74 64 59 59 33 34 49 24 32 42 37 35 56 35 25 0 0 0 0 0 2 0 0 0 0 0 0 0 0 0 0 0 0 0 0 0 0 0 0 0
131 108 71 52 36 43 72 59 26 54 67 61 73 72 71 36 0 0 0 8 5 2 0 0 0 0 0 0 0 0 0 0 0 0 0 0 0 0 0 0 0 0 0
152 86 88 83 126 97 86 95 92 63 101 55 102 3 0 0 0 9 7 0 0 0 0 0 0 0 0 0 0 0 0 0 0 0 0 0 0 0 0 0 0 0 0

GFSMA_con_mucape_108.txt.gz
CAPE
92 73 132 30 0 0 0 0 0 0 0 0 0 0 0 0 0 0 0 0 10 7 4 4 7 7 12 10 11 10 8 9 10 7 4 4 4 5 0 0 0 0 0
91 49 70 1 0 0 0 0 0 0 0 0 0 0 0 0 0 0 0 0 0 9 9 6 6 8 12 11 8 5 4 6 6 4 2 2 0 0 0 0 0 0 0
87 67 98 1 0 0 0 0 0 0 0 0 0 0 0 0 0 0 0 0 0 0 7 10 9 9 11 8 5 5 6 4 5 4 0 0 0 0 0 0 0 0 0
71 77 101 0 0 0 0 0 0 0 0 0 0 0 0 0 0 0 0 0 0 0 0 7 16 17 14 7 7 5 5 4 5 8 1 0 0 0 0 0 0 0 0
82 53 76 0 0 0 0 0 0 0 0 0 0 0 0 0 0 0 0 0 0 0 0 0 7 11 12 10 7 7 7 6 5 3 7 4 0 0 0 0 0 0 0
88 46 49 0 0 0 0 0 0 0 0 0 0 0 0 0 0 0 0 0 0 0 0 0 0 0 0 5 3 7 7 8 10 12 3 1 0 0 0 0 0 0 0
130 74 4 0 0 0 0 0 0 0 0 0 0 0 0 0 0 0 0 1 0 0 0 0 0 0 0 0 0 0 2 6 9 5 0 0 0 0 0 0 0 0 0
56 21 1 0 0 0 1 0 12 15 0 1 0 0 0 0 0 2 3 9 0 1 0 0 0 0 0 0 0 0 0 0 0 0 16 0 0 0 0 0 0 0 0
47 23 15 2 1 0 0 0 5 9 15 11 0 0 0 0 0 0 5 4 4 10 2 0 0 0 0 0 0 0 0 0 0 2 21 21 13 4 3 9 14 6 1
38 39 41 11 11 7 7 0 0 17 22 17 0 0 0 0 8 0 16 4 2 0 2 0 0 0 0 0 0 0 0 0 0 0 13 41 37 36 13 25 29 18 26
79 71 70 47 28 34 20 13 4 52 66 16 4 0 5 3 10 7 14 34 12 14 10 0 0 0 0 2 0 0 0 0 0 0 9 8 33 61 107 72 97 19 11
71 64 8 30 4 29 43 43 53 47 63 4 29 9 7 0 30 15 42 45 28 16 5 0 0 0 0 0 0 0 0 1 3 4 10 1 5 18 53 145 125 148 106
38 47 15 17 11 38 37 61 47 31 18 6 6 8 8 11 11 4 23 11 9 4 1 0 0 0 0 1 0 0 0 3 1 2 13 1 2 9 16 10 45 121 131
18 10 18 11 12 41 44 39 31 21 7 17 43 30 28 47 28 36 33 36 0 7 3 0 0 0 0 5 10 3 4 3 2 0 0 0 5 7 5 4 13 20 25
20 42 33 4 8 15 23 33 23 23 16 21 15 22 45 47 61 30 33 31 139 0 0 0 0 0 0 3 2 3 10 26 26 15 24 3 11 1 0 4 0 0 7
17 40 32 33 26 20 17 9 14 29 21 2 2 24 34 29 33 39 84 27 31 4 0 0 0 0 0 0 0 4 9 27 15 23 3 4 1 3 0 0 0 0 0
18 27 25 5 36 13 22 36 24 1 3 7 1 6 10 5 13 4 11 23 3 2 0 0 0 0 2 7 7 20 7 16 5 9 2 0 0 0 0 0 0 0 3
0 12 41 28 21 11 11 8 2 9 6 14 24 18 12 24 26 30 33 23 34 44 103 24 24 35 40 32 32 9 25 4 11 0 0 5 0 0 0 0 0 1 3
0 0 0 5 7 2 1 3 11 18 5 9 15 12 37 33 14 12 34 50 57 77 78 30 33 14 27 15 46 7 0 0 0 0 0 0 0 0 0 0 0 0 0
0 0 0 0 1 0 0 1 6 6 24 13 21 20 20 6 0 35 36 42 64 52 31 78 15 7 8 1 5 3 5 8 3 0 0 0 0 0 0 0 4 5 3
0 0 0 0 0 2 5 3 5 15 19 16 12 18 1 7 17 15 6 14 8 19 25 26 12 9 2 12 2 0 0 1 2 0 0 0 0 0 0 0 0 0 0
0 0 1 12 13 12 17 15 15 8 10 28 13 35 33 22 7 7 8 54 43 34 48 1 0 0 0 0 0 0 0 0 0 0 0 0 0 0 0 0 0 0 0
9 31 21 12 19 25 23 23 42 49 40 46 54 54 18 25 58 35 13 30 20 12 1 0 0 0 0 0 1 0 0 0 0 0 0 0 0 0 0 0 0 0 0
0 29 33 40 39 37 38 49 63 59 69 63 11 53 36 20 20 20 7 26 0 0 0 1 0 0 0 0 0 0 0 0 0 0 0 0 0 0 0 0 0 0 0
77 32 36 28 20 24 13 24 28 42 93 58 41 26 13 8 0 2 4 0 0 0 0 0 0 0 0 0 0 0 0 0 0 0 0 0 0 0 0 0 0 0 0
47 40 39 67 69 60 35 33 28 51 51 4 12 22 8 1 0 0 0 0 0 0 0 0 0 0 0 0 0 0 0 0 0 0 0 0 0 0 0 0 0 0 0

GFSMA_con_mucape_111.txt.gz
CAPE
47 53 131 123 96 12 0 0 0 0 0 0 0 0 0 0 0 0 0 2 14 18 11 14 13 11 8 9 7 5 5 5 5 6 7 6 6 6 0 0 0 0 0
61 121 95 87 69 0 0 0 0 0 0 0 0 0 0 0 0 0 0 0 7 11 12 10 11 6 5 6 4 3 3 4 6 8 6 4 0 0 0 0 0 0 0
50 112 52 33 93 0 0 0 0 0 0 0 0 0 0 0 0 0 0 0 0 0 6 16 11 4 2 3 3 4 4 7 7 6 4 0 0 0 0 0 0 0 0
72 100 39 49 69 0 0 0 0 0 0 0 0 0 0 0 0 0 0 0 0 0 1 8 13 11 3 2 4 5 8 7 5 5 6 5 3 0 0 0 0 0 0
25 54 36 36 78 0 0 0 0 0 0 0 0 0 0 0 0 0 0 0 0 0 0 0 3 6 8 6 9 9 11 11 6 6 8 7 6 0 0 0 0 0 0
22 22 12 44 60 0 0 0 0 0 0 0 0 0 0 0 0 0 0 0 0 0 0 0 0 0 0 11 8 9 9 9 12 11 9 0 0 0 0 0 0 0 0
52 33 57 74 14 0 0 0 0 0 0 0 0 0 0 0 0 0 0 0 0 0 0 0 0 0 0 0 8 2 4 8 14 15 3 0 0 1 1 2 0 0 0
16 10 15 37 11 0 0 0 0 0 0 0 0 0 0 0 0 4 2 3 1 1 0 0 0 0 0 0 0 0 0 1 4 9 56 30 22 8 12 20 3 0 2
25 14 7 31 12 0 0 0 0 0 0 0 0 0 0 0 0 2 8 12 23 11 15 4 0 0 0 0 0 0 7 2 7 13 102 63 59 47 34 26 45 7 6
64 39 45 38 44 0 0 0 0 0 0 0 0 0 0 0 0 0 3 13 4 8 23 31 18 3 0 6 3 0 6 2 0 1 19 51 95 119 132 111 72 78 83
71 78 58 65 46 0 0 0 0 3 0 7 7 0 0 0 1 0 0 19 1 12 2 1 5 2 0 0 7 7 17 9 0 0 5 18 41 72 96 120 134 128 110
79 86 90 74 28 0 3 0 0 15 39 39 56 43 5 5 0 6 0 21 12 24 22 10 0 0 0 0 0 0 0 0 1 4 10 11 12 23 43 91 132 139 144
70 30 56 95 59 40 4 29 0 31 60 94 94 78 25 9 0 3 8 0 20 30 21 2 10 8 0 0 0 0 0 20 8 6 5 6 1 1 3 9 57 108 125
74 33 43 37 62 43 17 4 19 22 54 73 82 43 2 0 3 7 0 0 0 1 0 8 0 1 3 6 1 8 13 30 15 13 7 7 13 11 5 12 9 1 2
10 18 36 57 45 55 42 36 42 62 56 14 46 40 4 0 17 30 28 37 10 3 0 1 0 0 1 10 17 19 17 12 23 31 18 18 16 4 1 2 0 0 0
21 0 13 49 33 35 28 51 49 53 61 43 22 0 0 2 21 11 38 43 30 52 14 1 0 0 4 1 0 3 9 12 19 21 4 6 2 0 8 14 0 0 0
11 17 18 45 15 35 22 47 31 36 39 14 6 10 13 2 10 36 24 8 0 2 14 0 3 10 18 19 18 43 26 43 10 10 0 1 3 5 4 1 1 3 0
28 27 38 23 24 32 36 52 31 44 5 1 7 0 1 0 14 9 0 15 11 13 14 0 15 18 28 25 17 2 13 23 7 17 17 2 3 3 7 1 0 0 0
0 0 5 17 15 17 40 55 3 11 25 26 1 6 0 2 1 17 39 27 21 7 4 48 51 51 22 9 20 7 0 20 4 1 8 4 7 9 13 5 0 0 0
0 0 0 4 3 6 3 9 26 13 12 4 3 3 11 11 15 20 21 21 2 7 33 49 16 35 16 1 0 1 2 0 3 2 4 3 0 1 1 0 0 0 0
2 0 0 0 2 3 20 14 20 8 6 1 5 9 13 2 11 26 24 16 25 49 81 27 29 14 17 4 1 1 0 1 0 0 0 0 0 0 0 0 0 0 0
0 0 0 0 0 0 0 0 0 0 0 0 7 7 21 14 15 0 12 7 10 11 14 21 13 0 7 0 0 0 0 0 0 0 0 0 0 0 0 0 0 0 0
0 6 7 9 0 0 0 7 6 16 17 28 30 12 10 27 6 4 0 11 12 3 2 5 0 0 0 0 0 0 0 0 0 0 0 0 0 0 0 0 0 0 0
12 0 0 2 1 7 10 24 33 35 37 17 29 10 12 5 1 18 4 13 13 5 1 1 0 0 0 0 0 0 0 0 0 0 0 0 0 0 0 0 0 0 0
0 0 10 0 11 13 35 33 38 31 52 32 15 24 20 10 12 16 1 1 14 0 0 0 0 0 0 0 0 0 0 0 0 0 0 0 0 0 0 0 0 0 0
23 8 0 7 8 30 15 28 48 34 38 37 22 13 20 0 6 12 20 1 0 0 0 0 0 0 0 0 0 0 0 0 0 0 0 0 0 0 0 0 0 0 0

GFSMA_con_mucape_114.txt.gz
CAPE
111 76 136 133 111 63 57 62 81 58 26 2 0 0 0 0 0 0 0 10 22 25 16 17 17 15 11 8 8 5 3 7 8 7 6 4 3 3 0 0 0 0 0
116 68 71 67 57 18 29 17 41 12 0 0 0 0 0 0 0 0 0 2 7 16 20 14 14 11 11 11 9 4 5 6 6 6 4 4 3 2 0 0 0 0 0
94 62 72 59 64 41 7 0 0 0 0 0 0 0 0 0 0 0 0 0 0 2 14 28 21 11 8 14 9 7 6 5 4 4 4 2 0 2 0 0 0 0 0
66 60 75 26 4 79 0 0 0 0 0 0 0 0 0 0 0 0 0 0 0 0 5 15 24 15 8 9 10 7 5 3 4 5 4 4 6 0 0 0 0 0 0
51 47 60 34 47 96 0 0 0 0 0 0 0 0 0 0 0 0 0 0 0 0 0 4 4 6 14 9 7 6 4 3 4 6 8 10 6 0 0 0 0 0 0
78 39 28 33 57 86 0 0 0 0 0 0 0 0 0 0 0 0 0 0 0 0 0 0 0 0 1 14 8 8 8 10 5 7 8 0 0 0 0 0 0 0 0
25 3 17 21 33 84 0 0 0 0 0 0 0 0 0 0 0 0 0 0 0 0 0 0 0 0 0 0 4 0 5 11 10 7 9 0 0 0 0 15 0 0 0
0 17 26 30 2 83 0 0 0 0 0 0 0 0 0 0 0 0 0 0 0 0 0 0 0 0 0 0 0 0 0 1 7 29 95 84 31 33 12 2 21 16 1
38 29 45 51 46 96 0 0 0 0 0 0 0 0 0 0 0 0 0 0 0 7 4 1 8 1 0 0 0 1 4 12 6 1 115 149 164 137 102 80 46 64 69
16 27 15 35 49 84 0 0 0 0 0 0 0 0 0 0 0 0 0 4 8 22 11 3 14 11 13 9 2 12 18 15 4 0 3 43 88 103 158 160 143 133 122
14 48 33 44 32 69 12 0 0 0 0 0 0 0 0 0 0 0 0 14 7 29 11 6 9 9 4 2 0 0 12 19 10 1 0 6 53 67 86 111 136 176 161
40 20 23 28 22 26 52 0 0 0 0 0 0 0 0 6 6 0 0 0 3 4 0 0 0 0 0 0 0 0 0 0 10 11 14 18 18 29 60 109 141 145 137
85 30 16 17 12 25 26 6 0 0 0 0 2 4 19 49 32 3 2 17 0 3 8 0 3 0 1 13 0 0 0 0 1 6 9 11 16 14 2 3 7 9 6
17 18 37 40 36 33 38 51 2 0 9 29 53 61 52 82 62 16 9 3 0 0 0 2 9 7 48 1 1 13 13 7 4 8 15 19 19 13 10 11 9 8 8
42 37 83 62 42 25 21 49 30 0 0 55 95 96 54 62 30 14 13 7 0 0 0 0 0 11 10 21 7 28 18 19 19 16 17 11 11 7 11 18 28 9 0
0 9 37 49 10 38 52 54 31 4 0 0 60 67 57 50 0 1 9 0 0 0 10 6 6 4 14 9 13 29 38 36 25 13 19 6 4 2 0 4 6 2 2
8 13 4 14 35 39 34 27 46 23 9 0 0 42 52 36 0 6 0 0 0 18 3 7 0 17 7 10 22 20 14 16 6 3 4 2 1 6 3 4 8 7 0
9 14 36 27 7 27 26 40 51 16 35 0 0 45 0 3 0 3 24 6 13 2 125 3 7 16 15 14 10 22 8 2 0 1 0 0 4 13 3 10 5 12 5
10 13 7 10 18 35 45 39 43 21 36 53 56 20 29 11 0 3 2 1 3 3 14 15 18 14 5 0 2 2 10 7 0 8 0 1 6 4 1 2 0 0 0
16 2 5 1 18 29 25 42 30 30 22 0 0 0 0 17 2 2 6 0 7 16 13 25 34 12 24 20 10 17 0 0 3 2 2 1 0 3 0 0 0 0 0
4 0 3 4 1 1 9 14 29 44 5 0 19 3 1 1 0 6 4 12 11 24 45 16 41 24 11 9 4 0 1 0 0 0 0 0 0 0 0 0 0 0 0
4 0 0 2 1 11 2 3 1 11 21 7 19 7 4 0 3 14 7 20 20 23 3 9 1 0 13 0 0 0 0 0 0 0 0 0 0 0 0 0 0 0 0
10 15 0 0 1 4 2 8 11 5 12 6 0 0 0 0 5 17 12 10 8 6 5 2 4 0 7 0 0 0 0 0 0 0 0 0 0 0 0 0 0 0 0
21 11 8 8 2 1 3 8 3 4 3 0 9 8 28 21 9 5 7 10 2 3 7 5 3 3 6 3 0 0 0 0 0 0 0 0 0 0 0 0 0 0 0
12 0 10 10 11 0 4 0 20 22 17 39 42 41 13 2 7 8 2 0 0 2 1 0 5 0 0 0 0 0 0 0 0 0 0 0 0 0 0 0 0 0 0
15 10 7 1 4 0 5 34 48 47 45 33 41 29 9 6 8 5 0 0 0 0 0 0 0 0 0 0 0 0 0 0 0 0 0 0 0 0 0 0 0 0 0

GFSMA_con_mucape_117.txt.gz
CAPE
504 87 174 323 384 241 266 103 46 41 27 2 25 3 0 0 0 5 23 14 24 22 14 10 15 13 11 12 8 11 10 9 9 5 3 2 2 2 0 0 0 0 0
353 200 120 183 217 115 149 37 58 99 124 85 16 0 0 0 0 5 10 12 2 7 26 11 14 10 16 14 9 7 4 6 7 4 4 4 2 2 0 0 0 0 0
178 150 57 77 87 68 45 21 105 63 142 17 3 0 0 0 4 5 8 8 6 7 17 30 25 15 11 9 9 4 3 6 8 6 4 2 1 2 0 0 0 0 0
181 100 63 44 26 45 14 22 98 61 114 0 0 0 0 0 5 4 5 9 14 18 8 19 20 19 13 11 11 6 4 6 6 6 5 2 2 1 1 0 0 0 0
184 206 97 44 17 38 12 8 46 81 36 0 0 0 0 0 4 2 6 7 10 11 10 9 4 5 12 13 7 7 8 10 9 8 6 5 2 1 0 0 0 0 0
61 65 71 31 38 9 20 8 9 51 4 0 0 0 1 0 7 4 4 3 6 7 5 10 11 4 1 14 6 7 7 7 6 6 10 7 0 0 0 0 0 0 0
57 76 4 31 26 7 8 6 0 8 0 0 2 0 0 0 0 3 3 3 3 3 2 4 0 1 1 0 7 2 5 10 6 9 14 10 15 10 6 7 0 0 0
18 38 35 13 7 29 1 2 0 0 0 0 0 3 1 0 0 0 2 3 2 2 0 0 0 0 1 0 0 0 3 1 11 28 128 116 80 51 17 6 4 13 17
3 4 40 33 15 24 14 8 0 0 0 1 0 0 12 32 1 0 1 2 2 0 0 0 0 0 0 0 0 0 1 9 15 17 53 114 146 190 175 123 116 71 69
0 16 1 19 12 23 5 19 0 0 0 0 0 0 0 0 1 0 0 0 0 0 0 0 5 2 0 0 4 15 26 23 16 23 18 39 95 108 99 120 161 136 103
4 6 27 53 39 34 4 13 0 0 2 1 0 0 0 0 0 1 33 1 0 0 1 4 26 9 3 16 8 0 0 7 6 17 30 20 25 66 71 96 120 110 110
10 42 44 35 52 17 4 37 0 0 0 0 0 0 0 0 0 2 0 16 34 0 8 6 19 15 8 11 3 5 2 0 0 0 3 4 0 0 0 0 0 0 3
41 5 12 15 11 20 58 71 1 0 0 0 0 0 0 0 0 1 11 0 1 1 7 0 1 2 4 2 8 6 0 0 0 0 0 0 0 0 7 5 1 4 9
12 7 5 20 21 32 57 69 25 0 0 0 0 3 0 0 0 0 1 28 0 43 1 10 10 5 7 8 11 4 9 13 22 13 0 1 9 10 9 11 12 23 8
70 80 13 27 0 9 20 14 49 13 0 0 0 0 0 1 16 25 38 47 20 0 0 18 0 2 4 11 6 12 6 3 22 23 19 12 13 11 15 13 1 14 6
41 47 52 66 36 30 9 13 49 54 31 0 0 0 5 24 47 70 63 34 0 0 0 7 0 0 12 12 4 12 11 7 10 4 1 2 6 6 1 0 2 0 5
26 29 61 63 35 40 36 21 47 45 64 40 0 1 6 89 81 53 0 10 0 0 0 0 0 11 27 0 11 14 21 1 4 0 4 4 0 0 0 1 0 1 8
9 2 23 20 10 12 33 39 47 30 51 38 0 0 1 0 0 0 0 0 9 0 0 0 0 0 0 2 2 10 10 0 0 8 16 8 7 7 6 1 1 3 7
1 11 36 11 28 13 11 8 19 30 37 23 25 0 0 0 0 0 41 0 0 1 0 0 0 0 0 1 6 2 3 2 5 4 3 0 3 0 4 3 3 0 0
3 6 5 8 22 11 18 35 14 13 25 24 47 43 0 0 5 6 0 0 1 0 1 1 0 3 10 11 8 3 2 10 2 1 1 1 3 2 3 0 0 0 0
6 15 11 2 28 4 12 26 40 34 12 31 9 0 1 3 0 4 0 0 0 0 0 3 14 6 7 0 8 16 0 0 1 3 1 0 0 0 0 0 0 0 0
7 0 0 0 9 0 0 21 26 29 38 42 2 0 3 2 0 0 0 3 5 6 7 26 24 7 8 0 0 0 4 0 0 0 0 0 0 0 0 0 0 0 0
0 5 1 0 0 5 0 0 5 25 3 7 27 12 0 1 11 10 14 9 6 10 9 6 2 0 7 4 1 3 1 0 0 0 0 0 0 0 0 0 0 0 0
4 6 3 6 7 8 7 0 3 1 8 2 2 6 14 5 3 3 6 5 9 6 4 12 10 5 0 1 1 0 0 0 0 0 0 0 0 0 0 0 0 0 0
21 36 14 23 0 0 9 9 12 11 12 16 5 1 1 7 5 1 9 12 3 13 4 2 0 0 11 3 0 0 0 0 0 0 0 0 0 0 0 0 0 0 0
8 10 4 3 8 8 4 9 15 9 12 9 12 7 13 19 12 2 10 7 8 0 2 4 11 1 0 0 0 0 0 0 0 0 0 0 0 0 0 0 0 0 0

GFSMA_con_mucape_120.txt.gz
CAPE
1154 888 777 730 738 983 871 421 287 214 231 273 131 214 116 36 15 5 13 25 34 39 24 28 17 9 12 10 8 15 13 7 7 4 7 3 0 0 0 0 0 0 0
1018 462 428 1278 445 631 550 233 245 215 287 266 223 193 95 17 10 6 19 29 19 18 54 23 21 8 9 15 11 11 9 10 7 4 1 1 0 0 0 0 0 0 0
1075 498 291 490 316 153 154 136 184 154 200 216 237 207 67 16 6 6 7 24 22 19 37 42 27 9 10 8 9 5 4 4 6 3 4 3 1 2 0 0 0 0 0
830 577 407 244 302 119 84 51 132 164 220 240 200 194 48 15 13 17 37 41 25 19 13 19 21 22 24 12 10 9 7 7 5 4 4 4 3 3 6 1 0 0 0
753 335 303 136 192 63 26 18 92 221 238 226 201 143 30 30 30 17 42 46 27 15 9 13 17 18 22 18 10 10 9 10 8 7 6 8 5 5 7 3 0 0 0
257 294 177 90 92 34 15 18 42 161 225 235 115 46 60 67 64 40 30 45 20 16 16 12 15 8 1 11 5 8 10 7 7 8 8 6 6 8 0 0 0 0 0
271 154 155 193 53 70 33 21 10 233 181 186 173 117 64 107 87 25 28 50 22 14 14 16 10 4 0 0 2 1 10 9 14 17 10 6 15 9 3 2 0 0 0
304 155 206 63 79 44 19 23 4 131 135 207 88 65 47 43 38 34 32 48 33 19 11 7 5 2 2 0 0 0 2 21 34 46 139 142 105 69 38 20 7 3 0
347 242 105 93 10 27 26 26 3 37 138 143 144 16 25 20 35 44 25 42 47 29 22 8 6 5 2 19 8 1 0 0 36 51 135 152 150 151 150 157 130 104 78
212 152 23 15 6 2 18 10 12 24 179 139 144 54 45 22 27 40 27 41 45 36 50 26 2 0 33 76 20 14 1 0 12 12 6 21 53 87 102 126 149 173 165
5 48 0 8 4 3 9 13 14 154 162 155 137 80 58 72 59 38 30 29 57 59 71 63 8 19 70 70 79 61 4 0 2 0 0 0 12 15 7 5 6 11 20
0 0 0 3 13 11 21 9 1 58 143 194 126 130 80 40 64 61 28 37 59 86 74 66 91 129 153 123 31 5 10 1 1 0 0 0 0 0 0 0 0 0 0
0 0 10 1 8 21 13 5 18 111 135 211 193 139 76 26 27 47 58 108 81 52 71 135 163 148 108 88 14 0 0 8 4 6 5 0 0 0 0 0 0 0 0
0 0 12 17 10 30 30 35 6 62 158 259 219 214 94 71 40 28 58 90 96 31 30 57 35 8 2 4 4 8 3 7 2 4 1 22 28 0 0 5 9 10 11
6 12 4 14 22 13 26 44 8 30 58 213 254 257 133 81 75 55 47 94 77 43 43 61 12 8 1 5 3 2 9 8 7 3 5 11 14 5 11 26 21 8 2
75 36 15 4 26 8 5 16 2 39 50 20 140 215 184 76 70 85 80 69 86 96 89 66 0 0 13 2 5 8 7 6 3 3 1 0 0 1 6 5 6 1 0
48 30 20 23 50 5 3 12 29 42 43 28 43 79 62 11 12 36 61 52 65 65 0 41 4 11 6 1 2 6 7 7 8 30 8 2 0 1 2 0 5 3 3
70 54 27 27 59 0 20 17 5 4 0 33 31 10 8 3 8 17 29 48 3 0 13 0 0 0 0 1 26 8 0 0 7 2 7 1 0 0 0 3 1 1 2
4 0 9 25 24 2 4 44 22 3 1 1 10 58 36 19 0 0 0 1 1 0 0 0 0 0 3 0 0 0 0 7 1 2 1 4 8 2 3 2 5 3 0
3 3 6 3 19 31 2 16 18 36 21 6 4 47 50 2 1 0 4 0 0 0 0 0 0 0 0 0 0 4 0 3 0 1 0 5 3 6 4 2 0 0 0
0 2 9 4 2 35 4 5 4 10 11 30 21 40 27 10 0 0 0 2 0 0 0 0 0 0 0 0 0 0 0 1 3 3 0 0 6 7 0 0 0 0 0
2 5 0 1 0 0 6 33 32 17 21 25 15 37 6 16 13 0 0 2 0 0 0 0 0 0 1 11 30 9 0 2 2 3 4 6 1 0 0 0 0 0 0
3 0 0 0 2 0 0 2 13 37 10 2 0 24 32 1 3 2 0 7 7 0 0 4 8 9 12 4 6 8 3 0 1 0 0 0 0 0 0 0 0 0 0
4 2 2 11 1 0 0 0 0 0 5 10 3 8 14 0 0 0 3 3 1 1 9 4 0 2 4 2 10 5 1 0 0 0 0 0 0 0 0 0 0 0 0
2 2 2 1 0 0 0 0 0 1 28 0 0 22 20 3 0 0 3 1 1 0 1 6 3 1 4 6 1 1 0 0 0 0 0 0 0 0 0 0 0 0 0
11 6 4 3 5 3 4 8 5 7 13 9 13 4 13 4 2 9 5 3 2 1 2 5 1 8 0 0 0 0 0 0 0 0 0 0 0 0 0 0 0 0 0

GFSMA_con_mucape_123.txt.gz
CAPE
1959 1685 1657 943 817 1111 748 820 593 659 447 115 30 197 165 46 20 29 4 9 28 52 30 29 11 27 18 23 30 20 9 10 6 5 3 5 0 1 0 0 0 0 0
2303 1546 1461 1524 1050 1140 797 357 683 182 175 154 152 127 70 44 14 28 10 20 20 36 50 41 29 24 14 16 14 1 11 7 7 5 5 2 0 0 0 0 0 0 0
2242 1789 1248 1444 999 570 180 165 574 110 122 130 179 166 69 36 7 26 15 27 12 13 32 46 32 32 20 19 8 7 7 8 6 6 4 2 0 0 0 0 0 0 0
2192 1831 1336 1203 788 272 90 79 89 87 117 194 227 94 51 22 10 20 30 14 9 18 13 32 31 36 23 12 8 4 4 3 4 7 6 3 1 0 0 0 0 0 0
2031 1651 1213 685 696 641 121 80 53 65 193 129 182 119 112 27 18 11 29 20 13 12 16 10 24 18 23 15 5 5 6 5 4 6 8 4 2 0 0 0 0 0 0
1833 1546 921 625 744 205 137 60 38 57 202 228 138 107 62 47 39 32 19 12 27 51 21 0 8 3 3 15 10 9 8 8 7 6 5 3 6 6 0 0 0 0 0
1613 943 801 431 337 86 230 44 33 23 174 193 161 76 88 87 99 42 14 10 29 28 52 5 0 0 0 0 13 6 11 12 14 7 5 3 10 5 0 0 0 0 0
920 841 679 142 154 293 16 55 15 14 17 195 141 37 76 85 67 34 14 17 61 14 26 19 1 0 0 0 0 1 4 9 13 21 88 90 70 58 29 20 28 20 10
896 740 385 126 101 39 127 45 35 16 0 94 121 81 44 54 43 37 52 8 59 33 28 11 5 3 4 3 0 0 0 0 56 44 135 140 139 147 149 154 170 208 193
565 466 597 164 92 103 97 25 33 17 11 54 137 131 128 38 44 43 34 20 49 36 61 21 4 5 13 21 32 6 8 0 0 6 11 9 26 61 101 115 117 126 173
618 757 590 217 41 67 115 13 16 28 27 74 127 119 145 167 100 52 66 32 23 40 40 40 55 43 8 36 181 63 2 1 0 3 10 20 11 7 8 9 6 10 0
720 517 412 99 26 16 41 1 15 32 5 54 106 191 147 130 43 163 108 110 56 114 79 89 101 58 97 146 65 25 4 0 1 1 4 1 0 0 0 0 0 0 0
96 64 44 2 0 0 4 3 10 12 20 36 57 154 191 123 182 201 187 137 128 93 84 190 109 142 149 42 27 4 1 1 0 0 3 8 8 6 12 8 5 0 0
57 32 3 3 0 0 3 16 3 4 11 6 44 174 221 140 193 149 167 131 122 137 147 90 43 51 38 31 26 15 4 9 1 6 12 2 4 3 3 16 30 12 9
160 25 29 1 2 0 3 26 9 7 12 13 13 145 136 143 205 167 179 214 151 99 52 6 4 17 11 10 3 6 8 2 12 5 4 2 6 10 6 4 3 7 15
296 39 49 7 2 10 4 11 8 21 7 16 56 138 202 237 180 206 217 214 196 97 62 19 0 1 1 0 1 9 10 11 2 3 2 5 10 11 3 6 3 2 9
343 191 18 53 10 53 39 0 4 16 14 5 76 164 201 215 217 225 255 256 174 137 133 0 6 11 3 3 2 1 4 5 0 3 5 10 6 4 7 1 1 0 0
370 106 28 11 31 0 0 7 1 2 13 4 62 108 170 148 172 187 131 68 86 142 127 15 29 16 14 4 1 0 13 14 5 1 0 2 2 2 7 0 3 5 0
143 130 84 76 21 74 6 2 3 0 22 12 0 115 138 154 157 59 18 33 95 34 50 25 0 27 0 0 0 2 7 0 1 1 1 3 4 1 0 0 2 4 3
66 56 32 101 112 39 1 6 6 4 0 3 33 50 66 71 53 19 3 17 37 36 0 0 0 0 0 0 1 0 0 3 1 0 2 1 3 3 5 0 2 2 0
20 16 14 7 12 8 7 19 5 16 20 7 34 35 36 49 42 74 6 0 0 0 0 0 0 0 0 0 0 0 0 0 0 4 4 11 6 0 0 0 0 0 0
7 0 5 2 16 0 1 4 11 1 4 4 0 0 2 0 9 0 0 0 0 0 1 1 3 1 0 0 0 0 0 5 1 2 5 3 7 2 0 0 0 0 0
0 0 3 0 0 0 0 0 6 12 11 8 4 36 5 12 15 7 20 0 1 0 0 0 0 0 0 0 2 9 4 26 5 2 0 0 0 0 0 0 0 0 0
0 1 0 0 0 0 0 0 0 0 0 2 22 31 7 13 0 6 13 0 0 0 0 0 2 2 3 4 8 3 2 3 0 0 0 0 0 0 0 0 0 0 0
2 2 3 13 0 0 0 0 0 1 2 0 0 0 0 4 7 1 0 0 0 6 1 7 3 2 6 5 5 4 0 0 0 0 0 0 0 0 0 0 0 0 0
3 5 3 3 2 0 0 0 0 0 0 0 2 0 0 6 0 0 0 1 0 0 0 0 1 3 4 5 1 0 0 0 0 0 0 0 0 0 0 0 0 0 0

GFSMA_con_mucape_126.txt.gz
CAPE
1796 1483 1261 986 765 645 613 547 423 274 322 282 185 77 40 80 22 3 0 0 0 26 33 19 16 29 21 23 14 13 1 7 14 11 6 9 6 0 0 0 0 0 0
1820 1617 1494 1140 690 555 584 502 368 225 191 107 24 34 37 46 8 0 0 0 0 22 41 28 26 20 11 10 24 6 12 11 8 8 3 0 0 0 0 0 0 0 0
2163 1614 1414 1121 835 505 512 426 123 139 134 78 62 75 38 23 11 0 0 0 3 13 20 41 39 22 14 8 11 9 13 9 6 3 1 0 0 0 0 0 0 0 0
2132 1776 1448 1262 942 493 324 139 72 62 75 36 43 78 78 20 9 1 0 0 0 1 10 13 23 25 29 9 14 11 11 7 3 2 1 0 0 0 0 0 0 0 0
2130 1816 1448 1197 872 399 240 163 50 39 43 46 49 67 85 20 0 12 1 0 0 0 0 2 5 9 21 18 12 11 11 8 5 4 2 0 0 0 0 0 0 0 0
2254 1905 1474 1235 802 598 385 113 87 40 48 73 67 83 65 16 0 2 2 0 0 0 0 0 0 0 4 17 13 8 8 6 7 6 4 5 2 0 0 0 0 0 0
1792 1831 1398 1084 881 520 343 197 79 20 22 45 46 74 63 19 11 11 12 2 0 0 0 0 0 0 0 10 14 5 10 8 10 7 5 0 0 0 0 0 0 0 0
1726 1541 1527 1141 1121 824 270 171 53 56 9 18 11 56 21 30 63 37 23 17 6 1 0 0 0 0 0 0 0 7 9 11 10 14 27 22 24 29 37 59 66 73 77
1498 1675 1228 841 670 672 447 125 156 63 15 12 35 17 0 0 28 27 16 10 7 0 5 1 0 0 0 0 0 0 0 1 42 71 128 115 127 145 152 164 179 193 179
1557 1417 1143 671 435 519 242 104 170 11 34 12 29 45 19 1 0 27 18 30 29 0 0 1 0 0 5 0 0 0 0 0 0 20 58 47 33 32 17 16 6 5 10
1139 1116 826 442 187 107 64 208 55 49 75 28 2 0 13 30 17 0 3 9 27 4 9 1 0 0 17 15 14 3 0 0 0 0 0 2 18 27 23 17 2 0 0
1111 890 539 508 209 90 81 76 27 63 43 44 25 8 0 33 6 0 0 0 3 6 13 16 9 8 7 16 17 32 21 10 0 0 2 2 7 1 3 2 1 0 0
1083 642 513 477 221 132 88 59 112 85 13 6 16 3 8 56 22 4 0 0 0 11 25 26 39 23 14 0 17 32 30 18 0 2 6 6 10 12 16 11 6 3 8
411 809 357 433 375 59 25 11 34 31 4 12 27 7 20 59 59 57 0 0 0 15 31 44 55 24 0 9 32 49 19 11 3 5 11 23 19 5 10 20 20 17 11
360 193 324 302 24 0 0 0 2 0 6 16 23 6 18 69 109 69 95 20 2 1 27 40 36 20 2 10 42 69 26 0 3 14 13 10 22 24 15 29 20 18 14
491 287 52 30 0 11 0 1 0 1 14 19 2 21 40 39 97 123 127 68 35 4 3 1 4 3 4 27 49 40 0 4 8 10 4 8 8 7 8 10 8 3 7
469 325 37 25 24 31 4 0 0 0 1 31 6 81 16 48 27 122 138 149 61 56 24 3 22 11 22 51 1 0 5 9 4 3 2 3 4 2 5 5 5 7 5
518 267 169 31 2 35 27 68 31 0 0 9 34 4 0 30 52 141 160 169 79 68 61 17 0 0 0 2 2 7 10 4 2 2 0 12 5 2 1 3 3 3 2
490 405 151 24 8 12 32 2 2 1 2 5 14 14 11 0 42 71 95 128 108 69 55 0 0 0 0 2 14 9 3 3 14 1 3 1 3 1 6 8 4 2 2
313 261 63 11 5 25 20 26 18 18 1 2 0 22 12 0 0 83 77 99 100 80 52 38 8 11 12 3 0 1 0 0 1 2 1 2 0 0 2 3 9 6 0
90 71 108 81 48 60 27 17 0 0 7 9 11 3 12 40 61 70 84 64 76 64 53 7 4 2 0 0 1 3 1 0 0 1 2 1 1 1 5 2 2 1 0
94 58 6 13 2 5 16 0 15 59 13 17 24 10 9 10 48 35 52 49 70 53 40 0 0 0 0 0 0 0 0 0 0 1 0 5 6 2 8 0 0 0 0
5 31 3 0 0 9 2 2 5 0 3 13 7 6 9 0 43 54 3 32 24 3 0 0 0 0 0 0 0 0 0 0 0 1 1 6 1 3 0 0 0 0 0
18 82 1 2 7 1 2 0 2 4 1 1 0 5 10 0 9 3 14 25 32 0 0 0 0 0 0 3 2 2 0 0 0 2 5 0 0 0 0 0 0 0 0
76 29 6 4 0 0 0 0 0 0 0 0 0 3 20 19 14 26 7 0 8 6 2 3 2 12 6 3 5 2 0 0 3 0 0 0 0 0 0 0 0 0 0
81 23 11 6 0 0 0 0 0 0 0 0 0 0 0 0 0 0 0 0 0 0 0 0 14 3 3 2 1 2 4 1 1 0 0 0 0 0 0 0 0 0 0

GFSMA_con_mucape_132.txt.gz
CAPE
1548 1382 1143 901 769 575 517 592 427 324 195 136 147 129 82 73 168 207 217 253 283 432 236 31 31 33 30 24 23 24 23 21 26 30 23 11 11 8 4 2 0 0 0
1773 1522 1306 1082 948 776 655 474 461 257 270 189 120 86 73 43 117 122 87 63 144 118 140 34 35 23 31 27 24 22 20 25 28 22 20 4 2 0 0 0 0 0 0
1692 1605 1403 1164 1065 923 673 630 491 211 226 110 98 87 29 38 24 27 0 1 0 0 12 24 34 28 31 23 24 21 21 35 19 23 19 8 1 0 0 0 0 0 0
1664 1615 1602 1360 1211 1105 865 754 491 228 104 61 55 35 33 18 23 27 9 0 0 0 1 11 36 47 47 30 24 25 21 11 15 16 14 3 1 0 0 0 0 0 0
1954 1678 1657 1548 1375 1165 928 734 546 294 77 44 31 34 9 28 34 26 0 0 0 0 0 9 19 26 35 37 23 22 17 14 11 16 6 3 1 0 0 0 0 0 0
1902 2010 1838 1666 1395 1198 1055 805 532 314 105 93 36 33 7 28 39 30 6 0 0 0 0 0 10 14 12 22 31 14 17 19 16 13 8 4 1 0 0 0 0 0 0
2031 1955 1912 1565 1492 1390 1231 792 531 430 191 104 39 30 18 10 20 15 2 0 0 0 0 0 0 0 3 20 30 25 13 22 22 6 3 7 1 0 0 0 0 0 0
1946 1814 1662 1353 1385 1445 1319 1073 646 494 333 173 41 10 32 9 2 0 3 0 0 0 0 0 0 0 0 0 0 20 20 12 9 6 9 16 20 18 3 0 1 3 16
1944 1818 1329 1254 1227 1349 1092 1064 835 618 405 196 45 27 23 12 6 0 3 1 0 0 0 0 0 0 0 0 0 1 3 13 33 24 25 33 41 53 75 50 61 39 15
1378 1550 1421 1322 1263 1249 1252 1159 987 738 487 150 58 18 1 3 6 0 0 0 0 0 0 0 0 0 0 0 0 0 0 1 17 44 100 80 51 31 18 17 12 1 27
1186 1294 1271 1144 1308 1298 1425 1292 991 881 644 162 77 121 4 8 12 1 3 0 0 0 0 0 0 0 0 0 0 0 0 0 1 9 14 11 16 9 0 0 9 12 1
1012 1076 1050 1138 1419 1414 1362 1171 1008 915 566 219 99 160 21 9 35 9 7 3 0 3 2 2 2 0 0 0 0 0 0 0 0 0 0 0 0 0 0 11 7 13 7
949 849 910 1004 1158 1234 1123 1000 688 791 757 70 90 82 45 30 18 28 16 3 0 2 1 6 15 7 0 0 0 0 0 0 0 0 0 0 0 0 2 7 14 13 17
597 565 769 803 849 996 1080 865 604 525 151 80 126 86 43 104 62 19 36 8 1 0 0 3 11 22 8 3 0 3 6 2 7 0 5 0 0 4 11 28 22 26 15
471 497 473 638 791 749 794 643 684 410 160 169 25 62 96 101 52 40 12 15 6 2 0 1 5 18 11 14 11 16 11 11 51 43 27 17 2 0 8 9 13 9 12
661 677 808 618 676 640 757 585 565 195 138 160 43 30 73 31 58 20 12 25 13 0 0 0 0 0 5 11 13 26 21 23 63 51 54 74 24 5 7 15 9 1 7
640 628 747 500 511 529 481 677 401 257 128 322 179 24 84 29 11 14 16 12 13 0 0 1 0 0 5 6 5 21 23 20 50 78 99 105 62 7 18 5 5 2 5
402 613 621 544 451 316 344 476 397 432 230 136 113 156 36 21 3 20 21 40 6 1 0 0 0 0 4 9 11 44 80 55 67 92 111 70 25 14 1 0 1 3 1
205 472 480 570 319 379 265 88 125 245 96 47 4 15 4 3 22 24 35 16 2 1 22 5 2 0 0 12 11 35 46 32 21 30 76 3 11 4 3 3 3 3 5
40 350 291 496 387 309 73 61 51 3 16 18 27 28 1 5 13 25 37 10 8 28 16 48 27 2 9 25 88 69 0 44 61 35 7 21 5 2 1 1 4 8 6
2 233 283 454 477 305 419 56 16 10 7 20 1 7 3 0 11 21 23 45 13 43 9 49 19 26 13 41 43 48 15 69 63 44 16 1 5 0 1 2 2 3 7
20 69 222 348 420 316 241 46 3 18 24 26 24 8 14 3 2 1 16 16 0 0 34 139 3 0 0 31 7 0 3 0 0 20 10 0 0 0 1 4 1 5 4
15 24 66 98 378 289 277 45 21 17 12 15 16 11 13 40 11 30 37 2 0 0 14 11 18 47 10 3 0 0 0 0 4 0 0 0 0 0 2 3 0 1 0
9 24 30 63 107 168 169 123 56 33 31 12 9 12 10 10 14 33 8 7 2 8 0 38 48 40 49 31 0 8 0 0 1 0 0 0 1 0 3 1 0 0 0
0 1 20 76 198 100 13 77 11 3 3 16 8 11 26 29 10 23 6 33 2 14 10 30 12 1 1 1 1 0 0 0 0 0 0 0 1 0 1 2 0 0 0
0 0 1 38 42 27 11 96 4 0 4 8 8 14 4 17 10 1 2 21 0 12 0 0 0 22 4 1 20 3 0 0 0 0 0 0 0 5 2 0 0 0 0

GFSMA_con_mucape_135.txt.gz
CAPE
1427 1296 1110 934 723 484 485 309 335 315 324 124 109 62 61 34 68 145 222 269 303 529 455 216 202 110 32 32 40 40 25 19 28 32 20 10 14 6 4 2 0 0 0
1287 1300 1249 1040 820 665 409 275 131 229 274 94 70 46 35 62 93 123 188 247 262 332 412 229 70 66 35 38 34 22 18 22 34 33 20 14 13 5 0 0 0 0 0
2200 1484 1274 1061 857 729 633 454 257 278 232 91 37 6 14 25 76 119 151 207 198 203 138 133 210 63 34 44 36 29 32 39 38 31 16 5 2 0 0 0 0 0 0
1915 1965 1364 1194 1035 904 782 621 434 300 190 82 59 10 6 7 30 79 115 132 129 68 10 8 64 55 41 36 34 32 36 46 37 30 14 5 1 0 0 0 0 0 0
1825 1553 1565 1260 1174 1015 922 772 576 444 297 169 89 28 32 15 35 49 48 19 54 4 0 0 18 34 38 48 27 29 23 36 34 23 12 8 2 0 0 0 0 0 0
1751 1693 1445 1375 1307 1182 1045 1045 785 533 378 287 95 49 26 31 17 19 39 30 2 0 0 0 9 22 21 45 39 38 34 10 26 21 10 8 6 0 0 0 0 0 0
1764 1522 1601 1554 1375 1307 1254 1137 888 762 429 327 96 52 36 14 8 33 42 14 0 0 0 0 0 8 10 25 39 38 22 30 30 14 11 11 5 0 0 0 0 0 0
1932 1791 1698 1510 1486 1414 1294 1116 998 691 525 366 65 49 85 10 0 22 22 11 0 0 0 0 0 0 0 1 7 45 36 30 23 11 9 12 5 0 0 0 0 4 28
1875 1917 1891 1712 1393 1111 1045 710 1084 843 567 422 259 70 89 15 0 1 24 8 2 0 0 0 0 0 0 0 1 13 14 22 34 22 15 26 26 9 8 9 25 77 35
1590 1622 1805 1633 1511 1172 1078 595 1022 896 733 479 303 99 74 26 9 1 5 17 3 10 0 0 0 0 0 0 0 0 0 12 13 29 36 46 28 16 63 71 50 20 31
1529 1336 1271 1312 1237 1198 1086 902 988 849 841 613 504 169 74 68 10 25 7 2 1 2 7 0 0 0 0 0 0 0 0 5 12 16 37 100 108 89 67 27 22 42 19
952 1068 896 895 1062 965 1018 953 904 833 811 647 504 221 59 37 14 44 2 3 10 6 4 3 0 0 0 0 0 0 0 0 2 7 24 24 35 27 23 10 38 4 0
667 727 705 668 859 839 830 713 858 1020 915 811 529 460 122 46 59 39 37 9 22 3 0 3 2 0 0 0 0 0 0 0 0 5 11 12 14 12 25 1 1 4 10
616 563 644 648 680 598 691 765 874 982 882 953 631 517 325 79 66 44 54 27 28 9 16 0 0 0 0 0 0 0 0 0 0 0 8 5 3 0 0 3 7 2 15
335 497 488 602 540 582 574 707 962 876 768 950 722 596 206 21 47 89 70 26 25 0 2 1 0 0 0 6 0 0 0 0 0 0 0 0 2 0 2 2 1 4 16
190 310 401 520 387 366 395 540 694 785 889 808 432 458 1 47 49 31 53 48 2 0 0 0 0 0 0 11 4 2 16 17 17 12 25 34 26 42 14 5 0 9 1
78 131 182 431 541 476 375 510 713 489 716 501 413 41 52 64 50 24 48 14 48 26 2 21 0 4 4 6 5 10 12 15 33 36 47 50 52 57 13 21 14 10 11
13 79 259 408 345 449 513 644 723 490 588 333 69 45 56 178 83 33 36 29 15 11 0 0 0 5 9 0 6 11 22 24 38 54 77 63 60 42 38 10 4 11 6
0 17 94 188 302 391 407 548 484 509 382 326 241 142 208 126 28 32 18 42 12 37 17 3 2 0 1 0 0 3 16 24 23 48 35 32 39 26 2 5 1 5 3
0 0 4 77 126 348 384 219 146 96 112 251 358 280 140 69 15 49 2 2 7 13 16 11 0 0 0 7 6 2 4 9 14 20 30 26 41 33 8 1 1 1 1
0 0 1 40 268 95 280 338 159 197 43 90 34 23 21 14 45 17 8 2 4 8 15 0 0 0 0 0 0 5 14 37 31 27 34 24 2 1 8 2 1 1 1
0 0 1 15 72 28 112 351 293 53 56 52 24 7 22 34 13 12 9 1 21 8 7 0 7 19 0 0 18 32 15 39 27 12 18 4 1 1 0 0 1 1 1
0 0 0 5 6 23 67 228 360 87 31 7 20 53 20 22 11 19 7 7 10 6 4 0 12 34 19 0 20 11 9 0 2 0 0 0 1 0 2 0 1 1 0
0 0 0 3 18 17 53 59 87 154 58 24 8 54 9 15 14 19 13 23 21 35 13 17 12 7 3 8 19 19 16 17 16 7 9 0 0 0 1 0 1 0 0
0 0 0 0 1 27 30 36 20 64 41 52 75 61 13 34 15 15 13 19 8 11 5 2 12 28 5 4 36 23 20 0 0 0 0 0 0 0 0 0 0 0 0
0 0 0 0 0 0 29 0 0 60 80 60 36 47 10 28 8 4 3 8 8 1 1 0 3 5 8 10 59 17 0 0 0 0 0 0 0 0 0 0 0 0 0

GFSMA_con_mucape_138.txt.gz
CAPE
1388 1345 1092 690 426 354 158 99 178 276 291 21 70 47 55 93 114 96 101 207 278 522 541 386 281 249 99 54 65 46 34 34 26 20 17 12 6 10 10 5 0 0 0
1675 1237 1232 947 655 532 322 189 72 131 192 82 39 54 40 50 23 20 52 111 221 324 457 385 260 239 96 37 66 39 33 27 18 26 4 6 13 9 5 0 0 0 0
1560 1158 1097 1171 924 758 523 357 164 96 106 99 43 15 25 34 13 18 37 96 140 219 242 306 329 300 78 51 43 47 30 20 32 24 16 16 10 7 0 0 0 0 0
1060 1673 1475 1479 1119 929 676 539 383 204 108 116 32 16 9 8 45 30 47 59 99 129 151 81 137 180 115 48 47 55 40 47 37 36 20 11 8 1 0 0 0 0 0
1249 1517 1617 1377 1166 1055 771 649 572 410 151 133 69 50 58 36 27 36 41 92 107 159 82 21 15 24 52 65 49 34 44 49 49 38 14 9 3 1 0 0 0 0 0
1425 1522 1422 1465 1350 1021 982 803 736 569 338 122 110 96 82 31 46 20 38 54 61 96 42 19 0 7 33 57 67 45 60 62 53 47 22 10 7 2 0 0 0 0 0
947 1020 1044 1616 1472 1242 1027 965 851 769 397 221 182 130 20 11 18 30 24 29 33 54 17 0 0 0 16 36 56 62 65 67 46 22 22 10 10 2 0 0 0 0 0
1182 1112 1100 1766 1371 1329 1060 897 800 803 650 415 231 173 11 8 17 9 11 31 10 14 0 0 0 0 0 8 26 60 77 70 47 22 10 15 9 3 0 0 0 0 0
1577 1668 1897 2184 1880 1513 1261 919 797 493 447 412 449 148 7 7 1 4 1 5 13 6 1 0 0 1 1 3 7 13 29 39 42 24 14 22 11 6 3 0 5 22 82
1789 2125 2491 2054 2120 2004 1610 950 568 472 398 376 337 309 78 8 2 4 0 9 5 7 0 0 0 0 3 0 0 0 12 19 15 31 26 26 16 14 10 9 33 67 21
1790 2506 1990 2114 1776 1636 1320 1452 641 973 354 550 360 276 229 177 8 4 0 1 2 6 1 11 7 0 0 0 0 0 1 14 9 14 32 48 63 70 70 90 64 13 64
1639 1727 1839 1872 1419 1576 1473 1284 963 669 714 660 558 412 247 173 24 0 1 4 15 17 23 8 1 0 0 0 0 0 0 0 8 9 17 43 77 75 77 32 6 42 11
1181 1027 1189 1468 1277 1433 1327 1135 986 518 652 568 516 575 522 294 194 48 9 15 28 11 18 24 10 15 0 0 0 0 0 0 0 7 26 29 43 34 21 15 35 12 0
621 677 616 1127 749 659 596 666 663 631 534 597 595 682 566 320 229 70 21 32 33 30 4 5 5 5 0 0 0 0 0 0 0 0 25 37 36 19 3 2 0 0 0
318 367 472 455 510 478 342 404 477 809 410 842 747 808 756 616 406 274 160 53 70 33 1 2 21 9 6 1 0 0 0 0 0 0 1 13 9 4 3 1 0 0 0
173 148 319 393 358 484 472 384 369 486 559 645 734 772 815 504 358 393 178 33 40 47 25 1 29 18 5 7 0 0 0 0 0 0 0 1 0 0 4 0 0 0 0
73 112 152 159 204 834 744 382 316 368 358 434 668 737 569 332 364 406 230 19 23 39 7 10 18 45 15 0 7 1 2 0 6 1 0 0 3 5 5 4 42 16 10
0 42 78 113 160 235 460 330 359 384 338 401 621 586 778 318 160 143 8 64 47 17 2 16 31 16 7 14 1 11 11 0 11 15 15 25 12 9 21 39 42 41 15
0 0 1 75 121 227 312 353 336 242 288 419 642 538 521 249 212 17 48 47 38 25 17 3 3 28 10 7 37 23 34 16 8 16 15 32 21 21 34 33 40 36 7
0 0 0 0 4 119 140 237 394 304 285 349 308 423 209 75 20 44 80 65 45 38 1 2 18 7 21 5 0 0 21 40 15 2 11 43 57 44 33 32 36 12 5
0 0 0 0 1 22 120 92 189 294 267 219 128 156 180 142 104 134 84 9 61 46 3 0 3 0 1 0 0 0 0 26 18 11 15 48 34 25 33 36 24 2 1
0 0 0 0 0 1 59 75 135 167 341 188 92 59 59 71 104 11 27 9 11 17 0 0 21 2 17 0 0 0 0 0 4 15 17 43 25 15 6 20 1 1 1
0 0 0 0 0 0 2 37 126 130 155 274 209 74 52 39 36 34 41 8 6 7 2 0 1 5 0 3 3 0 0 0 0 29 38 22 17 26 2 1 3 1 1
0 0 0 0 0 0 0 7 13 73 122 44 233 165 60 28 47 5 109 22 6 16 1 6 1 8 18 15 23 2 0 0 13 0 30 24 22 2 1 1 1 1 0
0 0 0 0 0 0 0 6 27 31 82 29 35 87 96 48 51 4 20 93 33 6 25 4 13 12 0 22 12 0 0 0 0 0 20 2 0 0 0 0 0 0 0
0 0 0 0 0 0 0 0 31 32 47 7 18 33 62 21 27 15 26 217 32 16 4 12 29 21 11 9 16 2 11 0 0 0 0 0 0 0 0 0 0 0 0